[[{"header":{"parameterUnit":"m.s-1","parameterCategory":1,"la1":31.0,"la2":29.5877,"lo1":-88.7671,"lo2":-86.6584,"dy":0.0162,"dx":0.0185,"nx":115,"ny":88,"refTime":"2024-09-27T12:00:00:Z","depth":0,"parameterNumber":2,"parameterNumberName":"U-component_of_WINDS"},"data":[0.0,0.0,0.0,0.0,0.0,0.0,0.0,0.0,0.0,0.0,0.0,0.0,0.0,0.0,0.0,0.0,0.0,0.0,0.0,0.0,0.0,0.0,0.0,0.0,0.0,0.0,0.0,0.0,0.0,0.0,0.0,0.0,0.0,0.0,0.0,0.0,0.0,0.0,0.0,0.0,0.0,0.0,0.0,0.0,0.0,0.0,0.0,0.0,0.0,0.0,0.0,0.0,0.0,0.0,0.0,0.0,0.0,0.0,0.0,0.0,0.0,0.0,0.0,0.0,0.0,0.0,0.0,0.0,0.0,0.0,0.0,0.0,0.0,0.0,0.0,0.0,0.0,0.0,0.0,0.0,0.0,0.0,0.0,0.0,0.0,0.0,0.0,0.0,0.0,0.0,0.0,0.0,0.0,0.0,0.0,0.0,0.0,0.0,0.0,0.0,0.0,0.0,0.0,0.0,0.0,0.0,0.0,0.0,0.0,0.0,0.0,0.0,0.0,0.0,0.0,0.0,0.0,0.0,0.0,0.0,0.0,0.0,0.0,0.0,0.0,0.0,0.0,0.0,0.0,0.0,0.0,0.0,0.0,0.0,0.0,0.0,0.0,0.0,0.0,0.0,0.0,0.0,0.0,0.0,0.0,0.0,0.0,0.0,0.0,0.0,0.0,0.0,0.0,0.0,0.0,0.0,0.0,0.0,0.0,0.0,0.0,0.0,0.0,0.0,0.0,0.0,0.0,0.0,0.0,0.0,0.0,0.0,0.0,0.0,0.0,0.0,0.0,0.0,0.0,0.0,0.0,0.0,0.0,0.0,0.0,0.0,0.0,0.0,0.0,0.0,0.0,0.0,0.0,0.0,0.0,0.0,0.0,0.0,0.0,0.0,0.0,0.0,0.0,0.0,0.0,0.0,0.0,0.0,0.0,0.0,0.0,0.0,0.0,0.0,0.0,0.0,0.0,0.0,0.0,0.0,0.0,0.0,0.0,0.0,0.0,0.0,0.0,0.0,0.0,0.0,0.0,0.0,0.0,0.0,0.0,0.0,0.0,0.0,0.0,0.0,0.0,0.0,0.0,0.0,0.0,0.0,0.0,0.0,0.0,0.0,0.0,0.0,0.0,0.0,0.0,0.0,0.0,0.0,0.0,0.0,0.0,0.0,0.0,0.0,0.0,0.0,0.0,0.0,0.0,0.0,0.0,0.0,0.0,0.0,0.0,0.0,0.0,0.0,0.0,0.0,0.0,0.0,0.0,0.0,0.0,0.0,0.0,0.0,0.0,0.0,0.0,0.0,0.0,0.0,0.0,0.0,0.0,0.0,0.0,0.0,0.0,0.0,0.0,0.0,0.0,0.0,0.0,0.0,0.0,0.0,0.0,0.0,0.0,0.0,0.0,0.0,0.0,0.0,0.0,0.0,0.0,0.0,0.0,0.0,0.0,0.0,0.0,0.0,0.0,0.0,0.0,0.0,0.0,0.0,0.0,0.0,0.0,0.0,0.0,0.0,0.0,0.0,0.0,0.0,0.0,0.0,0.0,0.0,0.0,0.0,0.0,0.0,0.0,0.0,0.0,0.0,0.0,0.0,0.0,0.0,0.0,0.0,0.0,0.0,0.0,0.0,0.0,0.0,0.0,0.0,0.0,0.0,0.0,0.0,0.0,0.0,0.0,0.0,0.0,0.0,0.0,0.0,0.0,0.0,0.0,0.0,0.0,0.0,0.0,0.0,0.0,0.0,0.0,0.0,0.0,0.0,0.0,0.0,0.0,0.0,0.0,0.0,0.0,0.0,0.0,0.0,0.0,0.0,0.0,0.0,0.0,0.0,0.0,0.0,0.0,0.0,0.0,0.0,0.0,0.0,0.0,0.0,0.0,0.0,0.0,0.0,0.0,0.0,0.0,0.0,0.0,0.0,0.0,0.0,0.0,0.0,0.0,0.0,0.0,0.0,0.0,0.0,0.0,0.0,0.0,0.0,0.0,0.0,0.0,0.0,0.0,0.0,0.0,0.0,0.0,0.0,0.0,0.0,0.0,0.0,0.0,0.0,0.0,0.0,0.0,0.0,0.0,0.0,0.0,0.0,0.0,0.0,0.0,0.0,0.0,0.0,0.0,0.0,0.0,0.0,0.0,0.0,0.0,0.0,0.0,0.0,0.0,0.0,0.0,0.0,0.0,0.0,0.0,0.0,0.0,0.0,0.0,0.0,0.0,0.0,0.0,0.0,0.0,0.0,0.0,0.0,0.0,0.0,0.0,0.0,0.0,0.0,0.0,0.0,0.0,0.0,0.0,0.0,0.0,0.0,0.0,0.0,0.0,0.0,0.0,0.0,0.0,0.0,0.0,0.0,0.0,0.0,0.0,0.0,0.0,0.0,0.0,0.0,0.0,0.0,0.0,0.0,0.0,0.0,0.0,0.0,0.0,0.0,0.0,0.0,0.0,0.0,0.0,0.0,0.0,0.0,0.0,0.0,0.0,0.0,0.0,0.0,0.0,0.0,0.0,0.0,0.0,0.0,0.0,0.0,0.0,0.0,0.0,0.0,0.0,0.0,0.0,0.0,0.0,0.0,0.0,0.0,0.0,0.0,0.0,0.0,0.0,0.0,0.0,0.0,0.0,0.0,0.0,0.0,0.0,0.0,0.0,0.0,0.0,0.0,0.0,0.0,0.0,0.0,0.0,0.0,0.0,0.0,0.0,0.0,0.0,0.0,0.0,0.0,0.0,0.0,0.0,0.0,0.0,0.0,0.0,0.0,0.0,0.0,0.0,0.0,0.0,0.0,0.0,0.0,0.0,0.0,0.0,0.0,0.0,0.0,0.0,0.0,0.0,0.0,0.0,0.0,0.0,0.0,0.0,0.0,0.0,0.0,0.0,0.0,0.0,0.0,0.0,0.0,0.0,0.0,0.0,0.0,0.0,0.0,0.0,0.0,0.0,0.0,0.0,0.0,0.0,0.0,0.0,0.0,0.0,0.0,0.0,0.0,0.0,0.0,0.0,0.0,0.0,0.0,0.0,0.0,0.0,0.0,0.0,0.0,0.0,0.0,0.0,0.0,0.0,0.0,0.0,0.0,0.0,0.0,0.0,0.0,0.0,0.0,0.0,0.0,0.0,0.0,0.0,0.0,0.0,0.0,0.0,0.0,0.0,0.0,0.0,0.0,0.0,0.0,0.0,0.0,0.0,0.0,0.0,0.0,0.0,0.0,0.0,0.0,0.0,0.0,0.0,0.0,0.0,0.0,0.0,0.0,0.0,0.0,0.0,0.0,0.0,0.0,0.0,0.0,0.0,0.0,0.0,0.0,0.0,0.0,0.0,0.0,0.0,0.0,0.0,0.0,0.0,0.0,0.0,0.0,0.0,0.0,0.0,0.0,0.0,0.0,0.0,0.0,0.0,0.0,0.0,0.0,0.0,0.0,0.0,0.0,0.0,0.0,0.0,0.0,0.0,0.0,0.0,0.0,0.0,0.0,0.0,0.0,0.0,0.0,0.0,0.0,0.0,0.0,0.0,0.0,0.0,0.0,0.0,0.0,0.0,0.0,0.0,0.0,0.0,0.0,0.0,0.0,0.0,0.0,0.0,0.0,0.0,0.0,0.0,0.0,0.0,0.0,0.0,0.0,0.0,0.0,0.0,0.0,0.0,0.0,0.0,0.0,0.0,0.0,0.0,0.0,0.0,0.0,0.0,0.0,0.0,0.0,0.0,0.0,0.0,0.0,0.0,0.0,0.0,0.0,0.0,0.0,0.0,0.0,0.0,0.0,0.0,0.0,0.0,0.0,0.0,0.0,0.0,0.0,0.0,0.0,0.0,0.0,0.0,0.0,0.0,0.0,0.0,0.0,0.0,0.0,0.0,0.0,0.0,0.0,0.0,0.0,0.0,0.0,0.0,0.0,0.0,0.0,0.0,0.0,0.0,0.0,0.0,0.0,0.0,0.0,0.0,0.0,0.0,0.0,0.0,0.0,0.0,0.0,0.0,0.0,0.0,0.0,0.0,0.0,0.0,0.0,0.0,0.0,0.0,0.0,0.0,0.0,0.0,0.0,0.0,0.0,0.0,0.0,0.0,0.0,0.0,0.0,0.0,0.0,0.0,0.0,0.0,0.0,0.0,0.0,0.0,0.0,0.0,0.0,0.0,0.0,0.0,0.0,0.0,0.0,0.0,0.0,0.0,0.0,0.0,0.0,0.0,0.0,0.0,0.0,0.0,0.0,0.0,0.0,0.0,0.0,0.0,0.0,0.0,0.0,0.0,0.0,0.0,0.0,0.0,0.0,-0.1803,0.0,0.0,0.0,0.0,0.0,0.0,0.0,0.0,0.0,0.0,0.0,0.0,0.0,0.0,0.0,0.0,0.0,0.0,0.0,0.0,0.0,0.0,0.0,0.0,0.0,0.0,0.0,0.0,0.0,0.0,0.0,0.0,0.0,0.0,0.0,0.0,0.0,0.0,0.0,0.0,0.0,0.0,0.0,0.0,0.0,0.0,0.0,0.0,0.0,0.0,0.0,0.0,0.0,0.0,0.0,0.0,0.0,0.0,0.0,0.0,0.0,0.0,0.0,0.0,0.0,0.0,0.0,0.0,0.0,0.0,0.0,0.0,0.0,0.0,0.0,0.0,0.0,0.0,0.0,0.0,0.0,0.0,0.0,0.0,0.0,0.0,0.0,0.0,0.0,0.0,0.0,0.0,0.0,0.0,0.0,0.0,0.0,0.0,0.0,0.0,0.0,0.0,0.0,0.0,0.0,0.0,0.0,0.0,0.0,0.0,-0.1798,-0.1798,-0.1798,-0.1807,-0.1797,0.0,0.0,0.0,0.0,0.0,0.0,0.0,0.0,0.0,0.0,0.0,0.0,0.0,0.0,0.0,0.0,0.0,0.0,0.0,0.0,0.0,0.0,0.0,0.0,0.0,0.0,0.0,0.0,0.0,0.0,0.0,0.0,0.0,0.0,0.0,0.0,0.0,0.0,0.0,0.0,0.0,0.0,0.0,0.0,0.0,0.0,0.0,0.0,0.0,0.0,0.0,0.0,0.0,0.0,0.0,0.0,0.0,0.0,0.0,0.0,0.0,0.0,0.0,0.0,0.0,0.0,0.0,0.0,0.0,0.0,0.0,0.0,0.0,0.0,0.0,0.0,0.0,0.0,0.0,0.0,0.0,0.0,0.0,0.0,0.0,0.0,0.0,0.0,0.0,0.0,0.0,0.0,0.0,0.0,0.0,0.0,0.0,0.0,0.0,0.0,0.0,0.0,0.0,0.0,0.0,0.0,0.0,0.0,0.0,0.0,0.0,0.0,-0.1661,-0.1798,-0.1798,0.0,0.0,0.0,0.0,0.0,0.0,0.0,0.0,0.0,0.0,0.0,0.0,0.0,0.0,0.0,0.0,0.0,0.0,0.0,0.0,0.0,0.0,0.0,0.0,0.0,0.0,0.0,0.0,0.0,0.0,0.0,0.0,0.0,0.0,0.0,0.0,0.0,0.0,0.0,0.0,0.0,0.0,0.0,0.0,0.0,0.0,0.0,0.0,0.0,0.0,0.0,0.0,0.0,0.0,0.0,0.0,0.0,0.0,0.0,0.0,0.0,0.0,0.0,0.0,0.0,0.0,0.0,0.0,0.0,0.0,0.0,0.0,0.0,0.0,0.0,0.0,0.0,0.0,0.0,0.0,0.0,0.0,0.0,0.0,0.0,0.0,0.0,0.0,0.0,0.0,0.0,0.0,0.0,0.0,0.0,0.0,0.0,0.0,0.0,0.0,0.0,0.0,0.0,0.0,0.0,0.0,0.0,0.0,0.0,0.0,-0.0157,-0.0178,-0.123,0.0,-0.1798,0.0,0.0,0.0,0.0,0.0,0.0,0.0,0.0,0.0,0.0,0.0,0.0,0.0,0.0,0.0,0.0,0.0,0.0,0.0,0.0,0.0,0.0,0.0,0.0,0.0,0.0,0.0,0.0,0.0,0.0,0.0,0.0,0.0,0.0,0.0,0.0,0.0,0.0,0.0,0.0,0.0,0.0,0.0,0.0,0.0,0.0,0.0,0.0,0.0,0.0,0.0,0.0,0.0,0.0,0.0,0.0,0.0,0.0,0.0,0.0,0.0,0.0,0.0,0.0,0.0,0.0,0.0,0.0,0.0,0.0,0.0,0.0,0.0,0.0,0.0,0.0,0.0,0.0,0.0,0.0,0.0,0.0,0.0,0.0,0.0,0.0,0.0,0.0,0.0,0.0,0.0,0.0,0.0,0.0,0.0,0.0,0.0,0.0,0.0,0.0,0.0,0.0,0.0,0.0,0.0,0.0,0.0,0.0,0.0,0.0,-0.0,-0.0,-0.0489,-0.0892,0.0,0.0,0.0,0.0,0.0,0.0,0.0,0.0,0.0,0.0,0.0,0.0,0.0,0.0,0.0,0.0,0.0,0.0,0.0,0.0,0.0,0.0,0.0,0.0,0.0,0.0,0.0,0.0,0.0,0.0,0.0,0.0,0.0,0.0,0.0,0.0,0.0,0.0,0.0,0.0,0.0,0.0,0.0,0.0,0.0,0.0,0.0,0.0,0.0,0.0,0.0,0.0,0.0,0.0,0.0,0.0,0.0,0.0,0.0,0.0,0.0,0.0,0.0,0.0,0.0,0.0,0.0,0.0,0.0,0.0,0.0,0.0,0.0,0.0,0.0,0.0,0.0,0.0,0.0,0.0,0.0,0.0,0.0,0.0,0.0,0.0,0.0,0.0,0.0,0.0,0.0,0.0,0.0,0.0,0.0,0.0,0.0,0.0,0.0,0.0,0.0,0.0,0.0,0.0,0.0,0.0,0.0,0.0,0.0,0.0,0.0942,0.0335,-0.0,-0.0,-0.0214,-0.0645,0.0,0.0,0.0,0.0,0.0,0.0,0.0,0.0,0.0,0.0,0.0,0.0,0.0,0.0,0.0,0.0,0.0,0.0,0.0,0.0,0.0,0.0,0.0,0.0,0.0,0.0,0.0,0.0,0.0,0.0,0.0,0.0,0.0,0.0,0.0,0.0,0.0,0.0,0.0,0.0,0.0,0.0,0.0,0.0,0.0,0.0,0.0,0.0,0.0,0.0,0.0,0.0,0.0,0.0,0.0,0.0,0.0,0.0,0.0,0.0,0.0,0.0,0.0,0.0,0.0,0.0,0.0,0.0,0.0,0.0,0.0,0.0,0.0,0.0,0.0,0.0,0.0,0.0,0.0,0.0,0.0,0.0,0.0,0.0,0.0,0.0,0.0,0.0,0.0,0.0,0.0,0.0,0.0,0.0,0.0,0.0,0.0,0.0,0.0,0.0,0.0,0.0,0.0,0.0,0.0,0.0,0.0,0.0,0.0,0.1728,0.1163,-0.0,-0.0,-0.0,0.0,0.0,0.0,0.0,0.0,0.0,0.0,0.0,0.0,0.0,0.0,0.0,0.0,0.0,0.0,0.0,0.0,0.0,0.0,0.0,0.0,0.0,0.0,0.0,0.0,0.0,0.0,0.0,0.0,0.0,0.0,0.0,0.0,0.0,0.0,0.0,0.0,0.0,0.0,0.0,0.0,0.0,0.0,0.0,0.0,0.0,0.0,0.0,0.0,0.0,0.0,0.0,0.0,0.0,0.0,0.0,0.0,0.0,0.0,0.0,0.0,0.0,0.0,0.0,0.0,0.0,0.0,0.0,0.0,0.0,0.0,0.0,0.0,0.0,0.0,0.0,0.0,0.0,0.0,0.0,0.0,0.0,0.0,0.0,0.0,0.0,0.0,0.0,0.0,0.0,0.0,0.0,0.0,0.0,0.0,0.0,0.0,0.0,0.0,0.0,0.0,0.0,0.0,0.0,0.0,0.0,0.0,0.0,0.0,0.1775,0.1798,0.1591,0.1139,0.0423,0.0079,0.0,0.0,0.0,0.0,0.0,0.0,0.0,0.0,0.0,0.0,0.0,0.0,0.0,0.0,0.0,0.0,0.0,0.0,0.0,0.0,0.0,0.0,0.0,0.0,0.0,0.0,0.0,0.0,0.0,0.0,0.0,0.0,0.0,0.0,0.0,0.0,0.0,0.0,0.0,0.0,0.0,0.0,0.0,0.0,0.0,0.0,0.0,0.0,0.0,0.0,0.0,0.0,0.0,0.0,0.0,0.0,0.0,0.0,0.0,0.0,0.0,0.0,0.0,0.0,0.0,0.0,0.0,0.0,0.0,0.0,0.0,0.0,0.0,0.0,0.0,0.0,0.0,0.0,0.0,0.0,0.0,0.0,0.0,0.0,0.0,0.0,0.0,0.0,0.0,0.0,0.0,0.0,0.0,0.0,0.0,0.0,0.0,0.0,0.0,0.0,0.0,0.0,0.0,0.0,0.0,0.0,0.0,0.0,0.0,0.1791,0.0,0.1794,0.0,0.0904,0.0374,0.0,0.0,0.0,0.0,0.0,0.0,0.0,0.0,0.0,0.0,0.0,0.0,0.0,0.0,0.0,0.0,0.0,0.0,0.0,0.0,0.0,0.0,0.0,0.0,0.0,0.0,0.0,0.0,0.0,0.0,0.0,0.0,0.0,0.0,0.0,0.0,0.0,0.0,0.0,0.0,0.0,0.0,0.0,0.0,0.0,0.0,0.0,0.0,0.0,0.0,0.0,0.0,0.0,0.0,0.0,0.0,0.0,0.0,0.0,0.0,0.0,0.0,0.0,0.0,0.0,0.0,0.0,0.0,0.0,0.0,0.0,0.0,0.0,0.0,0.0,0.0,0.0,0.0,0.0,0.0,0.0,0.0,0.0,0.0,0.0,0.0,0.0,0.0,0.0,0.0,0.0,0.0,0.0,0.0,0.0,0.0,0.0,0.0,0.0,0.0,0.0,0.0,0.0,0.0,0.0,0.0,0.0,0.0,0.1798,0.1806,0.1809,0.1798,0.1798,0.1464,0.0898,0.0,0.0,0.0,0.0,0.0,0.0,0.0,0.0,0.0,0.0,0.0,0.0,0.0,0.0,0.0,0.0,0.0,0.0,0.0,0.0,0.0,0.0,0.0,0.0,0.0,0.0,0.0,0.0,0.0,0.0,0.0,0.0,0.0,0.0,0.0,0.0,0.0,0.0,0.0,0.0,0.0,0.0,0.0,0.0,0.0,0.0,0.0,0.0,0.0,0.0,0.0,0.0,0.0,0.0,0.0,0.0,0.0,0.0,0.0,0.0,0.0,0.0,0.0,0.0,0.0,0.0,0.0,0.0,0.0,0.0,0.0,0.0,0.0,0.0,0.0,0.0,0.0,0.0,0.0,0.0,0.0,0.0,0.0,0.0,0.0,0.0,0.0,0.0,0.0,0.0,0.0,0.0,0.0,0.0,0.0,0.0,0.0,0.0,0.0,0.0,0.0,0.0,0.0,0.0,0.0,0.0,0.0,0.0,0.0,0.1809,0.1796,0.1847,0.1937,0.1745,0.1456,0.0,0.0,0.0,0.0,0.0,0.0,0.0,0.0,0.0,0.0,0.0,0.0,0.0,0.0,0.0,0.0,0.0,0.0,0.0,0.0,0.0,0.0,0.0,0.0,0.0,0.0,0.0,0.0,0.0,0.0,0.0,0.0,0.0,0.0,0.0,0.0,0.0,0.0,0.0,0.0,0.0,0.0,0.0,0.0,0.0,0.0,0.0,0.0,0.0,0.0,0.0,0.0,0.0,0.0,0.0,0.0,0.0,0.0,0.0,0.0,0.0,0.0,0.0,0.0,0.0,0.0,0.0,0.0,0.0,0.0,0.0,0.0,0.0,0.0,0.0,0.0,0.0,0.0,0.0,0.0,0.0,0.0,0.0,0.0,0.0,0.0,0.0,0.0,0.0,0.0,0.0,0.0,0.0,0.0,0.0,0.0,0.0,0.0,0.0,0.0,0.0,0.0,0.0,0.0,0.0,0.0,0.0,0.0,0.0,0.196,0.1848,0.1741,0.1584,0.1806,0.182,0.1618,0.0,0.0,0.0,0.0,0.0,0.0,0.0,0.0,0.0,0.0,0.0,0.0,0.0,0.0,0.0,0.0,0.0,0.0,0.0,0.0,0.0,0.0,0.0,0.0,0.0,0.0,0.0,0.0,0.0,0.0,0.0,0.0,0.0,0.0,0.0,0.0,0.0,0.0,0.0,0.0,0.0,0.0,0.0,0.0,0.0,0.0,0.0,0.0,0.0,0.0,0.0,0.0,0.0,0.0,0.0,0.0,0.0,0.0,0.0,0.0,0.0,0.0,0.0,0.0,0.0,0.0,0.0,0.0,0.0,0.0,0.0,0.0,0.0,0.0,0.0,0.0,0.0,0.0,0.0,0.0,0.0,0.0,0.0,0.0,0.0,0.0,0.0,0.0,0.0,0.0,0.0,0.0,0.0,0.0,0.0,0.0,0.0,0.0,0.0,0.0,0.0,0.0,0.0,0.0,0.0,0.0,0.0,0.0,0.2221,0.2025,0.164,0.1083,0.1735,0.2017,0.0,0.0,0.0,0.0,0.0,0.0,0.0,0.0,0.0,0.0,0.0,0.0,0.0,0.0,0.0,0.0,0.0,0.0,0.0,0.0,0.0,0.0,0.0,0.0,0.0,0.0,0.0,0.0,0.0,0.0,0.0,0.0,0.0,0.0,0.0,0.0,0.0,0.0,0.0,0.0,0.0,0.0,0.0,0.0,0.0,0.0,0.0,0.0,0.0,0.0,0.0,0.0,0.0,0.0,0.0,0.0,0.0,0.0,0.0,0.0,0.0,0.0,0.0,0.0,0.0,0.0,0.0,0.0,0.0,0.0,0.0,0.0,0.0,0.0,0.0,0.0,0.0,0.0,0.0,0.0,0.0,0.0,0.0,0.0,0.0,0.0,0.0,0.0,0.0,0.0,0.0,0.0,0.0,0.0,0.0,0.0,0.0,0.0,0.0,0.0,0.0,0.0,0.0,0.0,0.0,0.0,0.0,0.0,0.0,0.2575,0.2944,0.2857,0.2239,0.2154,0.2068,0.0,0.0,0.0,0.0,0.0,0.0,0.0,0.0,0.0,0.0,0.0,0.0,0.0,0.0,0.0,0.0,0.0,0.0,0.0,0.0,0.0,0.0,0.0,0.0,0.0,0.0,0.0,0.0,0.0,0.0,0.0,0.0,0.0,0.0,0.0,0.0,0.0,0.0,0.0,0.0,0.0,0.0,0.0,0.0,0.0,0.0,0.0,0.0,0.0,0.0,0.0,0.0,0.0,0.0,0.0,0.0,0.0,0.0,0.0,0.0,0.0,0.0,0.0,0.0,0.0,0.0,0.0,0.0,0.0,0.0,0.0,0.0,0.0,0.0,0.0,0.0,0.0,0.0,0.0,0.0,0.0,0.0,0.0,0.0,0.0,0.0,0.0,0.0,0.0,0.0,0.0,0.0,0.0,0.0,0.0,0.0,0.0,0.0,0.0,0.0,0.0,0.0,0.0,0.0,0.0,0.0,0.0,0.0,0.2555,0.2787,0.3191,0.3281,0.3062,0.2698,0.2306,0.0,0.0,0.0,0.0,0.0,0.0,0.0,0.0,0.0,0.0,0.0,0.0,0.0,0.0,0.0,0.0,0.0,0.0,0.0,0.0,0.0,0.0,0.0,0.0,0.0,0.0,0.0,0.0,0.0,0.0,0.0,0.0,0.0,0.0,0.0,0.0,0.0,0.0,0.0,0.0,0.0,0.0,0.0,0.0,0.0,0.0,0.0,0.0,0.0,0.0,0.0,0.0,0.0,0.0,0.0,0.0,0.0,0.0,0.0,0.0,0.0,0.0,0.0,0.0,0.0,0.0,0.0,0.0,0.0,0.0,0.0,0.0,0.0,0.0,0.0,0.0,0.0,0.0,0.0,0.0,0.0,0.0,0.0,0.0,0.0,0.0,0.0,0.0,0.0,0.0,0.0,0.0,0.0,0.0,0.0,0.0,0.0,0.0,0.0,0.0,0.0,0.0,0.0,0.0,0.0,0.0,0.0,0.0,0.2671,0.2924,0.3086,0.3272,0.3565,0.321,0.2628,0.0,0.0,0.0,0.0,0.0,0.0,0.0,0.0,0.0,0.0,0.0,0.0,0.0,0.0,0.0,0.0,0.0,0.0,0.0,0.0,0.0,0.0,0.0,0.0,0.0,0.0,0.0,0.0,0.0,0.0,0.0,0.0,0.0,0.0,0.0,0.0,0.0,0.0,0.0,0.0,0.0,0.0,0.0,0.0,0.0,0.0,0.0,0.0,0.0,0.0,0.0,0.0,0.0,0.0,0.0,0.0,0.0,0.0,0.0,0.0,0.0,0.0,0.0,0.0,0.0,0.0,0.0,0.0,0.0,0.0,0.0,0.0,0.0,0.0,0.0,0.0,0.0,0.0,0.0,0.0,0.0,0.0,0.0,0.0,0.0,0.0,0.0,0.0,0.0,0.0,0.0,0.0,0.0,0.0,0.0,0.0,0.0,0.0,0.0,0.0,0.0,0.0,0.0,0.0,0.0,0.0,0.0,0.0,0.2896,0.3073,0.3341,0.3528,0.3614,0.306,0.2683,0.0,0.0,0.0,0.0,0.0,0.0,0.0,0.0,0.0,0.0,0.0,0.0,0.0,0.0,0.0,0.0,0.0,0.0,0.0,0.0,0.0,0.0,0.0,0.0,0.0,0.0,0.0,0.0,0.0,0.0,0.0,0.0,0.0,0.0,0.0,0.0,0.0,0.0,0.0,0.0,0.0,0.0,0.0,0.0,0.0,0.0,0.0,0.0,0.5236,0.0,0.0,0.0,0.0,0.0,0.0,0.0,0.0,0.0,0.0,0.0,0.0,0.0,0.0,0.0,0.0,0.0,0.0,0.0,0.0,0.0,0.0,0.0,0.0,0.0,0.0,0.0,0.0,0.0,0.0,0.0,0.0,0.0,0.0,0.0,0.0,0.0,0.0,0.0,0.0,0.0,0.0,0.0,0.0,0.0,0.0,0.0,0.0,0.0,0.0,0.0,0.0,0.0,0.0,0.0,0.0,0.0,0.0,0.0,0.2974,0.3185,0.3459,0.3588,0.3581,0.3124,0.2754,0.0,0.0,0.0,0.0,0.0,0.0,0.0,0.0,0.0,0.0,0.0,0.0,0.0,0.0,0.0,0.0,0.0,0.0,0.0,0.0,0.0,0.0,0.0,0.0,0.0,0.0,0.0,0.0,0.0,0.0,0.0,0.0,0.0,0.0,0.0,0.0,0.0,0.0,0.0,0.0,0.0,0.0,0.0,0.0,0.0,0.0,0.0,0.0,0.0,0.0,0.0,0.0,0.0,0.0,0.0,0.0,0.0,0.0,0.0,0.0,0.0,0.0,0.0,0.0,0.0,0.0,0.0,0.0,0.0,0.0,0.0,0.0,0.0,0.0,0.0,0.0,0.0,0.0,0.0,0.0,0.0,0.0,0.0,0.0,0.0,0.0,0.0,0.0,0.0,0.0,0.0,0.0,0.0,0.0,0.0,0.0,0.0,0.0,0.0,0.0,0.0,0.0,0.0,0.0,0.0,0.0,0.0,0.2911,0.3066,0.3329,0.3514,0.3578,0.3575,0.332,0.2848,0.2221,0.0,0.0,0.0,0.0,0.0,0.0,0.0,0.0,0.0,0.0,0.0,0.0,0.0,0.0,0.0,0.0,0.0,0.0,0.0,0.0,0.0,0.0,0.0,0.0,0.0,0.0,0.0,0.0,0.0,0.0,0.0,0.0,0.0,0.0,0.0,0.0,0.0,0.0,0.4208,0.4582,0.0,0.0,0.0,0.0,0.0,0.0,0.0,0.0,0.512,0.0,0.0,0.0,0.0,0.0,0.0,0.0,0.0,0.0,0.0,0.0,0.0,0.0,0.0,0.0,0.0,0.0,0.0,0.0,0.0,0.0,0.0,0.0,0.0,0.0,0.0,0.0,0.0,0.0,0.0,0.0,0.0,0.0,0.0,0.0,0.0,0.0,0.0,0.0,0.0,0.0,0.0,0.0,0.0,0.0,0.0,0.0,0.0,0.0,0.0,0.0,0.0,0.0,0.0,0.0,0.0,0.322,0.3022,0.3113,0.3531,0.3568,0.3578,0.3615,0.3405,0.2934,0.2249,0.0,0.0,0.0,0.0,0.0,0.0,0.0,0.0,0.0,0.0,0.0,0.0,0.0,0.0,0.0,0.0,0.0,0.0,0.0,0.0,0.0,0.0,0.0,0.0,0.0,0.0,0.0,0.0,0.0,0.0,0.0,0.0,0.0,0.0,0.0,0.0,0.0,0.0,0.0,0.4886,0.5074,0.0,0.0,0.0,0.0,0.0,0.0,0.0,0.0,0.5133,0.0,0.0,0.0,0.0,0.0,0.0,0.0,0.0,0.0,0.0,0.0,0.0,0.0,0.0,0.0,0.0,0.0,0.0,0.0,0.0,0.0,0.0,0.0,0.0,0.0,0.0,0.0,0.0,0.0,0.0,0.0,0.0,0.0,0.0,0.0,0.0,0.0,0.0,0.0,0.0,0.0,0.0,0.0,0.0,0.0,0.0,0.0,0.0,0.0,0.0,0.0,0.0,0.0,0.0,0.0,0.317,0.3082,0.3202,0.3565,0.3578,0.3578,0.3615,0.3418,0.2946,0.0,0.0,0.0,0.0,0.0,0.0,0.0,0.0,0.0,0.0,0.0,0.0,0.0,0.0,0.0,0.0,0.0,0.0,0.0,0.0,0.0,0.0,0.0,0.0,0.0,0.0,0.0,0.0,0.0,0.0,0.0,0.0,0.0,0.0,0.0,0.0,0.0,0.0,0.0,0.0,0.4988,0.4989,0.5007,0.0,0.0,0.0,0.0,0.0,0.0,0.5094,0.5119,0.0,0.0,0.0,0.0,0.0,0.0,0.0,0.0,0.0,0.0,0.0,0.0,0.0,0.0,0.0,0.0,0.0,0.0,0.0,0.0,0.0,0.0,0.0,0.0,0.0,0.0,0.0,0.0,0.0,0.0,0.0,0.0,0.0,0.0,0.0,0.0,0.0,0.0,0.0,0.0,0.0,0.0,0.0,0.0,0.0,0.0,0.0,0.0,0.0,0.0,0.0,0.0,0.0,0.0,0.0,0.3101,0.305,0.3239,0.3561,0.3578,0.3578,0.3615,0.3453,0.2976,0.0,0.0,0.0,0.0,0.0,0.0,0.0,0.0,0.0,0.0,0.0,0.0,0.0,0.0,0.0,0.0,0.0,0.0,0.0,0.0,0.0,0.0,0.0,0.0,0.0,0.0,0.0,0.0,0.0,0.0,0.0,0.0,0.0,0.0,0.0,0.0,0.0,0.0,0.0,0.0,0.0,0.5131,0.5289,0.5618,0.0,0.0,0.0,0.0,0.537,0.5254,0.0,0.0,0.0,0.0,0.0,0.0,0.0,0.0,0.0,0.0,0.0,0.0,0.0,0.0,0.0,0.0,0.0,0.0,0.0,0.0,0.0,0.0,0.0,0.0,0.0,0.0,0.0,0.0,0.0,0.0,0.0,0.0,0.0,0.0,0.0,0.0,0.0,0.0,0.0,0.0,0.0,0.0,0.0,0.0,0.0,0.0,0.0,0.0,0.0,0.0,0.0,0.0,0.0,0.0,0.0,0.0,0.3089,0.2986,0.3141,0.3598,0.3578,0.3578,0.3619,0.36,0.3041,0.0,0.0,0.0,0.0,0.0,0.0,0.0,0.0,0.0,0.0,0.0,0.0,0.0,0.0,0.0,0.0,0.0,0.0,0.0,0.0,0.0,0.0,0.0,0.0,0.0,0.0,0.0,0.0,0.0,0.0,0.0,0.0,0.0,0.0,0.0,0.0,0.0,0.0,0.0,0.0,0.0,0.6022,0.5665,0.5706,0.5701,0.0,0.0,0.571,0.5631,0.5471,0.0,0.0,0.0,0.0,0.0,0.0,0.0,0.0,0.0,0.0,0.0,0.0,0.0,0.0,0.0,0.0,0.0,0.0,0.0,0.0,0.0,0.0,0.0,0.0,0.0,0.0,0.0,0.0,0.0,0.0,0.0,0.0,0.0,0.0,0.0,0.0,0.0,0.0,0.0,0.0,0.0,0.0,0.0,0.0,0.0,0.0,0.0,0.0,0.0,0.0,0.0,0.0,0.0,0.0,0.0,0.268,0.2871,0.2943,0.3208,0.3565,0.3578,0.3578,0.3622,0.3612,0.3086,0.0,0.0,0.0,0.0,0.0,0.0,0.0,0.0,0.0,0.0,0.0,0.0,0.0,0.0,0.0,0.0,0.0,0.0,0.0,0.0,0.0,0.0,0.0,0.0,0.0,0.0,0.0,0.0,0.0,0.0,0.0,0.0,0.0,0.0,0.0,0.0,0.0,0.0,0.0,0.0,0.0,0.0,0.5485,0.595,0.0,0.0,0.0,0.5851,0.5739,0.0,0.0,0.0,0.0,0.0,0.0,0.0,0.0,0.0,0.0,0.0,0.0,0.0,0.0,0.0,0.0,0.0,0.0,0.0,0.0,0.0,0.0,0.0,0.0,0.0,0.0,0.0,0.0,0.0,0.0,0.0,0.0,0.0,0.0,0.0,0.0,0.0,0.0,0.0,0.0,0.0,0.0,0.0,0.0,0.0,0.0,0.0,0.0,0.0,0.0,0.0,0.0,0.0,0.0,0.0,0.0,0.0,0.2679,0.2971,0.3269,0.3568,0.3578,0.3578,0.3615,0.3586,0.0,0.0,0.0,0.0,0.0,0.0,0.0,0.0,0.0,0.0,0.0,0.0,0.0,0.0,0.0,0.0,0.0,0.0,0.0,0.0,0.0,0.0,0.0,0.0,0.0,0.0,0.0,0.1375,0.0,0.0,0.0,0.0,0.0,0.0,0.0,0.0,0.0,0.0,0.0,0.0,0.0,0.0,0.5437,0.5269,0.5911,0.6238,0.0,0.0,0.5849,0.5725,0.5861,0.5603,0.0,0.0,0.0,0.0,0.0,0.0,0.0,0.0,0.0,0.0,0.0,0.0,0.0,0.0,0.0,0.0,0.0,0.0,0.0,0.0,0.0,0.0,0.0,0.0,0.0,0.0,0.0,0.0,0.0,0.0,0.0,0.0,0.0,0.0,0.0,0.0,0.0,0.0,0.0,0.0,0.0,0.0,0.0,0.0,0.0,0.0,0.0,0.0,0.0,0.0,0.0,0.0,0.0,0.0,0.0,0.2676,0.2971,0.3273,0.3609,0.3578,0.3578,0.3619,0.3611,0.3162,0.0,0.0,0.0,0.0,0.0,0.0,0.0,0.0,0.0,0.0,0.0,0.0,0.0,0.0,0.0,0.0,0.0,0.0,0.0,0.0,0.0,0.0,0.0,0.0,0.0,0.0,0.0,0.0,0.0,0.0,0.0,0.0,0.0,0.0,0.0,0.0,0.0,0.0,0.0,0.0,0.0,0.5819,0.5189,0.5262,0.5499,0.0,0.0,0.5426,0.572,0.5534,0.5157,0.4505,0.0,0.0,0.0,0.0,0.0,0.0,0.0,0.0,0.0,0.0,0.0,0.0,0.0,0.0,0.0,0.0,0.0,0.0,0.0,0.0,0.0,0.0,0.0,0.0,0.0,0.0,0.0,0.0,0.0,0.0,0.0,0.0,0.0,0.0,0.0,0.0,0.0,0.0,0.0,0.0,0.0,0.0,0.0,0.0,0.0,0.0,0.0,0.0,0.0,0.0,0.0,0.0,0.0,0.2411,0.252,0.2993,0.3333,0.3578,0.3588,0.3592,0.3588,0.3601,0.325,0.0,0.0,0.0,0.0,0.0,0.0,0.0,0.0,0.0,0.0,0.0,0.0,0.0,0.0,0.0,0.0,0.0,0.0,0.0,0.0,0.0,0.0,0.0,0.0,0.0,0.0,0.0,0.0,0.155,0.1869,0.2512,0.0,0.0,0.0,0.0,0.0,0.0,0.0,0.0,0.0,0.0,0.5351,0.5027,0.5315,0.0,0.0,0.5303,0.5227,0.5457,0.511,0.4664,0.435,0.3719,0.0,0.0,0.0,0.0,0.0,0.0,0.0,0.0,0.0,0.0,0.0,0.0,0.0,0.0,0.0,0.0,0.0,0.0,0.0,0.0,0.0,0.0,0.0,0.0,0.0,0.0,0.0,0.0,0.0,0.0,0.0,0.0,0.0,0.0,0.0,0.0,0.0,0.0,0.0,0.0,0.0,0.0,0.0,0.0,0.0,0.0,0.0,0.0,0.0,0.0,0.0,0.0,0.2373,0.2423,0.2626,0.2833,0.3046,0.3046,0.323,0.3592,0.3584,0.3396,0.0,0.0,0.0,0.0,0.0,0.0,0.0,0.0,0.0,0.0,0.0,0.0,0.0,0.0,0.0,0.0,0.0,0.0,0.0,0.0,0.0,0.0,0.0,0.0,0.0,0.0,0.0,0.0,0.1625,0.1822,0.2363,0.0,0.0,0.0,0.0,0.0,0.0,0.0,0.0,0.0,0.0,0.4925,0.4657,0.5086,0.5362,0.5084,0.499,0.4934,0.5043,0.4732,0.4392,0.4172,0.0,0.0,0.0,0.0,0.0,0.0,0.0,0.0,0.0,0.0,0.0,0.0,0.0,0.0,0.0,0.0,0.0,0.0,0.0,0.0,0.0,0.0,0.0,0.0,0.0,0.0,0.0,0.0,0.0,0.0,0.5098,0.0,0.0,0.0,0.0,0.0,0.0,0.0,0.0,0.0,0.0,0.0,0.0,0.0,0.0,0.0,0.0,0.0,0.0,0.0,0.0,0.0,0.0,0.2194,0.2362,0.1769,0.1545,0.183,0.183,0.2375,0.3462,0.3552,0.3537,0.3505,0.0,0.0,0.0,0.0,0.0,0.0,0.0,0.0,0.0,0.0,0.0,0.0,0.0,0.0,0.0,0.0,0.0,0.0,0.0,0.0,0.0,0.0,0.0,0.0,0.0,0.0,0.1743,0.1791,0.1769,0.0,0.0,0.0,0.0,0.0,0.0,0.0,0.0,0.0,0.0,0.4357,0.465,0.4092,0.4273,0.4512,0.4522,0.4515,0.4512,0.4508,0.4515,0.4368,0.0,0.0,0.0,0.0,0.0,0.0,0.0,0.0,0.0,0.0,0.0,0.0,0.0,0.0,0.0,0.0,0.0,0.0,0.0,0.0,0.0,0.0,0.0,0.0,0.0,0.0,0.0,0.5762,0.5183,0.0,0.0,0.0,0.0,0.0,0.0,0.0,0.0,0.0,0.0,0.0,0.4906,0.466,0.0,0.0,0.0,0.0,0.0,0.0,0.0,0.0,0.0,0.0,0.0,0.0,0.1984,0.1493,0.2319,0.2102,0.0629,0.063,0.0814,0.1215,0.1197,0.1214,0.1226,0.0,0.0,0.0,0.0,0.0,0.0,0.0,0.0,0.0,0.0,0.0,0.0,0.0,0.0,0.0,0.0,0.0,0.0,0.0,0.0,0.0,0.0,0.0,0.0,0.0,0.1477,0.0,0.0,0.0,0.0,0.0,0.0,0.0,0.0,0.0,0.0,0.0,0.1547,0.1261,0.2157,0.2853,0.2791,0.2883,0.3352,0.0,0.0,0.0,0.0,0.0,0.0,0.0,0.0,0.0,0.0,0.0,0.0,0.0,0.0,-0.0416,0.0963,0.1221,0.1447,0.2243,0.0,0.0,0.0,0.0,0.0,0.0,0.0,0.0,0.0,0.0,0.0,0.0,0.0,0.0,0.6292,0.0,0.6253,0.0,0.0,0.0,0.0,0.0,0.0,0.0,0.0,0.5353,0.537,0.4975,0.4721,0.4548,0.0,0.3918,0.3331,0.0,0.0,0.0,0.0,0.0,0.0,0.0,0.0,0.1965,0.1289,0.1969,0.1575,-0.0,-0.0,-0.0,-0.0,-0.0,-0.0,-0.0,0.0557,0.0936,0.0,0.0,0.0,0.0,0.0,0.0,0.0,0.0,0.0,0.0,0.0,0.0,0.0,0.0,0.0,0.0,0.0,0.0,0.0,0.0,0.0,0.0,0.0,0.0865,0.0,0.0,0.0,0.0,0.0,0.0,0.0,0.0,0.0,0.1693,0.1646,0.1115,0.0101,0.0687,0.1254,0.1392,0.0,0.0,0.0,0.0,0.0,0.0,0.0,0.4179,0.3149,0.1984,0.1189,0.1174,-0.0657,-0.222,-0.2414,0.0,0.0,-0.0557,-0.0183,-0.0046,0.0353,0.0088,-0.0308,-0.067,-0.0984,-0.1311,0.0,0.0,0.0,0.0,0.0,0.0,0.0,0.0,0.6754,0.6749,0.0,0.6723,0.0,0.0,0.0,0.0,0.0,0.5291,0.0,0.0,0.5338,0.562,0.5274,0.4978,0.4828,0.467,0.4342,0.3846,0.3169,0.2871,0.0,0.0,0.0,0.0,0.0,0.0,0.2058,0.1791,0.0669,-0.0,-0.0,-0.0,-0.0,-0.0,-0.0,-0.0,-0.0,-0.0,-0.0,-0.0,0.1103,0.0,0.0,0.0,0.0,0.0,0.0,0.0,0.0,0.0,0.0,0.0,0.0,0.0,0.0,0.0,0.0,0.0,0.0,0.0,0.0,0.0682,0.0,0.0,0.0,0.0,0.0,0.0,0.0,0.0,0.0,0.0,0.0146,0.1493,0.1949,0.0212,0.0,0.0,0.0,0.0,-0.0,-0.0,0.1115,0.1898,0.1893,0.3204,0.4206,0.4145,0.0,0.0,-0.0118,-0.2968,-0.5286,-0.5388,-0.503,-0.4363,-0.2593,-0.2276,-0.2259,-0.2263,-0.2222,-0.2295,-0.2261,-0.234,-0.2773,0.8869,0.0,0.0,0.0,0.0,0.8094,0.8224,0.8565,0.8099,0.7802,0.7637,0.7991,0.0,0.0,0.0,0.0,0.0,0.0,0.4895,0.4628,0.5106,0.513,0.4741,0.4638,0.4588,0.4545,0.4446,0.4305,0.4069,0.3598,0.2439,0.069,0.0,0.0,0.0,0.0,0.2093,0.2307,0.0815,-0.0,-0.0,-0.0,-0.0,-0.0,-0.0,-0.0,-0.0,-0.0,-0.0,-0.0,0.0339,0.0,0.0,0.0,0.0,0.0,0.0,0.0,0.0,0.0,0.0,0.0,0.0,0.0,0.0,0.0,0.0,0.0,0.0,0.0,0.0477,0.0202,-0.0,0.0,0.0,0.0,0.0,0.0,0.0,0.0,0.0,0.0,0.0054,0.0424,0.0584,0.0,0.0,-0.0,-0.0,-0.0,-0.0,-0.0,-0.1825,0.0,-0.3206,-0.1783,-0.0614,-0.0614,-0.1352,-0.1902,-0.1946,-0.374,-0.5186,-0.52,-0.5032,-0.4689,-0.4247,-0.4103,-0.4106,-0.4139,-0.4149,-0.4113,-0.4149,-0.4213,-0.4333,0.9126,0.9188,0.8913,0.8749,0.8715,0.867,0.8818,0.9011,0.8609,0.84,0.8235,0.82,0.8431,0.8659,0.6241,0.0,0.0,0.0,0.4832,0.4654,0.476,0.4754,0.4522,0.4477,0.42,0.363,0.3569,0.3926,0.4483,0.4128,0.2629,0.0081,0.0,0.0,0.2381,0.2245,0.1949,0.1596,0.0534,-0.0,-0.0,-0.0,-0.0,-0.0,-0.0,-0.0,-0.0,-0.0,-0.0,-0.0,-0.0,-0.0,0.0,0.0,0.0,0.0,0.0,0.0,0.0,0.0,0.0,0.0,0.0,-0.0,-0.0,0.0,0.0,0.0,-0.0,-0.0,-0.0,-0.0,0.0,0.0,0.0,0.0,0.0,0.0,0.0,-0.0194,-0.064,-0.1371,-0.2053,-0.2128,-0.2166,-0.2151,-0.1539,-0.1078,-0.1078,0.0,-0.1052,-0.1063,-0.2886,-0.4556,-0.5262,-0.4483,-0.3766,-0.3766,-0.3766,-0.3766,-0.3829,-0.4598,-0.5178,-0.5241,-0.5167,-0.5074,-0.5013,-0.5064,-0.5084,-0.5013,-0.4965,-0.4942,-0.4942,-0.4935,-0.4996,0.8652,0.8699,0.9133,0.8948,0.8497,0.8991,0.9047,0.8784,0.8473,0.8461,0.8652,0.7719,0.7791,0.8435,0.5758,0.0,0.5072,0.5072,0.4896,0.4497,0.4501,0.4438,0.4327,0.4442,0.3755,0.24,0.2176,0.2742,0.4054,0.434,0.2995,-0.0,-0.0,0.0818,0.2405,0.2492,0.1653,0.0053,-0.0,-0.0,-0.0,-0.0,-0.0,-0.0,-0.0,-0.0,-0.0,-0.0,-0.031,-0.0,-0.0089,-0.0,-0.0,0.0,0.0,0.0,0.0,0.0,0.0,0.0,0.0,0.0,0.0,0.0,0.0,0.0,0.0,0.0,-0.0357,0.0,-0.0183,-0.02,0.0,0.0,0.0,-0.1153,-0.4041,-0.4971,-0.4111,-0.0772,0.0,0.0,-0.5164,-0.5362,-0.5373,-0.5373,-0.3969,-0.2901,-0.2901,-0.2911,-0.2939,-0.2951,-0.2961,-0.3577,-0.5137,-0.5299,-0.5226,-0.5226,-0.5393,-0.5306,-0.5302,-0.5369,-0.5372,-0.5359,-0.5365,-0.5418,-0.5422,-0.5404,-0.5304,-0.5125,-0.5026,-0.4962,-0.4975,-0.4979,-0.4986,0.7517,0.7521,0.7621,0.8087,0.8704,0.8854,0.8849,0.8745,0.814,0.7931,0.7926,0.7566,0.7186,0.673,0.5429,0.4887,0.4931,0.4931,0.4893,0.4753,0.4704,0.401,0.2836,0.3925,0.4337,0.3822,0.1624,0.0728,0.1176,0.338,0.2961,-0.0,-0.0,0.0211,0.0601,0.0672,0.0428,-0.0,-0.0,-0.0,-0.0,-0.0,-0.0,-0.0,-0.0,-0.1061,-0.3332,-0.3415,-0.2853,-0.1704,-0.0609,-0.0,-0.0,-0.0,0.0,0.0,0.0,0.0,0.0,0.0,0.0,0.0,0.0,-0.0,-0.0,0.0,-0.0966,0.0,-0.3411,-0.2971,-0.1788,-0.1655,0.0,0.0,-0.0674,-0.0788,-0.2878,-0.4463,-0.507,-0.4194,-0.4522,-0.4911,-0.535,-0.5396,-0.5408,-0.5397,-0.5047,-0.4788,-0.4791,-0.4755,-0.476,-0.4725,-0.4725,-0.4932,-0.5309,-0.5376,-0.5376,-0.5369,-0.5372,-0.5369,-0.5372,-0.5435,-0.5432,-0.5432,-0.5428,-0.5428,-0.5432,-0.5428,-0.5415,-0.5367,-0.5274,-0.5257,-0.5257,-0.5254,-0.5254,0.6785,0.6379,0.6918,0.7449,0.8058,0.8064,0.8064,0.8008,0.7611,0.7394,0.7454,0.7322,0.6688,0.5703,0.5268,0.5029,0.4864,0.4864,0.487,0.4816,0.4736,0.4153,0.3184,0.2718,0.2463,0.2463,0.082,-0.0,-0.0,0.1702,0.1642,-0.0,-0.0,-0.0686,-0.1906,-0.0653,-0.0,-0.0,-0.0,-0.0617,-0.1962,-0.2018,-0.1399,-0.0056,-0.0615,-0.1946,-0.402,-0.4217,-0.3872,-0.3059,-0.2213,-0.1461,-0.0849,-0.0801,-0.0814,0.0,0.0,0.0,0.0,0.0,0.0,0.0,0.0,0.0,0.0,0.0,-0.1941,-0.4285,-0.4483,-0.4125,-0.3301,-0.3348,-0.3479,-0.3635,-0.2764,-0.2579,-0.3682,-0.4766,-0.5352,-0.5251,-0.5338,-0.5377,-0.541,-0.5432,-0.5396,-0.5454,-0.547,-0.5467,-0.5415,-0.5452,-0.5481,-0.5484,-0.5532,-0.5542,-0.5484,-0.5521,-0.5511,-0.5396,-0.542,-0.5443,-0.5379,-0.5487,-0.5443,-0.5452,-0.5535,-0.5535,-0.5477,-0.546,-0.5477,-0.5535,-0.5504,-0.544,-0.5442,-0.5428,-0.5428,0.6267,0.5498,0.6457,0.6903,0.6908,0.6903,0.6995,0.7066,0.7007,0.6897,0.6805,0.6876,0.6218,0.5167,0.5297,0.5239,0.4865,0.4615,0.4683,0.4947,0.4752,0.4368,0.3799,0.1236,-0.0,-0.0,-0.0,-0.0,-0.0,-0.0,-0.0247,-0.0679,-0.0679,-0.1887,-0.4045,-0.1843,-0.0508,-0.028,-0.028,-0.1568,-0.411,-0.4396,-0.3254,-0.078,-0.184,-0.2863,-0.3582,-0.3918,-0.4023,-0.4036,-0.4003,-0.3422,-0.2133,-0.2036,-0.2051,0.0,-0.2304,0.0,0.0,0.0,0.0,0.0,0.0,0.0,0.0,-0.2475,-0.3069,-0.4412,-0.4563,-0.4532,-0.4527,-0.477,-0.4988,-0.5312,-0.5095,-0.4969,-0.5085,-0.5276,-0.5322,-0.5174,-0.5356,-0.5399,-0.5507,-0.5494,-0.5474,-0.5589,-0.561,-0.5562,-0.546,-0.5535,-0.562,-0.5616,-0.5708,-0.5705,-0.564,-0.5705,-0.5684,-0.5488,-0.5532,-0.5566,-0.5454,-0.5535,-0.5576,-0.5481,-0.5623,-0.5742,-0.5637,-0.5616,-0.5657,-0.5755,-0.5691,-0.5579,-0.5471,-0.5416,-0.5393,0.5571,0.5403,0.5643,0.5726,0.5726,0.5726,0.6266,0.7066,0.6469,0.5888,0.5342,0.561,0.5607,0.5346,0.5353,0.5363,0.5225,0.3762,0.3904,0.5321,0.5274,0.366,0.0895,0.025,-0.0,-0.0,-0.0,-0.0,-0.0,-0.0,-0.1481,-0.4282,-0.4405,-0.395,-0.3116,0.0,0.0,0.0,-0.1786,-0.2066,-0.2625,-0.3869,-0.4212,-0.3644,-0.3925,0.0,-0.3956,-0.427,-0.4318,-0.417,-0.4182,0.0,0.0,0.0,0.0,0.0,0.0,0.0,0.0,0.0,0.0,0.0,-0.3971,-0.3948,-0.3727,-0.3906,-0.4285,-0.471,-0.4809,-0.4823,-0.4736,-0.4847,-0.4955,-0.5118,-0.5095,-0.5053,-0.5142,-0.5297,-0.544,-0.556,-0.5552,-0.5623,-0.5861,-0.5776,-0.5725,-0.5755,-0.5762,-0.5749,-0.5725,-0.5745,-0.5762,-0.5762,-0.5752,-0.5722,-0.5752,-0.5732,-0.5739,-0.5705,-0.5732,-0.5745,-0.5715,-0.5728,-0.5759,-0.5708,-0.5766,-0.5806,-0.5766,-0.5762,-0.5772,-0.58,-0.5783,-0.5755,-0.5722,-0.5627,-0.5545,0.5528,0.0,0.5449,0.5428,0.0,0.5428,0.5726,0.6258,0.5888,0.5492,0.5182,0.5325,0.5432,0.5369,0.5376,0.5382,0.5393,0.4442,0.3567,0.276,0.2725,0.1781,-0.0,-0.0,-0.0,-0.0,-0.0,-0.0,-0.0,-0.1804,-0.3616,-0.5382,-0.5378,-0.4877,-0.3961,-0.4535,-0.4432,-0.3528,-0.3412,-0.3382,-0.3493,-0.4182,-0.4484,-0.448,-0.4477,0.0,0.0,0.0,0.0,0.0,0.0,0.0,0.0,0.0,0.0,-0.4017,-0.4077,-0.412,-0.422,-0.4156,-0.4137,-0.4197,-0.4353,-0.4361,-0.4236,-0.4381,-0.462,-0.4858,-0.5046,-0.5041,-0.4843,-0.5028,-0.5233,-0.5448,-0.5446,-0.5416,-0.5394,-0.5528,-0.5641,-0.5699,-0.5719,-0.5749,-0.5864,-0.584,-0.5837,-0.5901,-0.5915,-0.5942,-0.6003,-0.5962,-0.5935,-0.6013,-0.5993,-0.5945,-0.5922,-0.5956,-0.5898,-0.5844,-0.5864,-0.5874,-0.5813,-0.5864,-0.5895,-0.5837,-0.5918,-0.6006,-0.5928,-0.5911,-0.5935,-0.6,-0.5966,-0.5949,-0.5993,-0.585,-0.5694,0.57,0.5686,0.5559,0.5507,0.5437,0.5413,0.5403,0.5403,0.0,0.0,0.0,0.5403,0.5426,0.5325,0.4769,0.4781,0.5355,0.473,0.2863,-0.0,-0.0,-0.0,-0.0,-0.0,-0.0,-0.0,-0.0674,-0.0605,-0.0134,-0.3632,-0.5403,-0.5396,-0.5393,-0.5321,-0.5122,-0.506,-0.5006,-0.4954,-0.4727,-0.4621,-0.4766,-0.4639,-0.4497,-0.4519,-0.4463,-0.4504,-0.4474,-0.4326,-0.4164,-0.407,-0.4083,-0.4087,-0.4063,-0.406,-0.406,-0.4016,-0.4127,-0.4202,-0.4107,-0.419,-0.4284,-0.4311,-0.4589,-0.4667,-0.457,-0.4584,-0.4657,-0.4931,-0.525,-0.5309,-0.5029,-0.5279,-0.5559,-0.5832,-0.5806,-0.5772,-0.5718,-0.5759,-0.5775,-0.5741,-0.5772,-0.5857,-0.5895,-0.5898,-0.5925,-0.604,-0.6071,-0.6112,-0.6213,-0.6146,-0.6108,-0.6207,-0.6207,-0.6196,-0.6125,-0.6156,-0.6228,-0.5952,-0.5996,-0.602,-0.5942,-0.5986,-0.601,-0.5928,-0.6105,-0.6169,-0.6098,-0.6071,-0.6115,-0.6234,-0.6162,-0.6105,-0.62,-0.6061,-0.5888,0.5769,0.5769,0.5749,0.5739,0.5732,0.561,0.549,0.5418,0.5423,0.5369,0.5431,0.5428,0.5434,0.5272,0.2156,0.2448,0.5144,0.2161,0.0499,-0.0,-0.0,-0.0,-0.0,-0.0,-0.0,-0.0,-0.3094,-0.3023,-0.0668,-0.3692,-0.5393,-0.5382,-0.5382,-0.5362,-0.5332,-0.5311,-0.5301,-0.5367,-0.503,-0.477,-0.4697,-0.467,-0.4596,-0.447,-0.4519,-0.4508,-0.4478,-0.4476,-0.4365,-0.4177,-0.4334,-0.4345,-0.417,-0.4164,-0.4164,-0.4164,-0.4184,-0.4237,-0.4395,-0.4545,-0.4687,-0.4813,-0.4863,-0.4823,-0.468,-0.4779,-0.4925,-0.5098,-0.5484,-0.5611,-0.5415,-0.5577,-0.5887,-0.614,-0.6015,-0.5755,-0.5752,-0.5785,-0.5845,-0.593,-0.5934,-0.6051,-0.6146,-0.6176,-0.6173,-0.6213,-0.6203,-0.623,-0.6321,-0.6244,-0.6234,-0.6254,-0.6261,-0.6251,-0.6224,-0.6237,-0.623,-0.6287,-0.6196,-0.62,-0.6166,-0.6183,-0.6196,-0.619,-0.63,-0.624,-0.6217,-0.6227,-0.623,-0.6261,-0.6224,-0.6227,-0.6261,-0.6276,-0.6135,0.5925,0.5915,0.5837,0.58,0.5796,0.5671,0.5583,0.5296,0.4369,0.4518,0.537,0.5377,0.4319,0.2397,0.0726,0.0873,0.2405,0.0729,-0.0,-0.0,-0.0,-0.121,-0.3242,-0.3055,-0.1922,-0.0342,-0.3655,-0.4573,-0.3211,-0.4634,-0.5382,-0.5369,-0.5369,-0.5435,-0.5428,-0.5428,-0.5428,-0.5425,-0.5145,-0.5003,-0.4931,-0.4853,-0.4741,-0.4475,-0.4585,-0.4573,-0.448,-0.4484,-0.4433,-0.4368,-0.4484,-0.4488,-0.4372,-0.4362,-0.4365,-0.4368,-0.4443,-0.4518,-0.4579,-0.4728,-0.4847,-0.4914,-0.4992,-0.5006,-0.4935,-0.4921,-0.505,-0.5348,-0.5644,-0.5776,-0.5641,-0.5761,-0.6002,-0.6302,-0.6148,-0.6067,-0.6029,-0.6006,-0.6105,-0.6146,-0.612,-0.6183,-0.6254,-0.6261,-0.6261,-0.6261,-0.6261,-0.6261,-0.6338,-0.6261,-0.6261,-0.6261,-0.6261,-0.6261,-0.6261,-0.6261,-0.6261,-0.6261,-0.6261,-0.6261,-0.6261,-0.6261,-0.6261,-0.6261,-0.6261,-0.6261,-0.6261,-0.6257,-0.6261,-0.6261,-0.6261,-0.6261,-0.6261,-0.6261,-0.6234,0.6081,0.6071,0.5956,0.5895,0.5867,0.5359,0.5222,0.5234,0.3891,0.413,0.5276,0.5402,0.3389,-0.0,-0.0,-0.0,-0.0,-0.0,-0.0,-0.0,-0.0955,-0.3156,-0.6013,-0.5816,-0.4029,-0.1751,-0.4211,-0.5471,-0.543,-0.5426,-0.5403,-0.5432,-0.5428,-0.5428,-0.5428,-0.5428,-0.5428,-0.5418,-0.5247,-0.5169,-0.5065,-0.5023,-0.4833,-0.4634,-0.4741,-0.4745,-0.4628,-0.4565,-0.4565,-0.4562,-0.4622,-0.4565,-0.4562,-0.4562,-0.4565,-0.4575,-0.4674,-0.4755,-0.4792,-0.4897,-0.4982,-0.502,-0.5152,-0.5233,-0.5223,-0.5101,-0.5172,-0.5542,-0.5783,-0.5898,-0.5805,-0.5989,-0.616,-0.6245,-0.6266,-0.624,-0.6257,-0.6261,-0.6261,-0.6261,-0.6261,-0.6257,-0.6261,-0.6261,-0.6261,-0.6261,-0.6261,-0.6338,-0.6567,-0.649,-0.6338,-0.6567,-0.649,-0.6338,-0.6261,-0.6261,-0.6261,-0.6261,-0.6261,-0.6261,-0.6261,-0.6261,-0.6261,-0.6261,-0.6261,-0.6261,-0.6261,-0.6261,-0.6261,-0.6261,-0.6261,-0.6261,-0.6261,-0.6261,-0.6261,0.6244,0.6251,0.6224,0.6242,0.6061,0.4293,0.415,0.5153,0.5153,0.5222,0.5154,0.5363,0.3364,-0.0,-0.0,-0.0,-0.0,-0.0,-0.0,-0.0,-0.4009,-0.5932,-0.6266,-0.6223,-0.5751,-0.4919,-0.5555,-0.5758,-0.55,-0.55,-0.5501,-0.5442,-0.5428,-0.5432,-0.5432,-0.5428,-0.5428,-0.5428,-0.5348,-0.527,-0.5078,-0.5114,-0.5043,-0.4901,-0.4837,-0.4833,-0.486,-0.4817,-0.4813,-0.4874,-0.4867,-0.487,-0.487,-0.4874,-0.4874,-0.4867,-0.4887,-0.4952,-0.5074,-0.5041,-0.5176,-0.5377,-0.5454,-0.5538,-0.5535,-0.5406,-0.5389,-0.5623,-0.5979,-0.6129,-0.5888,-0.6066,-0.622,-0.63,-0.6331,-0.6261,-0.6271,-0.6261,-0.6261,-0.6261,-0.6295,-0.6261,-0.6295,-0.6298,-0.6281,-0.6308,-0.6315,-0.6624,-0.7153,-0.6924,-0.6765,-0.7281,-0.6957,-0.6423,-0.6342,-0.6338,-0.6567,-0.649,-0.6335,-0.649,-0.6641,-0.6563,-0.6335,-0.6868,-0.6412,-0.649,-0.6412,-0.6261,-0.6261,-0.6261,-0.6261,-0.6261,-0.6261,-0.6261,-0.6261,0.6281,0.6203,0.4932,0.5154,0.6073,0.5357,0.3951,0.24,0.4508,0.4219,0.2354,0.2176,0.14,-0.0,-0.0,-0.0,-0.0,-0.0,-0.1407,-0.3645,-0.5523,-0.627,-0.6266,-0.6162,-0.6033,-0.5935,-0.5926,-0.5922,-0.587,-0.5789,-0.5681,-0.5616,-0.5542,-0.5498,-0.5488,-0.5406,-0.5428,-0.5428,-0.5428,-0.5332,-0.5274,-0.5267,-0.526,-0.5192,-0.5171,-0.5192,-0.5182,-0.5172,-0.5107,-0.4918,-0.4918,-0.4918,-0.4918,-0.4918,-0.4918,-0.4925,-0.4999,-0.5111,-0.5257,-0.5348,-0.543,-0.5494,-0.563,-0.5715,-0.5715,-0.5654,-0.5688,-0.585,-0.6101,-0.6227,-0.6103,-0.6224,-0.6261,-0.6271,-0.6329,-0.6383,-0.6301,-0.6464,-0.6522,-0.6522,-0.6519,-0.6519,-0.6522,-0.6522,-0.6522,-0.6522,-0.6519,-0.6743,-0.7148,-0.7308,-0.7705,-0.81,-0.8339,-0.7849,-0.6932,-0.7778,-0.8008,-0.7557,-0.7706,-0.8089,-0.8012,-0.8084,-0.8084,-0.8012,-0.748,-0.7176,-0.7253,-0.6641,-0.6261,-0.6261,-0.6261,-0.6261,-0.6261,-0.6261,-0.6261,0.5817,0.5827,0.3366,0.3136,0.457,0.457,0.2829,0.0471,0.2833,0.2439,-0.0,-0.0,-0.0,-0.0,-0.0,-0.055,-0.1649,-0.1728,-0.2986,-0.5358,-0.5996,-0.6298,-0.6268,-0.6166,-0.6177,-0.6231,-0.606,-0.6061,-0.6168,-0.6036,-0.5875,-0.5783,-0.5698,-0.5647,-0.5637,-0.5532,-0.546,-0.5433,-0.546,-0.5464,-0.5433,-0.5494,-0.5418,-0.541,-0.5396,-0.5407,-0.5432,-0.5424,-0.53,-0.5043,-0.504,-0.5043,-0.504,-0.504,-0.504,-0.5053,-0.5176,-0.5304,-0.542,-0.5562,-0.565,-0.5657,-0.5783,-0.5864,-0.5871,-0.5901,-0.5973,-0.6081,-0.6268,-0.638,-0.6322,-0.6356,-0.638,-0.6304,-0.6398,-0.6536,-0.6542,-0.6644,-0.6692,-0.6702,-0.6671,-0.6702,-0.6698,-0.6688,-0.6678,-0.6678,-0.6688,-0.7109,-0.7432,-0.8147,-0.8552,-0.9131,-1.011,-0.9637,-0.7848,-0.8558,-0.9296,-0.8922,-0.877,-0.9069,-0.9296,-0.9296,-0.9296,-0.8618,-0.8237,-0.7783,-0.7553,-0.6945,-0.6412,-0.6335,-0.6335,-0.6412,-0.6261,-0.6261,-0.6338,0.4472,0.5526,0.1885,-0.0,-0.0,-0.0,-0.0,-0.0,-0.0,-0.0,-0.0,-0.0,-0.0,-0.0,-0.0,-0.2277,-0.5529,-0.5689,-0.4878,-0.3912,-0.5485,-0.6281,-0.6274,-0.6261,-0.6247,-0.6307,-0.6287,-0.6142,-0.6091,-0.6186,-0.6097,-0.5806,-0.5803,-0.5793,-0.5789,-0.5766,-0.5708,-0.5603,-0.5691,-0.5711,-0.5596,-0.5579,-0.5511,-0.5446,-0.5415,-0.5401,-0.5394,-0.5404,-0.5401,-0.5401,-0.5387,-0.5394,-0.5397,-0.5332,-0.5335,-0.5425,-0.5481,-0.5569,-0.5593,-0.5715,-0.5793,-0.5813,-0.5935,-0.602,-0.603,-0.6129,-0.6207,-0.6325,-0.6488,-0.6597,-0.6431,-0.6488,-0.6555,-0.6394,-0.6506,-0.6778,-0.7033,-0.6809,-0.6874,-0.6978,-0.6829,-0.6753,-0.6725,-0.6702,-0.6732,-0.6736,-0.6719,-0.73,-0.8873,-0.8846,-0.9423,-1.0821,-1.1456,-1.1175,-0.9906,-1.0078,-0.9911,-0.9617,-0.9673,-0.964,-0.9382,-0.9296,-0.9387,-0.9301,-0.8765,-0.8232,-0.7778,-0.7249,-0.6791,-0.6641,-0.6795,-0.6718,-0.7022,-0.6567,-0.6644,0.1568,0.212,0.0628,-0.0,-0.0,-0.0,-0.0,-0.0,-0.0,-0.0,-0.0,-0.0,-0.0,-0.0157,-0.2829,-0.481,-0.6247,-0.625,-0.583,-0.5249,-0.596,-0.6274,-0.6268,-0.6261,-0.6261,-0.6261,-0.6257,-0.6234,-0.6183,-0.6273,-0.6249,-0.6149,-0.5996,-0.5945,-0.5932,-0.585,-0.5772,-0.5735,-0.5779,-0.5776,-0.5732,-0.5725,-0.5624,-0.5421,-0.5386,-0.5428,-0.5428,-0.5428,-0.5428,-0.5428,-0.5428,-0.5428,-0.5439,-0.5521,-0.5552,-0.5633,-0.5694,-0.5725,-0.5742,-0.5864,-0.5949,-0.5956,-0.6088,-0.6173,-0.6186,-0.623,-0.6373,-0.641,-0.6573,-0.6692,-0.6666,-0.6649,-0.6702,-0.6798,-0.679,-0.6932,-0.7041,-0.7015,-0.6987,-0.7073,-0.6983,-0.698,-0.6963,-0.698,-0.6983,-0.6983,-0.698,-0.7737,-0.8935,-0.9441,-1.0343,-1.1712,-1.2736,-1.2991,-1.2382,-1.2019,-1.1812,-1.1365,-1.1233,-1.1593,-1.1526,-1.13,-1.1377,-1.1011,-1.0122,-0.9418,-0.9133,-0.8584,-0.7966,-0.7851,-0.7855,-0.7816,-0.8237,-0.7863,-0.7936,-0.0,-0.0,-0.0,-0.0,-0.0,-0.0,-0.0,-0.0,-0.0,-0.0,-0.0,-0.0,-0.0,-0.0,-0.4411,-0.6322,-0.6315,-0.6315,-0.6298,-0.6274,-0.6274,-0.6268,-0.6261,-0.6261,-0.6261,-0.6261,-0.6261,-0.6261,-0.6261,-0.6261,-0.6261,-0.6247,-0.6152,-0.6105,-0.6084,-0.5996,-0.5928,-0.5895,-0.5922,-0.5932,-0.5884,-0.5874,-0.5801,-0.5692,-0.563,-0.5477,-0.544,-0.5477,-0.5545,-0.5518,-0.5477,-0.5504,-0.5515,-0.5603,-0.5701,-0.5793,-0.585,-0.5874,-0.5891,-0.6017,-0.6105,-0.6105,-0.6196,-0.6261,-0.6261,-0.6261,-0.6329,-0.6471,-0.6712,-0.68,-0.6813,-0.679,-0.6929,-0.7031,-0.7025,-0.6997,-0.7094,-0.7085,-0.7126,-0.7126,-0.7119,-0.7129,-0.7139,-0.7136,-0.7129,-0.7139,-0.7139,-0.7665,-0.9148,-1.0096,-1.1214,-1.2595,-1.3516,-1.3787,-1.345,-1.3192,-1.2901,-1.2485,-1.2282,-1.2844,-1.3013,-1.2933,-1.2826,-1.2424,-1.186,-1.1141,-1.0422,-0.9866,-0.9519,-0.9241,-0.9071,-0.8986,-0.9153,-0.9306,-0.9246,-0.0,-0.0,-0.0,-0.0,-0.0,-0.0,-0.0,-0.0,-0.0,-0.0,-0.0,-0.0,-0.0,-0.0,-0.4446,-0.6335,-0.6329,-0.6335,-0.6305,-0.6342,-0.6261,-0.6261,-0.6261,-0.6261,-0.6261,-0.6261,-0.6261,-0.6261,-0.6261,-0.6261,-0.6261,-0.6261,-0.6251,-0.623,-0.6254,-0.6217,-0.6162,-0.6084,-0.6152,-0.6159,-0.6054,-0.603,-0.6108,-0.6172,-0.5954,-0.5671,-0.5467,-0.5641,-0.5708,-0.562,-0.5708,-0.5793,-0.5783,-0.58,-0.581,-0.5857,-0.5956,-0.602,-0.6044,-0.6162,-0.6234,-0.6237,-0.6254,-0.6345,-0.6288,-0.6291,-0.6356,-0.6552,-0.6858,-0.7078,-0.6983,-0.7034,-0.7095,-0.7132,-0.7112,-0.7112,-0.7126,-0.7136,-0.7139,-0.7139,-0.7139,-0.7139,-0.7136,-0.7139,-0.7139,-0.7132,-0.7312,-0.8097,-0.9923,-1.0611,-1.1735,-1.33,-1.3997,-1.4035,-1.4055,-1.4035,-1.3701,-1.3346,-1.322,-1.3327,-1.3273,-1.32,-1.314,-1.283,-1.2466,-1.1719,-1.1278,-1.0778,-1.0297,-1.0028,-1.0009,-1.0218,-1.0407,-1.0577,-1.0166,-0.0,-0.0,-0.0,-0.0,-0.0,-0.0,-0.0,-0.0,-0.0,-0.0,-0.0,-0.0,-0.0,-0.0,-0.4531,-0.6603,-0.6583,-0.6566,-0.6461,-0.6295,-0.6264,-0.6261,-0.6261,-0.6261,-0.6261,-0.6261,-0.6261,-0.6261,-0.6261,-0.6261,-0.6261,-0.6261,-0.6261,-0.6261,-0.6261,-0.6257,-0.623,-0.6203,-0.6234,-0.6234,-0.6193,-0.6186,-0.6266,-0.6263,-0.6215,-0.6125,-0.6051,-0.5913,-0.5783,-0.5735,-0.5776,-0.5847,-0.5935,-0.5959,-0.601,-0.6108,-0.6159,-0.6186,-0.619,-0.6227,-0.6261,-0.6261,-0.6261,-0.6312,-0.6396,-0.6444,-0.6556,-0.6753,-0.7004,-0.7115,-0.7095,-0.7109,-0.7139,-0.7139,-0.7139,-0.7139,-0.7228,-0.7139,-0.7139,-0.7139,-0.7139,-0.7112,-0.7068,-0.7085,-0.7217,-0.7197,-0.7735,-0.8969,-1.0265,-1.1214,-1.2248,-1.3737,-1.3913,-1.4088,-1.4088,-1.4088,-1.3915,-1.3728,-1.3681,-1.3601,-1.354,-1.35,-1.3434,-1.3247,-1.2883,-1.2542,-1.2091,-1.1781,-1.1378,-1.1468,-1.1793,-1.1963,-1.2076,-1.1731,-1.1266,-0.0,-0.0,-0.0,-0.0,-0.0,-0.0,-0.0,-0.0,-0.0,-0.0,-0.0,-0.0,-0.0,-0.0,-0.4782,-0.6732,-0.6881,-0.6705,-0.66,-0.643,-0.6352,-0.6315,-0.6271,-0.6261,-0.6261,-0.6261,-0.6261,-0.6261,-0.6261,-0.6261,-0.6261,-0.6261,-0.6261,-0.6261,-0.6261,-0.6261,-0.6261,-0.6261,-0.6257,-0.6261,-0.6257,-0.6261,-0.6261,-0.6257,-0.6257,-0.629,-0.6266,-0.6094,-0.5945,-0.5911,-0.5935,-0.602,-0.6105,-0.6118,-0.6159,-0.6234,-0.6257,-0.6257,-0.6261,-0.6254,-0.6261,-0.6261,-0.6261,-0.6322,-0.6458,-0.6569,-0.6756,-0.6905,-0.7054,-0.7139,-0.7139,-0.7577,-0.7753,-0.7753,-0.7841,-0.7753,-0.7753,-0.7933,-0.7584,-0.7492,-0.7492,-0.7453,-0.7257,-0.7607,-0.7478,-0.7457,-0.8169,-0.9323,-1.0443,-1.1558,-1.2772,-1.3646,-1.3997,-1.4088,-1.4088,-1.4088,-1.4088,-1.4035,-1.4001,-1.3908,-1.3828,-1.3814,-1.3768,-1.3634,-1.3345,-1.322,-1.2827,-1.2935,-1.2778,-1.3187,-1.322,-1.318,-1.2949,-1.2726,-1.235,-0.0,-0.0,-0.0,-0.0,-0.0,-0.0,-0.0,-0.0,-0.0,-0.0,-0.0,-0.0,-0.0,-0.0,-0.5417,-0.7052,-0.7076,-0.6846,-0.6746,-0.6668,-0.6556,-0.6427,-0.6308,-0.6274,-0.6271,-0.6288,-0.6271,-0.6261,-0.6261,-0.6261,-0.6261,-0.6261,-0.6261,-0.6261,-0.6261,-0.6261,-0.6261,-0.6261,-0.6261,-0.6261,-0.6261,-0.6261,-0.6261,-0.6261,-0.6261,-0.6254,-0.6314,-0.6217,-0.6166,-0.6081,-0.6159,-0.6217,-0.6251,-0.6261,-0.6251,-0.6261,-0.6261,-0.6261,-0.6261,-0.6261,-0.6274,-0.6369,-0.6302,-0.6346,-0.6529,-0.6719,-0.6861,-0.6956,-0.7068,-0.7139,-0.7489,-0.8105,-0.8803,-0.9148,-0.9061,-0.8973,-0.9065,-0.9253,-0.8552,-0.7669,-0.8017,-0.8711,-0.7994,-0.8703,-0.8181,-0.8082,-0.8611,-0.9662,-1.0783,-1.1986,-1.2857,-1.3555,-1.4082,-1.4088,-1.4088,-1.4088,-1.4088,-1.4088,-1.4088,-1.4048,-1.4008,-1.4001,-1.4001,-1.3881,-1.3781,-1.3667,-1.3607,-1.3649,-1.3588,-1.3507,-1.3595,-1.383,-1.3661,-1.3326,-1.3113,-0.0,-0.0,-0.0,-0.0,-0.0,-0.0,-0.1799,-0.4489,-0.4986,-0.3112,-0.1347,-0.373,-0.4913,-0.5354,-0.6331,-0.7135,-0.7101,-0.701,-0.6959,-0.6854,-0.6709,-0.6563,-0.6413,-0.6308,-0.6315,-0.638,-0.6379,-0.6261,-0.6261,-0.6261,-0.6261,-0.6261,-0.6261,-0.6261,-0.6261,-0.6261,-0.6261,-0.6261,-0.6261,-0.6261,-0.6261,-0.6261,-0.6261,-0.6261,-0.6261,-0.6261,-0.6261,-0.6261,-0.6251,-0.621,-0.6234,-0.6261,-0.6261,-0.6261,-0.6261,-0.6261,-0.6261,-0.6261,-0.6261,-0.6261,-0.6308,-0.6407,-0.6403,-0.6529,-0.6787,-0.6865,-0.6966,-0.7054,-0.7126,-0.7577,-0.8277,-0.8803,-0.9666,-1.1042,-1.0697,-1.0269,-1.0101,-0.9414,-0.8548,-0.7492,-0.8189,-0.9749,-1.0961,-1.0265,-0.9213,-0.9525,-0.9885,-1.0443,-1.1558,-1.2601,-1.3646,-1.3737,-1.4088,-1.4088,-1.4088,-1.4088,-1.4088,-1.4088,-1.4088,-1.4082,-1.4062,-1.4055,-1.4062,-1.4028,-1.3961,-1.3861,-1.3915,-1.3928,-1.3861,-1.3734,-1.3884,-1.3993,-1.389,-1.3687,-1.352,-0.0,-0.0,-0.2107,-0.1804,-0.0253,-0.0924,-0.3215,-0.5935,-0.6642,-0.5633,-0.4024,-0.5733,-0.7098,-0.7088,-0.7084,-0.7078,-0.7068,-0.7143,-0.7095,-0.6997,-0.6797,-0.6583,-0.6417,-0.6414,-0.6366,-0.6366,-0.6305,-0.6264,-0.6261,-0.6261,-0.6261,-0.6261,-0.6261,-0.6261,-0.6261,-0.6261,-0.6261,-0.6261,-0.6261,-0.6261,-0.6261,-0.6261,-0.6261,-0.6261,-0.6261,-0.6261,-0.6261,-0.6261,-0.6261,-0.6257,-0.6257,-0.6261,-0.6261,-0.6261,-0.6261,-0.6261,-0.6261,-0.6261,-0.6261,-0.6261,-0.6329,-0.6437,-0.6474,-0.6955,-0.7509,-0.7692,-0.7752,-0.8582,-0.8524,-0.8965,-0.9492,-1.0009,-1.1133,-1.2516,-1.2425,-1.1826,-1.1381,-1.0788,-0.9314,-0.836,-0.9056,-1.1133,-1.3822,-1.174,-1.0763,-1.056,-1.0924,-1.1461,-1.2242,-1.3379,-1.4088,-1.4088,-1.4088,-1.4088,-1.4088,-1.4088,-1.4088,-1.4088,-1.4088,-1.4088,-1.4088,-1.4088,-1.4088,-1.4088,-1.4088,-1.4088,-1.4088,-1.4088,-1.4035,-1.3981,-1.4075,-1.4062,-1.3988,-1.3854,-1.3728,-0.0,-0.1076,-0.5112,-0.44,-0.1438,-0.2434,-0.4227,-0.6109,-0.6635,-0.6741,-0.6678,-0.6923,-0.6536,-0.6441,-0.5988,-0.6805,-0.7078,-0.7146,-0.7119,-0.7031,-0.6868,-0.6647,-0.6407,-0.6465,-0.6376,-0.6325,-0.6278,-0.6261,-0.6261,-0.6261,-0.6261,-0.6261,-0.6261,-0.6261,-0.6261,-0.6261,-0.6261,-0.6261,-0.6261,-0.6261,-0.6261,-0.6261,-0.6261,-0.6261,-0.6261,-0.6261,-0.6261,-0.6338,-0.6338,-0.6493,-0.6338,-0.6261,-0.6338,-0.6338,-0.6641,-0.6791,-0.6945,-0.6872,-0.6725,-0.6976,-0.6898,-0.7114,-0.7167,-0.7445,-0.8573,-0.8926,-0.924,-1.0072,-1.0524,-1.0433,-1.0773,-1.1718,-1.2681,-1.3646,-1.3913,-1.347,-1.2857,-1.2504,-1.1214,-0.8532,-1.0778,-1.251,-1.3385,-1.3118,-1.1986,-1.1798,-1.2066,-1.2151,-1.2766,-1.3561,-1.3997,-1.4088,-1.4088,-1.4088,-1.4088,-1.4088,-1.4088,-1.4088,-1.4088,-1.4088,-1.4088,-1.4088,-1.4088,-1.4088,-1.4088,-1.4088,-1.4088,-1.4088,-1.4082,-1.4035,-1.4001,-1.4015,-1.4001,-1.3814,-1.3661,-0.5586,-0.5492,-0.4639,-0.4837,-0.5178,-0.3888,-0.4474,-0.6542,-0.6705,-0.6797,-0.6908,-0.7034,-0.5066,-0.2037,-0.4086,-0.5247,-0.6969,-0.7139,-0.7085,-0.6983,-0.7054,-0.6871,-0.6603,-0.6444,-0.6445,-0.6455,-0.639,-0.6345,-0.6264,-0.6268,-0.6261,-0.6261,-0.6261,-0.6261,-0.6261,-0.6261,-0.6261,-0.6261,-0.6261,-0.6261,-0.6261,-0.6261,-0.6261,-0.6261,-0.6261,-0.6261,-0.6261,-0.6261,-0.6641,-0.7099,-0.6714,-0.6261,-0.6416,-0.7026,-0.7799,-0.8502,-0.8551,-0.8542,-0.8651,-0.87,-0.902,-0.8958,-0.9105,-0.974,-1.0062,-1.0186,-1.0292,-1.0605,-1.0611,-1.1037,-1.1621,-1.2851,-1.3639,-1.3997,-1.4088,-1.3997,-1.3737,-1.3698,-1.301,-1.2619,-1.2248,-1.276,-1.3906,-1.3118,-1.2687,-1.3039,-1.3033,-1.2851,-1.3288,-1.3828,-1.3997,-1.4088,-1.4088,-1.4088,-1.4088,-1.4088,-1.4088,-1.4088,-1.4088,-1.4088,-1.4088,-1.4088,-1.4088,-1.4088,-1.4088,-1.4088,-1.4088,-1.4075,-1.4068,-1.3988,-1.3921,-1.3928,-1.3895,-1.3645,-1.3721,-0.6112,-0.6936,-0.5735,-0.5934,-0.6714,-0.5568,-0.5549,-0.6565,-0.684,-0.6817,-0.6858,-0.7061,-0.5612,-0.3462,-0.4625,-0.6068,-0.6789,-0.7146,-0.7102,-0.7037,-0.6957,-0.6946,-0.6817,-0.6603,-0.6512,-0.6552,-0.643,-0.6366,-0.6346,-0.6298,-0.6261,-0.6261,-0.6264,-0.6261,-0.6261,-0.6264,-0.6261,-0.6261,-0.6261,-0.6261,-0.6261,-0.6261,-0.6261,-0.6261,-0.6261,-0.6261,-0.6261,-0.6261,-0.6567,-0.6872,-0.6644,-0.6338,-0.649,-0.7334,-0.8779,-1.065,-0.9764,-0.9602,-0.9647,-0.9708,-0.9756,-1.0147,-1.0284,-1.0795,-1.115,-1.1235,-1.1585,-1.2003,-1.2339,-1.251,-1.2838,-1.3464,-1.4088,-1.4088,-1.4088,-1.4088,-1.4095,-1.4128,-1.4057,-1.401,-1.347,-1.3555,-1.3555,-1.3209,-1.3294,-1.3561,-1.3652,-1.347,-1.3555,-1.3997,-1.3997,-1.4088,-1.4088,-1.4088,-1.4088,-1.4088,-1.4088,-1.4088,-1.4088,-1.4088,-1.4088,-1.4088,-1.4088,-1.4088,-1.4088,-1.4088,-1.4082,-1.4075,-1.4055,-1.4008,-1.3948,-1.3805,-1.3751,-1.3768,-1.3834,-0.5277,-0.7101,-0.7084,-0.7109,-0.7097,-0.686,-0.677,-0.6783,-0.6875,-0.6912,-0.6959,-0.7011,-0.6799,-0.6894,-0.6805,-0.7078,-0.7074,-0.7153,-0.7122,-0.7112,-0.6954,-0.6997,-0.6922,-0.6837,-0.677,-0.6746,-0.659,-0.6508,-0.6358,-0.6301,-0.6342,-0.6291,-0.6332,-0.6322,-0.6285,-0.6288,-0.6308,-0.6312,-0.6315,-0.6312,-0.6308,-0.6305,-0.6302,-0.6261,-0.6261,-0.6261,-0.6261,-0.6338,-0.6493,-0.6721,-0.6666,-0.6662,-0.6953,-0.7683,-0.9514,-1.2811,-1.1188,-1.064,-1.0841,-1.0721,-1.0734,-1.0845,-1.1071,-1.1495,-1.2287,-1.246,-1.2808,-1.3404,-1.3822,-1.3822,-1.4082,-1.4088,-1.4088,-1.4088,-1.4088,-1.4088,-1.4088,-1.4088,-1.4088,-1.4088,-1.3906,-1.3913,-1.3997,-1.3822,-1.3997,-1.4088,-1.4088,-1.4088,-1.4088,-1.4088,-1.4088,-1.4088,-1.4088,-1.4088,-1.4088,-1.4088,-1.4088,-1.4088,-1.4088,-1.4088,-1.4088,-1.4088,-1.4088,-1.4088,-1.4088,-1.4088,-1.4088,-1.4082,-1.4062,-1.4021,-1.3975,-1.3915,-1.3868,-1.3821,-1.3921,-0.6723,-0.7084,-0.7153,-0.7132,-0.7095,-0.698,-0.6919,-0.6898,-0.6926,-0.6929,-0.6953,-0.6994,-0.7149,-0.7149,-0.7146,-0.7146,-0.7149,-0.7143,-0.7139,-0.7139,-0.7095,-0.7088,-0.7068,-0.7037,-0.7034,-0.6993,-0.6814,-0.6545,-0.6475,-0.6475,-0.6478,-0.6366,-0.6491,-0.6508,-0.6452,-0.6445,-0.6437,-0.6354,-0.6437,-0.6441,-0.6358,-0.6434,-0.6383,-0.6302,-0.6285,-0.6349,-0.6261,-0.6412,-0.7099,-0.8484,-0.816,-0.822,-0.8658,-0.9116,-1.0757,-1.2409,-1.2621,-1.2182,-1.2443,-1.2749,-1.292,-1.3092,-1.3073,-1.3283,-1.3633,-1.3659,-1.3665,-1.3835,-1.4088,-1.4088,-1.4088,-1.4088,-1.4088,-1.4088,-1.4088,-1.4088,-1.4088,-1.4088,-1.4088,-1.4088,-1.4088,-1.4088,-1.4088,-1.4088,-1.4088,-1.4088,-1.4088,-1.4088,-1.4088,-1.4088,-1.4088,-1.4088,-1.4088,-1.4088,-1.4088,-1.4088,-1.4088,-1.4088,-1.4088,-1.4088,-1.4088,-1.4088,-1.4082,-1.4015,-1.4041,-1.4088,-1.4088,-1.4088,-1.4015,-1.3948,-1.3935,-1.3935,-1.3895,-1.3854,-1.3948,-0.7004,-0.7051,-0.6983,-0.7004,-0.7099,-0.699,-0.6973,-0.7031,-0.7037,-0.7037,-0.7058,-0.7109,-0.7139,-0.7139,-0.7139,-0.7139,-0.7139,-0.7139,-0.7139,-0.7139,-0.7139,-0.7139,-0.7139,-0.7139,-0.7139,-0.7105,-0.6983,-0.6841,-0.6715,-0.6688,-0.6706,-0.6732,-0.673,-0.662,-0.6532,-0.6556,-0.6586,-0.6505,-0.6586,-0.659,-0.6505,-0.659,-0.6508,-0.641,-0.6363,-0.6414,-0.6268,-0.6261,-0.7068,-0.8229,-0.84,-0.883,-0.9685,-1.0641,-1.178,-1.3202,-1.34,-1.338,-1.3554,-1.3707,-1.3605,-1.3785,-1.4015,-1.4075,-1.4088,-1.4088,-1.4088,-1.4088,-1.4088,-1.4088,-1.4088,-1.4088,-1.4088,-1.4088,-1.4088,-1.4088,-1.4088,-1.4088,-1.4088,-1.4088,-1.4088,-1.4088,-1.4088,-1.4088,-1.4088,-1.4088,-1.4088,-1.4088,-1.4088,-1.4088,-1.4088,-1.4088,-1.4088,-1.4088,-1.4088,-1.4088,-1.4088,-1.4088,-1.4088,-1.4088,-1.4062,-1.4055,-1.3948,-1.3834,-1.3908,-1.3975,-1.4082,-1.4075,-1.3975,-1.3881,-1.3861,-1.3854,-1.3881,-1.3915,-1.3981,-0.695,-0.7027,-0.6888,-0.6926,-0.7011,-0.7021,-0.7034,-0.7126,-0.7136,-0.7132,-0.7139,-0.7139,-0.7139,-0.7139,-0.7139,-0.7139,-0.7139,-0.7139,-0.7139,-0.7139,-0.7139,-0.7139,-0.7139,-0.7139,-0.7139,-0.7136,-0.7119,-0.7155,-0.6997,-0.6943,-0.6947,-0.6975,-0.6895,-0.6739,-0.6705,-0.6712,-0.6649,-0.6662,-0.6742,-0.6749,-0.6746,-0.6712,-0.6565,-0.6367,-0.6519,-0.6708,-0.7352,-0.7423,-0.8011,-0.889,-0.9284,-0.9662,-1.0783,-1.187,-1.2977,-1.3787,-1.3621,-1.3721,-1.3854,-1.3895,-1.3861,-1.4021,-1.4068,-1.4088,-1.4088,-1.4088,-1.4088,-1.4088,-1.4088,-1.4088,-1.4088,-1.4088,-1.4088,-1.4088,-1.4088,-1.4088,-1.4088,-1.4088,-1.4088,-1.4088,-1.4088,-1.4088,-1.4088,-1.4088,-1.4088,-1.4088,-1.4088,-1.4088,-1.4088,-1.4088,-1.4088,-1.4088,-1.4088,-1.4088,-1.4088,-1.4088,-1.4088,-1.4088,-1.4088,-1.4088,-1.4048,-1.4008,-1.3854,-1.3694,-1.3654,-1.3734,-1.3895,-1.4062,-1.4028,-1.3948,-1.3834,-1.3828,-1.3928,-1.3928,-1.3935,-0.6946,-0.6773,-0.7007,-0.7112,-0.7044,-0.7021,-0.7115,-0.7136,-0.7139,-0.7139,-0.7139,-0.7139,-0.7139,-0.7139,-0.7139,-0.7139,-0.7139,-0.7139,-0.7139,-0.7139,-0.7139,-0.7139,-0.7139,-0.7139,-0.7139,-0.7139,-0.7139,-0.7149,-0.708,-0.7027,-0.7028,-0.7077,-0.7018,-0.6973,-0.6787,-0.6854,-0.6813,-0.6813,-0.6816,-0.6902,-0.6885,-0.6787,-0.6722,-0.6599,-0.6668,-0.7222,-0.8752,-0.9233,-1.0176,-1.0729,-1.1334,-1.2002,-1.2772,-1.3494,-1.3814,-1.4068,-1.4021,-1.4008,-1.4062,-1.4021,-1.3988,-1.4075,-1.4088,-1.4088,-1.4088,-1.4088,-1.4088,-1.4088,-1.4088,-1.4088,-1.4088,-1.4088,-1.4088,-1.4088,-1.4088,-1.4088,-1.4088,-1.4088,-1.4088,-1.4088,-1.4088,-1.4088,-1.4088,-1.4088,-1.4088,-1.4088,-1.4088,-1.4088,-1.4088,-1.4088,-1.4088,-1.4088,-1.4088,-1.4088,-1.4088,-1.4088,-1.4088,-1.4088,-1.4088,-1.4068,-1.3961,-1.3868,-1.3707,-1.3567,-1.3507,-1.3494,-1.3641,-1.3814,-1.3995,-1.4041,-1.3955,-1.3981,-1.4055,-1.4001,-1.3861,-0.7051,-0.6943,-0.6873,-0.6987,-0.7122,-0.7054,-0.6981,-0.7129,-0.7139,-0.7139,-0.7139,-0.7139,-0.7139,-0.7139,-0.7139,-0.7139,-0.7139,-0.7139,-0.7139,-0.7139,-0.7139,-0.7139,-0.7139,-0.7139,-0.7139,-0.7139,-0.7139,-0.7129,-0.7085,-0.7088,-0.7142,-0.7083,-0.7065,-0.7092,-0.6926,-0.7007,-0.6954,-0.696,-0.7051,-0.7048,-0.7031,-0.698,-0.6912,-0.6922,-0.6831,-0.7548,-0.8756,-1.1396,-1.1588,-1.1565,-1.1592,-1.2674,-1.3474,-1.3948,-1.4088,-1.4082,-1.4082,-1.4075,-1.4088,-1.4088,-1.4088,-1.4088,-1.4088,-1.4088,-1.4088,-1.4088,-1.4088,-1.4088,-1.4088,-1.4088,-1.4088,-1.4088,-1.4088,-1.4088,-1.4088,-1.4088,-1.4088,-1.4088,-1.4088,-1.4088,-1.4088,-1.4088,-1.4088,-1.4088,-1.4088,-1.4088,-1.4088,-1.4088,-1.4088,-1.4088,-1.4088,-1.4088,-1.4088,-1.4088,-1.4088,-1.4088,-1.4088,-1.4088,-1.4088,-1.4028,-1.3834,-1.3694,-1.354,-1.3373,-1.3247,-1.3287,-1.3407,-1.3614,-1.3848,-1.3975,-1.4082,-1.3995,-1.3901,-1.3794,-1.3607,-0.7139,-0.7115,-0.6902,-0.6939,-0.7037,-0.7024,-0.7041,-0.7132,-0.7139,-0.7139,-0.7139,-0.7139,-0.7139,-0.7139,-0.7139,-0.7139,-0.7139,-0.7139,-0.7139,-0.7139,-0.7139,-0.7139,-0.7139,-0.7139,-0.7139,-0.7139,-0.7139,-0.7132,-0.7136,-0.7136,-0.7136,-0.7139,-0.7122,-0.7129,-0.7136,-0.7122,-0.7122,-0.7122,-0.7122,-0.7126,-0.7126,-0.7129,-0.7068,-0.7101,-0.7146,-0.7357,-0.8447,-1.0783,-1.1723,-1.2236,-1.2326,-1.3272,-1.3917,-1.4048,-1.4088,-1.4088,-1.4088,-1.4088,-1.4088,-1.4088,-1.4088,-1.4088,-1.4088,-1.4088,-1.4088,-1.4088,-1.4088,-1.4088,-1.4088,-1.4088,-1.4088,-1.4088,-1.4088,-1.4088,-1.4088,-1.4088,-1.4088,-1.4088,-1.4088,-1.4088,-1.4088,-1.4088,-1.4088,-1.4088,-1.4088,-1.4088,-1.4088,-1.4088,-1.4088,-1.4088,-1.4088,-1.4088,-1.4088,-1.4088,-1.4088,-1.4088,-1.4088,-1.4088,-1.4088,-1.4035,-1.3881,-1.3614,-1.338,-1.3206,-1.3026,-1.3086,-1.3213,-1.346,-1.3612,-1.3801,-1.3854,-1.3754,-1.3661,-1.354,-1.3367,-0.7139,-0.7139,-0.7112,-0.7112,-0.7139,-0.7132,-0.7129,-0.7139,-0.7139,-0.7139,-0.7139,-0.7139,-0.7139,-0.7139,-0.7139,-0.7139,-0.7139,-0.7139,-0.7139,-0.7139,-0.7139,-0.7139,-0.7139,-0.7139,-0.7139,-0.7139,-0.7139,-0.7139,-0.7139,-0.7139,-0.7139,-0.7139,-0.7139,-0.7139,-0.7139,-0.7139,-0.7139,-0.7139,-0.7139,-0.7139,-0.7139,-0.7139,-0.7126,-0.7122,-0.7291,-0.807,-1.0129,-1.1171,-1.1849,-1.2965,-1.3387,-1.3652,-1.4068,-1.4088,-1.4088,-1.4088,-1.4088,-1.4088,-1.4088,-1.4088,-1.4088,-1.4088,-1.4088,-1.4088,-1.4088,-1.4088,-1.4088,-1.4088,-1.4088,-1.4088,-1.4088,-1.4088,-1.4088,-1.4088,-1.4088,-1.4088,-1.4088,-1.4088,-1.4088,-1.4088,-1.4088,-1.4088,-1.4088,-1.4088,-1.4088,-1.4088,-1.4088,-1.4088,-1.4088,-1.4088,-1.4088,-1.4088,-1.4088,-1.4088,-1.4088,-1.4088,-1.4088,-1.4088,-1.4088,-1.4055,-1.3988,-1.3674,-1.3267,-1.3019,-1.2859,-1.2939,-1.3033,-1.3247,-1.344,-1.3587,-1.3614,-1.3507,-1.3293,-1.3093,-1.2966,-0.7139,-0.7139,-0.7139,-0.7139,-0.7139,-0.7139,-0.7139,-0.7139,-0.7139,-0.7139,-0.7139,-0.7139,-0.7139,-0.7139,-0.7139,-0.7139,-0.7139,-0.7139,-0.7139,-0.7139,-0.7139,-0.7139,-0.7139,-0.7139,-0.7139,-0.7139,-0.7139,-0.7139,-0.7139,-0.7139,-0.7139,-0.7139,-0.7139,-0.7139,-0.7139,-0.7139,-0.7139,-0.7139,-0.7139,-0.7139,-0.7139,-0.7139,-0.7139,-0.7139,-0.7139,-0.7489,-0.8707,-1.1408,-1.2077,-1.2546,-1.3398,-1.3913,-1.4088,-1.4088,-1.4088,-1.4088,-1.4088,-1.4088,-1.4088,-1.4088,-1.4088,-1.4088,-1.4088,-1.4088,-1.4088,-1.4088,-1.4088,-1.4088,-1.4088,-1.4088,-1.4088,-1.4088,-1.4088,-1.4088,-1.4088,-1.4088,-1.4088,-1.4088,-1.4088,-1.4088,-1.4088,-1.4088,-1.4088,-1.4088,-1.4088,-1.4088,-1.4088,-1.4088,-1.4088,-1.4088,-1.4088,-1.4088,-1.4088,-1.4088,-1.4088,-1.4088,-1.4088,-1.4088,-1.4082,-1.4008,-1.3921,-1.3554,-1.318,-1.2913,-1.2726,-1.2786,-1.2886,-1.3026,-1.322,-1.346,-1.3414,-1.3247,-1.2986,-1.2699,-1.2612,-0.7139,-0.7139,-0.7139,-0.7139,-0.7139,-0.7139,-0.7139,-0.7139,-0.7139,-0.7139,-0.7139,-0.7139,-0.7139,-0.7139,-0.7139,-0.7139,-0.7139,-0.7139,-0.7139,-0.7139,-0.7139,-0.7139,-0.7139,-0.7139,-0.7139,-0.7139,-0.7139,-0.7139,-0.7139,-0.7139,-0.7139,-0.7139,-0.7139,-0.7139,-0.7139,-0.7139,-0.7139,-0.7139,-0.7139,-0.7139,-0.7139,-0.7139,-0.7139,-0.7139,-0.7139,-0.7129,-0.8181,-1.04,-1.1991,-1.2283,-1.2948,-1.3913,-1.4088,-1.4088,-1.4088,-1.4088,-1.4088,-1.4088,-1.4088,-1.4088,-1.4088,-1.4088,-1.4088,-1.4088,-1.4088,-1.4088,-1.4088,-1.4088,-1.4088,-1.4088,-1.4088,-1.4088,-1.4088,-1.4088,-1.4088,-1.4088,-1.4088,-1.4088,-1.4088,-1.4088,-1.4088,-1.4088,-1.4088,-1.4088,-1.4088,-1.4088,-1.4088,-1.4088,-1.4088,-1.4088,-1.4088,-1.4088,-1.4088,-1.4088,-1.4088,-1.4088,-1.4088,-1.4088,-1.4055,-1.3908,-1.3741,-1.3407,-1.3113,-1.2846,-1.2705,-1.2665,-1.2705,-1.2799,-1.308,-1.3394,-1.318,-1.2866,-1.2739,-1.2485,-1.2425,-0.7126,-0.7139,-0.7126,-0.7122,-0.7112,-0.7139,-0.7139,-0.7139,-0.7139,-0.7139,-0.7139,-0.7139,-0.7139,-0.7139,-0.7139,-0.7139,-0.7139,-0.7139,-0.7139,-0.7139,-0.7139,-0.7139,-0.7139,-0.7139,-0.7139,-0.7139,-0.7139,-0.7139,-0.7139,-0.7139,-0.7139,-0.7139,-0.7139,-0.7139,-0.7139,-0.7139,-0.7139,-0.7139,-0.7139,-0.7139,-0.7139,-0.7139,-0.7139,-0.7139,-0.7139,-0.7126,-0.7819,-0.9744,-1.1241,-1.1918,-1.3209,-1.3997,-1.4088,-1.4088,-1.4088,-1.4088,-1.4088,-1.4088,-1.4088,-1.4088,-1.4088,-1.4088,-1.4088,-1.4088,-1.4088,-1.4088,-1.4088,-1.4088,-1.4088,-1.4088,-1.4088,-1.4088,-1.4088,-1.4088,-1.4088,-1.4088,-1.4088,-1.4088,-1.4088,-1.4088,-1.4088,-1.4088,-1.4088,-1.4088,-1.4088,-1.4088,-1.4088,-1.4088,-1.4088,-1.4088,-1.4088,-1.4088,-1.4088,-1.4088,-1.4088,-1.4088,-1.4088,-1.4088,-1.4035,-1.3908,-1.3694,-1.34,-1.3106,-1.2792,-1.2619,-1.2518,-1.2518,-1.2552,-1.2819,-1.3013,-1.2699,-1.2432,-1.2345,-1.2325,-1.2311,-0.6851,-0.6851,-0.6851,-0.6848,-0.6875,-0.7061,-0.7139,-0.7139,-0.7139,-0.7139,-0.7139,-0.7139,-0.7139,-0.7139,-0.7139,-0.7139,-0.7139,-0.7139,-0.7139,-0.7139,-0.7139,-0.7139,-0.7139,-0.7139,-0.7139,-0.7139,-0.7139,-0.7139,-0.7139,-0.7139,-0.7139,-0.7139,-0.7139,-0.7139,-0.7139,-0.7139,-0.7139,-0.7139,-0.7139,-0.7139,-0.7139,-0.7139,-0.7139,-0.7139,-0.7139,-0.7129,-0.7288,-0.9387,-1.0778,-1.1558,-1.2948,-1.3997,-1.4088,-1.4088,-1.4088,-1.4088,-1.4088,-1.4088,-1.4088,-1.4088,-1.4088,-1.4088,-1.4088,-1.4088,-1.4088,-1.4088,-1.4088,-1.4088,-1.4088,-1.4088,-1.4088,-1.4088,-1.4088,-1.4088,-1.4088,-1.4088,-1.4088,-1.4088,-1.4088,-1.4088,-1.4088,-1.4088,-1.4088,-1.4088,-1.4088,-1.4088,-1.4088,-1.4088,-1.4088,-1.4088,-1.4088,-1.4088,-1.4088,-1.4088,-1.4088,-1.4088,-1.4088,-1.4088,-1.4035,-1.3941,-1.3694,-1.3353,-1.306,-1.2732,-1.2538,-1.2371,-1.2458,-1.2532,-1.2538,-1.2525,-1.2378,-1.2305,-1.2311,-1.2318,-1.2311,-0.6702,-0.6702,-0.6702,-0.6702,-0.6739,-0.6966,-0.7088,-0.7132,-0.7139,-0.7139,-0.7139,-0.7139,-0.7139,-0.7139,-0.7139,-0.7139,-0.7139,-0.7139,-0.7139,-0.7139,-0.7139,-0.7139,-0.7139,-0.7139,-0.7139,-0.7139,-0.7139,-0.7139,-0.7139,-0.7139,-0.7139,-0.7139,-0.7139,-0.7139,-0.7139,-0.7139,-0.7139,-0.7139,-0.7139,-0.7139,-0.7139,-0.7139,-0.7139,-0.7139,-0.7139,-0.7139,-0.7746,-0.8965,-1.0611,-1.1219,-1.2516,-1.3997,-1.4088,-1.4088,-1.4088,-1.4088,-1.4088,-1.4088,-1.4088,-1.4088,-1.4088,-1.4088,-1.4088,-1.4088,-1.4088,-1.4088,-1.4088,-1.4088,-1.4088,-1.4088,-1.4088,-1.4088,-1.4088,-1.4088,-1.4088,-1.4088,-1.4088,-1.4088,-1.4088,-1.4088,-1.4088,-1.4088,-1.4088,-1.4088,-1.4088,-1.4088,-1.4088,-1.4088,-1.4088,-1.4088,-1.4088,-1.4088,-1.4088,-1.4088,-1.4088,-1.4088,-1.4088,-1.4088,-1.3988,-1.3868,-1.3527,-1.316,-1.2913,-1.2685,-1.2478,-1.2371,-1.2485,-1.2538,-1.2478,-1.2425,-1.2351,-1.2305,-1.2305,-1.2305,-1.2305,-0.6681,-0.6688,-0.6685,-0.6675,-0.6705,-0.6827,-0.6976,-0.7112,-0.7122,-0.7126,-0.7126,-0.7129,-0.7139,-0.7139,-0.7139,-0.7139,-0.7139,-0.7139,-0.7139,-0.7139,-0.7139,-0.7139,-0.7139,-0.7139,-0.7139,-0.7139,-0.7139,-0.7139,-0.7139,-0.7139,-0.7139,-0.7139,-0.7139,-0.7139,-0.7139,-0.7139,-0.7139,-0.7139,-0.7139,-0.7139,-0.7139,-0.7139,-0.7139,-0.7139,-0.7139,-0.7139,-0.7837,-0.9226,-1.0265,-1.1391,-1.2784,-1.3652,-1.4088,-1.4088,-1.4088,-1.4088,-1.4088,-1.4088,-1.4088,-1.4088,-1.4088,-1.4088,-1.4088,-1.4088,-1.4088,-1.4088,-1.4088,-1.4088,-1.4088,-1.4088,-1.4088,-1.4088,-1.4088,-1.4088,-1.4088,-1.4088,-1.4088,-1.4088,-1.4088,-1.4088,-1.4088,-1.4088,-1.4088,-1.4088,-1.4088,-1.4088,-1.4088,-1.4088,-1.4088,-1.4088,-1.4088,-1.4088,-1.4088,-1.4088,-1.4082,-1.4075,-1.4088,-1.4088,-1.3834,-1.3661,-1.3307,-1.3006,-1.2766,-1.2559,-1.2398,-1.2351,-1.2425,-1.2412,-1.2351,-1.2305,-1.2305,-1.2305,-1.2305,-1.2305,-1.2305,-0.6386,-0.6465,-0.6386,-0.6465,-0.6407,-0.6542,-0.6688,-0.6827,-0.6936,-0.699,-0.7083,-0.7099,-0.7129,-0.7139,-0.7139,-0.7139,-0.7139,-0.7139,-0.7139,-0.7139,-0.7139,-0.7139,-0.7139,-0.7139,-0.7139,-0.7139,-0.7139,-0.7139,-0.7139,-0.7139,-0.7139,-0.7139,-0.7139,-0.7139,-0.7139,-0.7139,-0.7139,-0.7139,-0.7139,-0.7139,-0.7139,-0.7139,-0.7139,-0.7139,-0.7139,-0.7139,-0.7661,-0.9218,-1.0173,-1.0961,-1.2869,-1.3997,-1.4088,-1.4088,-1.4088,-1.4088,-1.4088,-1.4088,-1.4088,-1.4088,-1.4088,-1.4088,-1.4088,-1.4088,-1.4088,-1.4088,-1.4088,-1.4088,-1.4088,-1.4088,-1.4088,-1.4088,-1.4088,-1.4088,-1.4088,-1.4088,-1.4088,-1.4088,-1.4088,-1.4088,-1.4088,-1.4088,-1.4088,-1.4088,-1.4088,-1.4088,-1.4088,-1.4088,-1.4088,-1.4088,-1.4088,-1.4088,-1.4068,-1.4068,-1.4055,-1.4048,-1.4068,-1.4048,-1.3728,-1.3447,-1.3206,-1.2919,-1.2645,-1.2458,-1.2345,-1.2305,-1.2325,-1.2305,-1.2305,-1.2305,-1.2305,-1.2305,-1.2305,-1.2305,-1.2305,-0.6261,-0.6261,-0.6261,-0.6261,-0.6274,-0.6352,-0.6444,-0.6556,-0.6746,-0.6949,-0.7114,-0.7107,-0.7088,-0.7136,-0.7139,-0.7139,-0.7139,-0.7139,-0.7139,-0.7139,-0.7139,-0.7139,-0.7139,-0.7139,-0.7139,-0.7139,-0.7139,-0.7139,-0.7139,-0.7139,-0.7139,-0.7139,-0.7139,-0.7139,-0.7139,-0.7139,-0.7139,-0.7139,-0.7139,-0.7139,-0.7139,-0.7139,-0.7139,-0.7139,-0.7139,-0.7139,-0.7224,-0.8865,-0.9548,-1.0519,-1.2601,-1.3646,-1.3906,-1.4088,-1.4088,-1.4088,-1.4088,-1.4088,-1.4088,-1.4088,-1.4088,-1.4088,-1.4088,-1.4088,-1.4088,-1.4088,-1.4088,-1.4088,-1.4088,-1.4088,-1.4088,-1.4088,-1.4088,-1.4088,-1.4088,-1.4088,-1.4088,-1.4088,-1.4088,-1.4088,-1.4088,-1.4088,-1.4088,-1.4088,-1.4088,-1.4088,-1.4088,-1.4088,-1.4088,-1.4088,-1.4088,-1.4088,-1.4062,-1.4035,-1.4008,-1.3921,-1.3848,-1.3701,-1.3353,-1.3113,-1.2999,-1.2799,-1.2492,-1.2378,-1.2318,-1.2305,-1.2305,-1.2305,-1.2305,-1.2305,-1.2305,-1.2305,-1.2305,-1.2305,-1.2305,-0.6261,-0.6261,-0.6261,-0.6261,-0.6261,-0.6268,-0.6274,-0.6288,-0.6546,-0.6829,-0.7031,-0.7097,-0.7097,-0.7085,-0.7122,-0.7139,-0.7139,-0.7139,-0.7139,-0.7139,-0.7139,-0.7139,-0.7139,-0.7139,-0.7139,-0.7139,-0.7139,-0.7139,-0.7139,-0.7139,-0.7139,-0.7139,-0.7139,-0.7139,-0.7139,-0.7139,-0.7139,-0.7139,-0.7139,-0.7139,-0.7139,-0.7139,-0.7139,-0.7139,-0.7139,-0.7139,-0.7214,-0.772,-0.8392,-1.024,-1.1906,-1.3118,-1.373,-1.4088,-1.4088,-1.4088,-1.4088,-1.4088,-1.4088,-1.4088,-1.4088,-1.4088,-1.4088,-1.4088,-1.4088,-1.4088,-1.4088,-1.4088,-1.4088,-1.4088,-1.4088,-1.4088,-1.4088,-1.4088,-1.4088,-1.4088,-1.4088,-1.4088,-1.4088,-1.4088,-1.4088,-1.4088,-1.4088,-1.4088,-1.4088,-1.4088,-1.4088,-1.4088,-1.4088,-1.4088,-1.4088,-1.4088,-1.4068,-1.3995,-1.3788,-1.3687,-1.354,-1.3327,-1.3026,-1.2976,-1.2866,-1.2632,-1.2338,-1.2305,-1.2305,-1.2305,-1.2305,-1.2305,-1.2305,-1.2305,-1.2305,-1.2305,-1.2305,-1.2305,-1.2305,-0.6261,-0.6261,-0.6261,-0.6261,-0.6261,-0.6261,-0.6261,-0.6264,-0.6329,-0.6458,-0.6522,-0.681,-0.7035,-0.7087,-0.7105,-0.7139,-0.7139,-0.7139,-0.7139,-0.7139,-0.7139,-0.7139,-0.7139,-0.7139,-0.7139,-0.7139,-0.7139,-0.7139,-0.7139,-0.7139,-0.7139,-0.7139,-0.7139,-0.7139,-0.7139,-0.7139,-0.7139,-0.7139,-0.7139,-0.7139,-0.7139,-0.7139,-0.7139,-0.7139,-0.7139,-0.7231,-0.7658,-0.896,-0.9643,-1.0869,-1.2693,-1.3646,-1.4082,-1.4088,-1.4088,-1.4088,-1.4088,-1.4088,-1.4088,-1.4088,-1.4088,-1.4088,-1.4088,-1.4088,-1.4088,-1.4088,-1.4088,-1.4088,-1.4088,-1.4088,-1.4088,-1.4088,-1.4088,-1.4088,-1.4088,-1.4088,-1.4088,-1.4088,-1.4088,-1.4088,-1.4088,-1.4088,-1.4088,-1.4088,-1.4088,-1.4088,-1.4088,-1.4088,-1.4088,-1.4088,-1.4088,-1.4088,-1.4088,-1.3981,-1.3701,-1.348,-1.3353,-1.3146,-1.2879,-1.2786,-1.2726,-1.2518,-1.2305,-1.2305,-1.2305,-1.2305,-1.2305,-1.2305,-1.2305,-1.2305,-1.2305,-1.2305,-1.2305,-1.2305,-1.2305,-0.6261,-0.6261,-0.6261,-0.6261,-0.6261,-0.6261,-0.6261,-0.6261,-0.6261,-0.6302,-0.6334,-0.6678,-0.6949,-0.7114,-0.7078,-0.7139,-0.7139,-0.7139,-0.7139,-0.7139,-0.7139,-0.7139,-0.7139,-0.7139,-0.7139,-0.7139,-0.7139,-0.7139,-0.7139,-0.7139,-0.7139,-0.7139,-0.7139,-0.7139,-0.7139,-0.7139,-0.7139,-0.7139,-0.7139,-0.7139,-0.7139,-0.7139,-0.7139,-0.7139,-0.7139,-0.7496,-0.8832,-1.0052,-1.0636,-1.1574,-1.3124,-1.3822,-1.4088,-1.4088,-1.4088,-1.4088,-1.4088,-1.4088,-1.4088,-1.4088,-1.4088,-1.4088,-1.4088,-1.4088,-1.4088,-1.4088,-1.4088,-1.4088,-1.4088,-1.4088,-1.4088,-1.4088,-1.4088,-1.4088,-1.4088,-1.4088,-1.4088,-1.4088,-1.4088,-1.4088,-1.4088,-1.4088,-1.4088,-1.4088,-1.4088,-1.4088,-1.4088,-1.4088,-1.4088,-1.4075,-1.4075,-1.4048,-1.4028,-1.3814,-1.3474,-1.3293,-1.318,-1.2959,-1.2712,-1.2605,-1.2505,-1.2405,-1.2305,-1.2305,-1.2305,-1.2305,-1.2305,-1.2305,-1.2305,-1.2305,-1.2305,-1.2305,-1.2305,-1.2305,-1.2305,-0.6261,-0.6261,-0.6261,-0.6261,-0.6261,-0.6261,-0.6261,-0.6261,-0.6261,-0.6261,-0.6305,-0.6556,-0.6836,-0.6994,-0.7048,-0.7102,-0.7048,-0.7139,-0.7139,-0.7139,-0.7139,-0.7139,-0.7139,-0.7139,-0.7139,-0.7139,-0.7139,-0.7139,-0.7139,-0.7139,-0.7139,-0.7139,-0.7139,-0.7139,-0.7139,-0.7139,-0.7139,-0.7139,-0.7139,-0.7139,-0.7139,-0.7139,-0.7139,-0.7139,-0.7312,-0.8388,-0.9828,-1.1065,-1.1635,-1.2289,-1.3288,-1.3822,-1.4088,-1.4088,-1.4088,-1.4088,-1.4088,-1.4088,-1.4088,-1.4088,-1.4088,-1.4088,-1.4088,-1.4088,-1.4088,-1.4088,-1.4088,-1.4088,-1.4088,-1.4088,-1.4088,-1.4088,-1.4088,-1.4088,-1.4088,-1.4088,-1.4088,-1.4088,-1.4088,-1.4088,-1.4088,-1.4088,-1.4088,-1.4088,-1.4088,-1.4088,-1.4088,-1.4088,-1.4082,-1.4055,-1.4041,-1.3968,-1.3901,-1.3627,-1.33,-1.3113,-1.3006,-1.2712,-1.2478,-1.2378,-1.2305,-1.2305,-1.2305,-1.2305,-1.2305,-1.2305,-1.2305,-1.2305,-1.2305,-1.2305,-1.2305,-1.2305,-1.2305,-1.2305,-1.2305,-0.6261,-0.6261,-0.6261,-0.6261,-0.6261,-0.6261,-0.6261,-0.6261,-0.6261,-0.6261,-0.6379,-0.651,-0.677,-0.7094,-0.6991,-0.7007,-0.7105,-0.7126,-0.7139,-0.7139,-0.7139,-0.7139,-0.7139,-0.7139,-0.7139,-0.7139,-0.7139,-0.7139,-0.7139,-0.7139,-0.7139,-0.7139,-0.7139,-0.7139,-0.7139,-0.7139,-0.7139,-0.7139,-0.7139,-0.7139,-0.7139,-0.7139,-0.7139,-0.7129,-0.7105,-0.8632,-1.0338,-1.2463,-1.2673,-1.2881,-1.3379,-1.3913,-1.4088,-1.4088,-1.4088,-1.4088,-1.4088,-1.4088,-1.4088,-1.4088,-1.4088,-1.4088,-1.4088,-1.4088,-1.4088,-1.4088,-1.4088,-1.4088,-1.4088,-1.4088,-1.4088,-1.4088,-1.4088,-1.4088,-1.4088,-1.4088,-1.4088,-1.4088,-1.4088,-1.4088,-1.4088,-1.4088,-1.4088,-1.4088,-1.4088,-1.4088,-1.4088,-1.4088,-1.4082,-1.4041,-1.3988,-1.3868,-1.3761,-1.3547,-1.326,-1.305,-1.2869,-1.2492,-1.2305,-1.2305,-1.2305,-1.2305,-1.2305,-1.2305,-1.2305,-1.2305,-1.2305,-1.2305,-1.2305,-1.2305,-1.2305,-1.2305,-1.2305,-1.2305,-1.2305]},{"header":{"parameterUnit":"m.s-1","parameterCategory":1,"la1":31.0,"la2":29.5877,"lo1":-88.7671,"lo2":-86.6584,"dy":0.0162,"dx":0.0185,"nx":115,"ny":88,"refTime":"2024-09-27T12:00:00:Z","depth":0,"parameterNumber":3,"parameterNumberName":"V-component_of_WINDS"},"data":[0.0,0.0,0.0,0.0,0.0,0.0,0.0,0.0,0.0,0.0,0.0,0.0,0.0,0.0,0.0,0.0,0.0,0.0,0.0,0.0,0.0,0.0,0.0,0.0,0.0,0.0,0.0,0.0,0.0,0.0,0.0,0.0,0.0,0.0,0.0,0.0,0.0,0.0,0.0,0.0,0.0,0.0,0.0,0.0,0.0,0.0,0.0,0.0,0.0,0.0,0.0,0.0,0.0,0.0,0.0,0.0,0.0,0.0,0.0,0.0,0.0,0.0,0.0,0.0,0.0,0.0,0.0,0.0,0.0,0.0,0.0,0.0,0.0,0.0,0.0,0.0,0.0,0.0,0.0,0.0,0.0,0.0,0.0,0.0,0.0,0.0,0.0,0.0,0.0,0.0,0.0,0.0,0.0,0.0,0.0,0.0,0.0,0.0,0.0,0.0,0.0,0.0,0.0,0.0,0.0,0.0,0.0,0.0,0.0,0.0,0.0,0.0,0.0,0.0,0.0,0.0,0.0,0.0,0.0,0.0,0.0,0.0,0.0,0.0,0.0,0.0,0.0,0.0,0.0,0.0,0.0,0.0,0.0,0.0,0.0,0.0,0.0,0.0,0.0,0.0,0.0,0.0,0.0,0.0,0.0,0.0,0.0,0.0,0.0,0.0,0.0,0.0,0.0,0.0,0.0,0.0,0.0,0.0,0.0,0.0,0.0,0.0,0.0,0.0,0.0,0.0,0.0,0.0,0.0,0.0,0.0,0.0,0.0,0.0,0.0,0.0,0.0,0.0,0.0,0.0,0.0,0.0,0.0,0.0,0.0,0.0,0.0,0.0,0.0,0.0,0.0,0.0,0.0,0.0,0.0,0.0,0.0,0.0,0.0,0.0,0.0,0.0,0.0,0.0,0.0,0.0,0.0,0.0,0.0,0.0,0.0,0.0,0.0,0.0,0.0,0.0,0.0,0.0,0.0,0.0,0.0,0.0,0.0,0.0,0.0,0.0,0.0,0.0,0.0,0.0,0.0,0.0,0.0,0.0,0.0,0.0,0.0,0.0,0.0,0.0,0.0,0.0,0.0,0.0,0.0,0.0,0.0,0.0,0.0,0.0,0.0,0.0,0.0,0.0,0.0,0.0,0.0,0.0,0.0,0.0,0.0,0.0,0.0,0.0,0.0,0.0,0.0,0.0,0.0,0.0,0.0,0.0,0.0,0.0,0.0,0.0,0.0,0.0,0.0,0.0,0.0,0.0,0.0,0.0,0.0,0.0,0.0,0.0,0.0,0.0,0.0,0.0,0.0,0.0,0.0,0.0,0.0,0.0,0.0,0.0,0.0,0.0,0.0,0.0,0.0,0.0,0.0,0.0,0.0,0.0,0.0,0.0,0.0,0.0,0.0,0.0,0.0,0.0,0.0,0.0,0.0,0.0,0.0,0.0,0.0,0.0,0.0,0.0,0.0,0.0,0.0,0.0,0.0,0.0,0.0,0.0,0.0,0.0,0.0,0.0,0.0,0.0,0.0,0.0,0.0,0.0,0.0,0.0,0.0,0.0,0.0,0.0,0.0,0.0,0.0,0.0,0.0,0.0,0.0,0.0,0.0,0.0,0.0,0.0,0.0,0.0,0.0,0.0,0.0,0.0,0.0,0.0,0.0,0.0,0.0,0.0,0.0,0.0,0.0,0.0,0.0,0.0,0.0,0.0,0.0,0.0,0.0,0.0,0.0,0.0,0.0,0.0,0.0,0.0,0.0,0.0,0.0,0.0,0.0,0.0,0.0,0.0,0.0,0.0,0.0,0.0,0.0,0.0,0.0,0.0,0.0,0.0,0.0,0.0,0.0,0.0,0.0,0.0,0.0,0.0,0.0,0.0,0.0,0.0,0.0,0.0,0.0,0.0,0.0,0.0,0.0,0.0,0.0,0.0,0.0,0.0,0.0,0.0,0.0,0.0,0.0,0.0,0.0,0.0,0.0,0.0,0.0,0.0,0.0,0.0,0.0,0.0,0.0,0.0,0.0,0.0,0.0,0.0,0.0,0.0,0.0,0.0,0.0,0.0,0.0,0.0,0.0,0.0,0.0,0.0,0.0,0.0,0.0,0.0,0.0,0.0,0.0,0.0,0.0,0.0,0.0,0.0,0.0,0.0,0.0,0.0,0.0,0.0,0.0,0.0,0.0,0.0,0.0,0.0,0.0,0.0,0.0,0.0,0.0,0.0,0.0,0.0,0.0,0.0,0.0,0.0,0.0,0.0,0.0,0.0,0.0,0.0,0.0,0.0,0.0,0.0,0.0,0.0,0.0,0.0,0.0,0.0,0.0,0.0,0.0,0.0,0.0,0.0,0.0,0.0,0.0,0.0,0.0,0.0,0.0,0.0,0.0,0.0,0.0,0.0,0.0,0.0,0.0,0.0,0.0,0.0,0.0,0.0,0.0,0.0,0.0,0.0,0.0,0.0,0.0,0.0,0.0,0.0,0.0,0.0,0.0,0.0,0.0,0.0,0.0,0.0,0.0,0.0,0.0,0.0,0.0,0.0,0.0,0.0,0.0,0.0,0.0,0.0,0.0,0.0,0.0,0.0,0.0,0.0,0.0,0.0,0.0,0.0,0.0,0.0,0.0,0.0,0.0,0.0,0.0,0.0,0.0,0.0,0.0,0.0,0.0,0.0,0.0,0.0,0.0,0.0,0.0,0.0,0.0,0.0,0.0,0.0,0.0,0.0,0.0,0.0,0.0,0.0,0.0,0.0,0.0,0.0,0.0,0.0,0.0,0.0,0.0,0.0,0.0,0.0,0.0,0.0,0.0,0.0,0.0,0.0,0.0,0.0,0.0,0.0,0.0,0.0,0.0,0.0,0.0,0.0,0.0,0.0,0.0,0.0,0.0,0.0,0.0,0.0,0.0,0.0,0.0,0.0,0.0,0.0,0.0,0.0,0.0,0.0,0.0,0.0,0.0,0.0,0.0,0.0,0.0,0.0,0.0,0.0,0.0,0.0,0.0,0.0,0.0,0.0,0.0,0.0,0.0,0.0,0.0,0.0,0.0,0.0,0.0,0.0,0.0,0.0,0.0,0.0,0.0,0.0,0.0,0.0,0.0,0.0,0.0,0.0,0.0,0.0,0.0,0.0,0.0,0.0,0.0,0.0,0.0,0.0,0.0,0.0,0.0,0.0,0.0,0.0,0.0,0.0,0.0,0.0,0.0,0.0,0.0,0.0,0.0,0.0,0.0,0.0,0.0,0.0,0.0,0.0,0.0,0.0,0.0,0.0,0.0,0.0,0.0,0.0,0.0,0.0,0.0,0.0,0.0,0.0,0.0,0.0,0.0,0.0,0.0,0.0,0.0,0.0,0.0,0.0,0.0,0.0,0.0,0.0,0.0,0.0,0.0,0.0,0.0,0.0,0.0,0.0,0.0,0.0,0.0,0.0,0.0,0.0,0.0,0.0,0.0,0.0,0.0,0.0,0.0,0.0,0.0,0.0,0.0,0.0,0.0,0.0,0.0,0.0,0.0,0.0,0.0,0.0,0.0,0.0,0.0,0.0,0.0,0.0,0.0,0.0,0.0,0.0,0.0,0.0,0.0,0.0,0.0,0.0,0.0,0.0,0.0,0.0,0.0,0.0,0.0,0.0,0.0,0.0,0.0,0.0,0.0,0.0,0.0,0.0,0.0,0.0,0.0,0.0,0.0,0.0,0.0,0.0,0.0,0.0,0.0,0.0,0.0,0.0,0.0,0.0,0.0,0.0,0.0,0.0,0.0,0.0,0.0,0.0,0.0,0.0,0.0,0.0,0.0,0.0,0.0,0.0,0.0,0.0,0.0,0.0,0.0,0.0,0.0,0.0,0.0,0.0,0.0,0.0,0.0,0.0,0.0,0.0,0.0,0.0,0.0,0.0,0.0,0.0,0.0,0.0,0.0,0.0,0.0,0.0,0.0,0.0,0.0,0.0,0.0,0.0,0.0,0.0,0.0,0.0,0.0,0.0,0.0,0.0,0.0,0.0,0.0,0.0,0.0,0.0,0.0,0.0,0.0,0.0,0.0,0.0,0.0,0.0,0.0,0.0,0.0,0.0,0.0,0.0,0.0,0.0,0.0,0.0,0.0,0.0,0.0,0.0,0.0,0.0,0.0,0.0,0.0,0.0,0.0,0.0,0.0,0.0,0.0,0.0,0.0,0.0,0.0,0.0,0.0,0.0,0.0,0.0,0.0,0.0,0.0,0.0,0.0,0.0,0.0,0.0,0.0,0.0,0.0,0.0,0.0,0.0,0.0,0.0,-0.8861,0.0,0.0,0.0,0.0,0.0,0.0,0.0,0.0,0.0,0.0,0.0,0.0,0.0,0.0,0.0,0.0,0.0,0.0,0.0,0.0,0.0,0.0,0.0,0.0,0.0,0.0,0.0,0.0,0.0,0.0,0.0,0.0,0.0,0.0,0.0,0.0,0.0,0.0,0.0,0.0,0.0,0.0,0.0,0.0,0.0,0.0,0.0,0.0,0.0,0.0,0.0,0.0,0.0,0.0,0.0,0.0,0.0,0.0,0.0,0.0,0.0,0.0,0.0,0.0,0.0,0.0,0.0,0.0,0.0,0.0,0.0,0.0,0.0,0.0,0.0,0.0,0.0,0.0,0.0,0.0,0.0,0.0,0.0,0.0,0.0,0.0,0.0,0.0,0.0,0.0,0.0,0.0,0.0,0.0,0.0,0.0,0.0,0.0,0.0,0.0,0.0,0.0,0.0,0.0,0.0,0.0,0.0,0.0,0.0,0.0,-1.0194,-1.0194,-1.0194,-0.9994,-0.9579,0.0,0.0,0.0,0.0,0.0,0.0,0.0,0.0,0.0,0.0,0.0,0.0,0.0,0.0,0.0,0.0,0.0,0.0,0.0,0.0,0.0,0.0,0.0,0.0,0.0,0.0,0.0,0.0,0.0,0.0,0.0,0.0,0.0,0.0,0.0,0.0,0.0,0.0,0.0,0.0,0.0,0.0,0.0,0.0,0.0,0.0,0.0,0.0,0.0,0.0,0.0,0.0,0.0,0.0,0.0,0.0,0.0,0.0,0.0,0.0,0.0,0.0,0.0,0.0,0.0,0.0,0.0,0.0,0.0,0.0,0.0,0.0,0.0,0.0,0.0,0.0,0.0,0.0,0.0,0.0,0.0,0.0,0.0,0.0,0.0,0.0,0.0,0.0,0.0,0.0,0.0,0.0,0.0,0.0,0.0,0.0,0.0,0.0,0.0,0.0,0.0,0.0,0.0,0.0,0.0,0.0,0.0,0.0,0.0,0.0,0.0,0.0,-1.0198,-1.0194,-1.0194,0.0,0.0,0.0,0.0,0.0,0.0,0.0,0.0,0.0,0.0,0.0,0.0,0.0,0.0,0.0,0.0,0.0,0.0,0.0,0.0,0.0,0.0,0.0,0.0,0.0,0.0,0.0,0.0,0.0,0.0,0.0,0.0,0.0,0.0,0.0,0.0,0.0,0.0,0.0,0.0,0.0,0.0,0.0,0.0,0.0,0.0,0.0,0.0,0.0,0.0,0.0,0.0,0.0,0.0,0.0,0.0,0.0,0.0,0.0,0.0,0.0,0.0,0.0,0.0,0.0,0.0,0.0,0.0,0.0,0.0,0.0,0.0,0.0,0.0,0.0,0.0,0.0,0.0,0.0,0.0,0.0,0.0,0.0,0.0,0.0,0.0,0.0,0.0,0.0,0.0,0.0,0.0,0.0,0.0,0.0,0.0,0.0,0.0,0.0,0.0,0.0,0.0,0.0,0.0,0.0,0.0,0.0,0.0,0.0,0.0,-1.0272,-1.0194,-1.02,0.0,-1.0194,0.0,0.0,0.0,0.0,0.0,0.0,0.0,0.0,0.0,0.0,0.0,0.0,0.0,0.0,0.0,0.0,0.0,0.0,0.0,0.0,0.0,0.0,0.0,0.0,0.0,0.0,0.0,0.0,0.0,0.0,0.0,0.0,0.0,0.0,0.0,0.0,0.0,0.0,0.0,0.0,0.0,0.0,0.0,0.0,0.0,0.0,0.0,0.0,0.0,0.0,0.0,0.0,0.0,0.0,0.0,0.0,0.0,0.0,0.0,0.0,0.0,0.0,0.0,0.0,0.0,0.0,0.0,0.0,0.0,0.0,0.0,0.0,0.0,0.0,0.0,0.0,0.0,0.0,0.0,0.0,0.0,0.0,0.0,0.0,0.0,0.0,0.0,0.0,0.0,0.0,0.0,0.0,0.0,0.0,0.0,0.0,0.0,0.0,0.0,0.0,0.0,0.0,0.0,0.0,0.0,0.0,0.0,0.0,0.0,0.0,-1.0273,-1.0195,-1.0184,-0.9941,0.0,0.0,0.0,0.0,0.0,0.0,0.0,0.0,0.0,0.0,0.0,0.0,0.0,0.0,0.0,0.0,0.0,0.0,0.0,0.0,0.0,0.0,0.0,0.0,0.0,0.0,0.0,0.0,0.0,0.0,0.0,0.0,0.0,0.0,0.0,0.0,0.0,0.0,0.0,0.0,0.0,0.0,0.0,0.0,0.0,0.0,0.0,0.0,0.0,0.0,0.0,0.0,0.0,0.0,0.0,0.0,0.0,0.0,0.0,0.0,0.0,0.0,0.0,0.0,0.0,0.0,0.0,0.0,0.0,0.0,0.0,0.0,0.0,0.0,0.0,0.0,0.0,0.0,0.0,0.0,0.0,0.0,0.0,0.0,0.0,0.0,0.0,0.0,0.0,0.0,0.0,0.0,0.0,0.0,0.0,0.0,0.0,0.0,0.0,0.0,0.0,0.0,0.0,0.0,0.0,0.0,0.0,0.0,0.0,0.0,-1.025,-1.0248,-1.0195,-1.0195,-0.9802,-0.8942,0.0,0.0,0.0,0.0,0.0,0.0,0.0,0.0,0.0,0.0,0.0,0.0,0.0,0.0,0.0,0.0,0.0,0.0,0.0,0.0,0.0,0.0,0.0,0.0,0.0,0.0,0.0,0.0,0.0,0.0,0.0,0.0,0.0,0.0,0.0,0.0,0.0,0.0,0.0,0.0,0.0,0.0,0.0,0.0,0.0,0.0,0.0,0.0,0.0,0.0,0.0,0.0,0.0,0.0,0.0,0.0,0.0,0.0,0.0,0.0,0.0,0.0,0.0,0.0,0.0,0.0,0.0,0.0,0.0,0.0,0.0,0.0,0.0,0.0,0.0,0.0,0.0,0.0,0.0,0.0,0.0,0.0,0.0,0.0,0.0,0.0,0.0,0.0,0.0,0.0,0.0,0.0,0.0,0.0,0.0,0.0,0.0,0.0,0.0,0.0,0.0,0.0,0.0,0.0,0.0,0.0,0.0,0.0,0.0,-1.0187,-1.0207,-1.0195,-1.0195,-0.9805,0.0,0.0,0.0,0.0,0.0,0.0,0.0,0.0,0.0,0.0,0.0,0.0,0.0,0.0,0.0,0.0,0.0,0.0,0.0,0.0,0.0,0.0,0.0,0.0,0.0,0.0,0.0,0.0,0.0,0.0,0.0,0.0,0.0,0.0,0.0,0.0,0.0,0.0,0.0,0.0,0.0,0.0,0.0,0.0,0.0,0.0,0.0,0.0,0.0,0.0,0.0,0.0,0.0,0.0,0.0,0.0,0.0,0.0,0.0,0.0,0.0,0.0,0.0,0.0,0.0,0.0,0.0,0.0,0.0,0.0,0.0,0.0,0.0,0.0,0.0,0.0,0.0,0.0,0.0,0.0,0.0,0.0,0.0,0.0,0.0,0.0,0.0,0.0,0.0,0.0,0.0,0.0,0.0,0.0,0.0,0.0,0.0,0.0,0.0,0.0,0.0,0.0,0.0,0.0,0.0,0.0,0.0,0.0,0.0,-1.0198,-1.0194,-1.0189,-1.019,-0.9698,-0.9043,0.0,0.0,0.0,0.0,0.0,0.0,0.0,0.0,0.0,0.0,0.0,0.0,0.0,0.0,0.0,0.0,0.0,0.0,0.0,0.0,0.0,0.0,0.0,0.0,0.0,0.0,0.0,0.0,0.0,0.0,0.0,0.0,0.0,0.0,0.0,0.0,0.0,0.0,0.0,0.0,0.0,0.0,0.0,0.0,0.0,0.0,0.0,0.0,0.0,0.0,0.0,0.0,0.0,0.0,0.0,0.0,0.0,0.0,0.0,0.0,0.0,0.0,0.0,0.0,0.0,0.0,0.0,0.0,0.0,0.0,0.0,0.0,0.0,0.0,0.0,0.0,0.0,0.0,0.0,0.0,0.0,0.0,0.0,0.0,0.0,0.0,0.0,0.0,0.0,0.0,0.0,0.0,0.0,0.0,0.0,0.0,0.0,0.0,0.0,0.0,0.0,0.0,0.0,0.0,0.0,0.0,0.0,0.0,0.0,-1.0156,0.0,-1.0175,0.0,-0.939,-0.8566,0.0,0.0,0.0,0.0,0.0,0.0,0.0,0.0,0.0,0.0,0.0,0.0,0.0,0.0,0.0,0.0,0.0,0.0,0.0,0.0,0.0,0.0,0.0,0.0,0.0,0.0,0.0,0.0,0.0,0.0,0.0,0.0,0.0,0.0,0.0,0.0,0.0,0.0,0.0,0.0,0.0,0.0,0.0,0.0,0.0,0.0,0.0,0.0,0.0,0.0,0.0,0.0,0.0,0.0,0.0,0.0,0.0,0.0,0.0,0.0,0.0,0.0,0.0,0.0,0.0,0.0,0.0,0.0,0.0,0.0,0.0,0.0,0.0,0.0,0.0,0.0,0.0,0.0,0.0,0.0,0.0,0.0,0.0,0.0,0.0,0.0,0.0,0.0,0.0,0.0,0.0,0.0,0.0,0.0,0.0,0.0,0.0,0.0,0.0,0.0,0.0,0.0,0.0,0.0,0.0,0.0,0.0,0.0,-1.0194,-1.0113,-1.0133,-1.0194,-1.0194,-0.9379,-0.8547,0.0,0.0,0.0,0.0,0.0,0.0,0.0,0.0,0.0,0.0,0.0,0.0,0.0,0.0,0.0,0.0,0.0,0.0,0.0,0.0,0.0,0.0,0.0,0.0,0.0,0.0,0.0,0.0,0.0,0.0,0.0,0.0,0.0,0.0,0.0,0.0,0.0,0.0,0.0,0.0,0.0,0.0,0.0,0.0,0.0,0.0,0.0,0.0,0.0,0.0,0.0,0.0,0.0,0.0,0.0,0.0,0.0,0.0,0.0,0.0,0.0,0.0,0.0,0.0,0.0,0.0,0.0,0.0,0.0,0.0,0.0,0.0,0.0,0.0,0.0,0.0,0.0,0.0,0.0,0.0,0.0,0.0,0.0,0.0,0.0,0.0,0.0,0.0,0.0,0.0,0.0,0.0,0.0,0.0,0.0,0.0,0.0,0.0,0.0,0.0,0.0,0.0,0.0,0.0,0.0,0.0,0.0,0.0,0.0,-1.0133,-1.073,-1.1038,-1.0983,-0.9648,-0.9063,0.0,0.0,0.0,0.0,0.0,0.0,0.0,0.0,0.0,0.0,0.0,0.0,0.0,0.0,0.0,0.0,0.0,0.0,0.0,0.0,0.0,0.0,0.0,0.0,0.0,0.0,0.0,0.0,0.0,0.0,0.0,0.0,0.0,0.0,0.0,0.0,0.0,0.0,0.0,0.0,0.0,0.0,0.0,0.0,0.0,0.0,0.0,0.0,0.0,0.0,0.0,0.0,0.0,0.0,0.0,0.0,0.0,0.0,0.0,0.0,0.0,0.0,0.0,0.0,0.0,0.0,0.0,0.0,0.0,0.0,0.0,0.0,0.0,0.0,0.0,0.0,0.0,0.0,0.0,0.0,0.0,0.0,0.0,0.0,0.0,0.0,0.0,0.0,0.0,0.0,0.0,0.0,0.0,0.0,0.0,0.0,0.0,0.0,0.0,0.0,0.0,0.0,0.0,0.0,0.0,0.0,0.0,0.0,0.0,-1.1118,-1.1671,-1.1826,-1.1453,-1.0113,-0.9475,-0.967,0.0,0.0,0.0,0.0,0.0,0.0,0.0,0.0,0.0,0.0,0.0,0.0,0.0,0.0,0.0,0.0,0.0,0.0,0.0,0.0,0.0,0.0,0.0,0.0,0.0,0.0,0.0,0.0,0.0,0.0,0.0,0.0,0.0,0.0,0.0,0.0,0.0,0.0,0.0,0.0,0.0,0.0,0.0,0.0,0.0,0.0,0.0,0.0,0.0,0.0,0.0,0.0,0.0,0.0,0.0,0.0,0.0,0.0,0.0,0.0,0.0,0.0,0.0,0.0,0.0,0.0,0.0,0.0,0.0,0.0,0.0,0.0,0.0,0.0,0.0,0.0,0.0,0.0,0.0,0.0,0.0,0.0,0.0,0.0,0.0,0.0,0.0,0.0,0.0,0.0,0.0,0.0,0.0,0.0,0.0,0.0,0.0,0.0,0.0,0.0,0.0,0.0,0.0,0.0,0.0,0.0,0.0,0.0,-1.2757,-1.2968,-1.2668,-1.1786,-1.0799,-0.9914,0.0,0.0,0.0,0.0,0.0,0.0,0.0,0.0,0.0,0.0,0.0,0.0,0.0,0.0,0.0,0.0,0.0,0.0,0.0,0.0,0.0,0.0,0.0,0.0,0.0,0.0,0.0,0.0,0.0,0.0,0.0,0.0,0.0,0.0,0.0,0.0,0.0,0.0,0.0,0.0,0.0,0.0,0.0,0.0,0.0,0.0,0.0,0.0,0.0,0.0,0.0,0.0,0.0,0.0,0.0,0.0,0.0,0.0,0.0,0.0,0.0,0.0,0.0,0.0,0.0,0.0,0.0,0.0,0.0,0.0,0.0,0.0,0.0,0.0,0.0,0.0,0.0,0.0,0.0,0.0,0.0,0.0,0.0,0.0,0.0,0.0,0.0,0.0,0.0,0.0,0.0,0.0,0.0,0.0,0.0,0.0,0.0,0.0,0.0,0.0,0.0,0.0,0.0,0.0,0.0,0.0,0.0,0.0,0.0,-1.3725,-1.5504,-1.5798,-1.4338,-1.2214,-1.1297,0.0,0.0,0.0,0.0,0.0,0.0,0.0,0.0,0.0,0.0,0.0,0.0,0.0,0.0,0.0,0.0,0.0,0.0,0.0,0.0,0.0,0.0,0.0,0.0,0.0,0.0,0.0,0.0,0.0,0.0,0.0,0.0,0.0,0.0,0.0,0.0,0.0,0.0,0.0,0.0,0.0,0.0,0.0,0.0,0.0,0.0,0.0,0.0,0.0,0.0,0.0,0.0,0.0,0.0,0.0,0.0,0.0,0.0,0.0,0.0,0.0,0.0,0.0,0.0,0.0,0.0,0.0,0.0,0.0,0.0,0.0,0.0,0.0,0.0,0.0,0.0,0.0,0.0,0.0,0.0,0.0,0.0,0.0,0.0,0.0,0.0,0.0,0.0,0.0,0.0,0.0,0.0,0.0,0.0,0.0,0.0,0.0,0.0,0.0,0.0,0.0,0.0,0.0,0.0,0.0,0.0,0.0,0.0,-1.4305,-1.5037,-1.6809,-1.7488,-1.6932,-1.4736,-1.3079,0.0,0.0,0.0,0.0,0.0,0.0,0.0,0.0,0.0,0.0,0.0,0.0,0.0,0.0,0.0,0.0,0.0,0.0,0.0,0.0,0.0,0.0,0.0,0.0,0.0,0.0,0.0,0.0,0.0,0.0,0.0,0.0,0.0,0.0,0.0,0.0,0.0,0.0,0.0,0.0,0.0,0.0,0.0,0.0,0.0,0.0,0.0,0.0,0.0,0.0,0.0,0.0,0.0,0.0,0.0,0.0,0.0,0.0,0.0,0.0,0.0,0.0,0.0,0.0,0.0,0.0,0.0,0.0,0.0,0.0,0.0,0.0,0.0,0.0,0.0,0.0,0.0,0.0,0.0,0.0,0.0,0.0,0.0,0.0,0.0,0.0,0.0,0.0,0.0,0.0,0.0,0.0,0.0,0.0,0.0,0.0,0.0,0.0,0.0,0.0,0.0,0.0,0.0,0.0,0.0,0.0,0.0,0.0,-1.4959,-1.658,-1.7503,-1.8323,-1.9004,-1.7322,-1.4907,0.0,0.0,0.0,0.0,0.0,0.0,0.0,0.0,0.0,0.0,0.0,0.0,0.0,0.0,0.0,0.0,0.0,0.0,0.0,0.0,0.0,0.0,0.0,0.0,0.0,0.0,0.0,0.0,0.0,0.0,0.0,0.0,0.0,0.0,0.0,0.0,0.0,0.0,0.0,0.0,0.0,0.0,0.0,0.0,0.0,0.0,0.0,0.0,0.0,0.0,0.0,0.0,0.0,0.0,0.0,0.0,0.0,0.0,0.0,0.0,0.0,0.0,0.0,0.0,0.0,0.0,0.0,0.0,0.0,0.0,0.0,0.0,0.0,0.0,0.0,0.0,0.0,0.0,0.0,0.0,0.0,0.0,0.0,0.0,0.0,0.0,0.0,0.0,0.0,0.0,0.0,0.0,0.0,0.0,0.0,0.0,0.0,0.0,0.0,0.0,0.0,0.0,0.0,0.0,0.0,0.0,0.0,0.0,-1.6426,-1.7426,-1.8946,-1.9508,-1.9035,-1.6714,-1.4837,0.0,0.0,0.0,0.0,0.0,0.0,0.0,0.0,0.0,0.0,0.0,0.0,0.0,0.0,0.0,0.0,0.0,0.0,0.0,0.0,0.0,0.0,0.0,0.0,0.0,0.0,0.0,0.0,0.0,0.0,0.0,0.0,0.0,0.0,0.0,0.0,0.0,0.0,0.0,0.0,0.0,0.0,0.0,0.0,0.0,0.0,0.0,0.0,-0.9847,0.0,0.0,0.0,0.0,0.0,0.0,0.0,0.0,0.0,0.0,0.0,0.0,0.0,0.0,0.0,0.0,0.0,0.0,0.0,0.0,0.0,0.0,0.0,0.0,0.0,0.0,0.0,0.0,0.0,0.0,0.0,0.0,0.0,0.0,0.0,0.0,0.0,0.0,0.0,0.0,0.0,0.0,0.0,0.0,0.0,0.0,0.0,0.0,0.0,0.0,0.0,0.0,0.0,0.0,0.0,0.0,0.0,0.0,0.0,-1.7087,-1.8299,-1.9619,-2.0092,-1.9558,-1.7497,-1.5618,0.0,0.0,0.0,0.0,0.0,0.0,0.0,0.0,0.0,0.0,0.0,0.0,0.0,0.0,0.0,0.0,0.0,0.0,0.0,0.0,0.0,0.0,0.0,0.0,0.0,0.0,0.0,0.0,0.0,0.0,0.0,0.0,0.0,0.0,0.0,0.0,0.0,0.0,0.0,0.0,0.0,0.0,0.0,0.0,0.0,0.0,0.0,0.0,0.0,0.0,0.0,0.0,0.0,0.0,0.0,0.0,0.0,0.0,0.0,0.0,0.0,0.0,0.0,0.0,0.0,0.0,0.0,0.0,0.0,0.0,0.0,0.0,0.0,0.0,0.0,0.0,0.0,0.0,0.0,0.0,0.0,0.0,0.0,0.0,0.0,0.0,0.0,0.0,0.0,0.0,0.0,0.0,0.0,0.0,0.0,0.0,0.0,0.0,0.0,0.0,0.0,0.0,0.0,0.0,0.0,0.0,0.0,-1.5709,-1.7388,-1.9126,-1.9927,-2.0292,-2.0273,-1.8593,-1.6573,-1.4222,0.0,0.0,0.0,0.0,0.0,0.0,0.0,0.0,0.0,0.0,0.0,0.0,0.0,0.0,0.0,0.0,0.0,0.0,0.0,0.0,0.0,0.0,0.0,0.0,0.0,0.0,0.0,0.0,0.0,0.0,0.0,0.0,0.0,0.0,0.0,0.0,0.0,0.0,-0.8487,-0.9716,0.0,0.0,0.0,0.0,0.0,0.0,0.0,0.0,-0.9731,0.0,0.0,0.0,0.0,0.0,0.0,0.0,0.0,0.0,0.0,0.0,0.0,0.0,0.0,0.0,0.0,0.0,0.0,0.0,0.0,0.0,0.0,0.0,0.0,0.0,0.0,0.0,0.0,0.0,0.0,0.0,0.0,0.0,0.0,0.0,0.0,0.0,0.0,0.0,0.0,0.0,0.0,0.0,0.0,0.0,0.0,0.0,0.0,0.0,0.0,0.0,0.0,0.0,0.0,0.0,0.0,-1.5828,-1.6304,-1.7657,-2.0023,-2.0235,-2.0292,-2.0246,-1.8597,-1.6856,-1.5048,0.0,0.0,0.0,0.0,0.0,0.0,0.0,0.0,0.0,0.0,0.0,0.0,0.0,0.0,0.0,0.0,0.0,0.0,0.0,0.0,0.0,0.0,0.0,0.0,0.0,0.0,0.0,0.0,0.0,0.0,0.0,0.0,0.0,0.0,0.0,0.0,0.0,0.0,0.0,-1.0973,-1.1531,0.0,0.0,0.0,0.0,0.0,0.0,0.0,0.0,-1.0295,0.0,0.0,0.0,0.0,0.0,0.0,0.0,0.0,0.0,0.0,0.0,0.0,0.0,0.0,0.0,0.0,0.0,0.0,0.0,0.0,0.0,0.0,0.0,0.0,0.0,0.0,0.0,0.0,0.0,0.0,0.0,0.0,0.0,0.0,0.0,0.0,0.0,0.0,0.0,0.0,0.0,0.0,0.0,0.0,0.0,0.0,0.0,0.0,0.0,0.0,0.0,0.0,0.0,0.0,0.0,-1.5579,-1.6631,-1.8157,-2.0215,-2.0292,-2.0292,-2.0246,-1.8217,-1.6497,0.0,0.0,0.0,0.0,0.0,0.0,0.0,0.0,0.0,0.0,0.0,0.0,0.0,0.0,0.0,0.0,0.0,0.0,0.0,0.0,0.0,0.0,0.0,0.0,0.0,0.0,0.0,0.0,0.0,0.0,0.0,0.0,0.0,0.0,0.0,0.0,0.0,0.0,0.0,0.0,-1.161,-1.1971,-1.247,0.0,0.0,0.0,0.0,0.0,0.0,-1.1308,-1.0672,0.0,0.0,0.0,0.0,0.0,0.0,0.0,0.0,0.0,0.0,0.0,0.0,0.0,0.0,0.0,0.0,0.0,0.0,0.0,0.0,0.0,0.0,0.0,0.0,0.0,0.0,0.0,0.0,0.0,0.0,0.0,0.0,0.0,0.0,0.0,0.0,0.0,0.0,0.0,0.0,0.0,0.0,0.0,0.0,0.0,0.0,0.0,0.0,0.0,0.0,0.0,0.0,0.0,0.0,0.0,-1.5075,-1.6657,-1.8369,-2.0196,-2.0292,-2.0292,-2.0246,-1.7972,-1.6253,0.0,0.0,0.0,0.0,0.0,0.0,0.0,0.0,0.0,0.0,0.0,0.0,0.0,0.0,0.0,0.0,0.0,0.0,0.0,0.0,0.0,0.0,0.0,0.0,0.0,0.0,0.0,0.0,0.0,0.0,0.0,0.0,0.0,0.0,0.0,0.0,0.0,0.0,0.0,0.0,0.0,-1.2862,-1.3513,-1.3316,0.0,0.0,0.0,0.0,-1.346,-1.2453,0.0,0.0,0.0,0.0,0.0,0.0,0.0,0.0,0.0,0.0,0.0,0.0,0.0,0.0,0.0,0.0,0.0,0.0,0.0,0.0,0.0,0.0,0.0,0.0,0.0,0.0,0.0,0.0,0.0,0.0,0.0,0.0,0.0,0.0,0.0,0.0,0.0,0.0,0.0,0.0,0.0,0.0,0.0,0.0,0.0,0.0,0.0,0.0,0.0,0.0,0.0,0.0,0.0,0.0,0.0,0.0,-1.5017,-1.6112,-1.7811,-2.015,-2.0292,-2.0292,-2.0265,-1.852,-1.6817,0.0,0.0,0.0,0.0,0.0,0.0,0.0,0.0,0.0,0.0,0.0,0.0,0.0,0.0,0.0,0.0,0.0,0.0,0.0,0.0,0.0,0.0,0.0,0.0,0.0,0.0,0.0,0.0,0.0,0.0,0.0,0.0,0.0,0.0,0.0,0.0,0.0,0.0,0.0,0.0,0.0,-1.5093,-1.5356,-1.4672,-1.438,0.0,0.0,-1.4313,-1.5264,-1.5239,0.0,0.0,0.0,0.0,0.0,0.0,0.0,0.0,0.0,0.0,0.0,0.0,0.0,0.0,0.0,0.0,0.0,0.0,0.0,0.0,0.0,0.0,0.0,0.0,0.0,0.0,0.0,0.0,0.0,0.0,0.0,0.0,0.0,0.0,0.0,0.0,0.0,0.0,0.0,0.0,0.0,0.0,0.0,0.0,0.0,0.0,0.0,0.0,0.0,0.0,0.0,0.0,0.0,0.0,0.0,-1.3028,-1.512,-1.6478,-1.8196,-2.0215,-2.0292,-2.0292,-2.0285,-1.816,-1.6451,0.0,0.0,0.0,0.0,0.0,0.0,0.0,0.0,0.0,0.0,0.0,0.0,0.0,0.0,0.0,0.0,0.0,0.0,0.0,0.0,0.0,0.0,0.0,0.0,0.0,0.0,0.0,0.0,0.0,0.0,0.0,0.0,0.0,0.0,0.0,0.0,0.0,0.0,0.0,0.0,0.0,0.0,-1.6392,-1.6021,0.0,0.0,0.0,-1.6638,-1.7151,0.0,0.0,0.0,0.0,0.0,0.0,0.0,0.0,0.0,0.0,0.0,0.0,0.0,0.0,0.0,0.0,0.0,0.0,0.0,0.0,0.0,0.0,0.0,0.0,0.0,0.0,0.0,0.0,0.0,0.0,0.0,0.0,0.0,0.0,0.0,0.0,0.0,0.0,0.0,0.0,0.0,0.0,0.0,0.0,0.0,0.0,0.0,0.0,0.0,0.0,0.0,0.0,0.0,0.0,0.0,0.0,0.0,-1.5195,-1.6849,-1.8542,-2.0235,-2.0292,-2.0292,-2.0246,-1.8026,0.0,0.0,0.0,0.0,0.0,0.0,0.0,0.0,0.0,0.0,0.0,0.0,0.0,0.0,0.0,0.0,0.0,0.0,0.0,0.0,0.0,0.0,0.0,0.0,0.0,0.0,0.0,-0.6137,0.0,0.0,0.0,0.0,0.0,0.0,0.0,0.0,0.0,0.0,0.0,0.0,0.0,0.0,-1.6016,-1.7648,-1.7794,-1.8116,0.0,0.0,-1.8983,-1.9326,-1.8877,-1.777,0.0,0.0,0.0,0.0,0.0,0.0,0.0,0.0,0.0,0.0,0.0,0.0,0.0,0.0,0.0,0.0,0.0,0.0,0.0,0.0,0.0,0.0,0.0,0.0,0.0,0.0,0.0,0.0,0.0,0.0,0.0,0.0,0.0,0.0,0.0,0.0,0.0,0.0,0.0,0.0,0.0,0.0,0.0,0.0,0.0,0.0,0.0,0.0,0.0,0.0,0.0,0.0,0.0,0.0,0.0,-1.5176,-1.6849,-1.8561,-2.0208,-2.0292,-2.0292,-2.0265,-1.8578,-1.6854,0.0,0.0,0.0,0.0,0.0,0.0,0.0,0.0,0.0,0.0,0.0,0.0,0.0,0.0,0.0,0.0,0.0,0.0,0.0,0.0,0.0,0.0,0.0,0.0,0.0,0.0,0.0,0.0,0.0,0.0,0.0,0.0,0.0,0.0,0.0,0.0,0.0,0.0,0.0,0.0,0.0,-1.8317,-1.9537,-2.0346,-2.1072,0.0,0.0,-2.1171,-2.1922,-2.199,-2.0876,-1.7738,0.0,0.0,0.0,0.0,0.0,0.0,0.0,0.0,0.0,0.0,0.0,0.0,0.0,0.0,0.0,0.0,0.0,0.0,0.0,0.0,0.0,0.0,0.0,0.0,0.0,0.0,0.0,0.0,0.0,0.0,0.0,0.0,0.0,0.0,0.0,0.0,0.0,0.0,0.0,0.0,0.0,0.0,0.0,0.0,0.0,0.0,0.0,0.0,0.0,0.0,0.0,0.0,0.0,-1.4033,-1.5262,-1.742,-1.9146,-2.0292,-2.035,-2.0369,-2.035,-1.9196,-1.7752,0.0,0.0,0.0,0.0,0.0,0.0,0.0,0.0,0.0,0.0,0.0,0.0,0.0,0.0,0.0,0.0,0.0,0.0,0.0,0.0,0.0,0.0,0.0,0.0,0.0,0.0,0.0,0.0,-0.8572,-0.8888,-0.9376,0.0,0.0,0.0,0.0,0.0,0.0,0.0,0.0,0.0,0.0,-1.9797,-2.135,-2.1722,0.0,0.0,-2.297,-2.2867,-2.3175,-2.2814,-2.1712,-1.9421,-1.8278,0.0,0.0,0.0,0.0,0.0,0.0,0.0,0.0,0.0,0.0,0.0,0.0,0.0,0.0,0.0,0.0,0.0,0.0,0.0,0.0,0.0,0.0,0.0,0.0,0.0,0.0,0.0,0.0,0.0,0.0,0.0,0.0,0.0,0.0,0.0,0.0,0.0,0.0,0.0,0.0,0.0,0.0,0.0,0.0,0.0,0.0,0.0,0.0,0.0,0.0,0.0,0.0,-1.4376,-1.5298,-1.7835,-1.9542,-2.0379,-2.0379,-2.039,-2.0369,-1.9577,-1.8321,0.0,0.0,0.0,0.0,0.0,0.0,0.0,0.0,0.0,0.0,0.0,0.0,0.0,0.0,0.0,0.0,0.0,0.0,0.0,0.0,0.0,0.0,0.0,0.0,0.0,0.0,0.0,0.0,-0.9213,-0.9375,-0.9938,0.0,0.0,0.0,0.0,0.0,0.0,0.0,0.0,0.0,0.0,-2.1333,-2.289,-2.3179,-2.3457,-2.4178,-2.4258,-2.4249,-2.4247,-2.3792,-2.2863,-2.1215,0.0,0.0,0.0,0.0,0.0,0.0,0.0,0.0,0.0,0.0,0.0,0.0,0.0,0.0,0.0,0.0,0.0,0.0,0.0,0.0,0.0,0.0,0.0,0.0,0.0,0.0,0.0,0.0,0.0,0.0,-0.8874,0.0,0.0,0.0,0.0,0.0,0.0,0.0,0.0,0.0,0.0,0.0,0.0,0.0,0.0,0.0,0.0,0.0,0.0,0.0,0.0,0.0,0.0,-1.4463,-1.5347,-1.796,-1.9627,-2.0406,-2.0406,-2.0448,-2.0412,-1.9642,-1.8413,-1.6667,0.0,0.0,0.0,0.0,0.0,0.0,0.0,0.0,0.0,0.0,0.0,0.0,0.0,0.0,0.0,0.0,0.0,0.0,0.0,0.0,0.0,0.0,0.0,0.0,0.0,0.0,-1.0144,-1.0156,-1.016,0.0,0.0,0.0,0.0,0.0,0.0,0.0,0.0,0.0,0.0,-2.1178,-2.3111,-2.4128,-2.487,-2.5264,-2.5322,-2.5284,-2.5264,-2.5245,-2.5284,-2.4774,0.0,0.0,0.0,0.0,0.0,0.0,0.0,0.0,0.0,0.0,0.0,0.0,0.0,0.0,0.0,0.0,0.0,0.0,0.0,0.0,0.0,0.0,0.0,0.0,0.0,0.0,0.0,-1.1879,-1.1439,0.0,0.0,0.0,0.0,0.0,0.0,0.0,0.0,0.0,0.0,0.0,-1.6696,-1.7091,0.0,0.0,0.0,0.0,0.0,0.0,0.0,0.0,0.0,0.0,0.0,0.0,-1.5597,-1.7064,-1.959,-2.1342,-2.2159,-2.2198,-2.1938,-2.1391,-2.1079,-1.9846,-1.7535,0.0,0.0,0.0,0.0,0.0,0.0,0.0,0.0,0.0,0.0,0.0,0.0,0.0,0.0,0.0,0.0,0.0,0.0,0.0,0.0,0.0,0.0,0.0,0.0,0.0,-1.0186,0.0,0.0,0.0,0.0,0.0,0.0,0.0,0.0,0.0,0.0,0.0,-1.9117,-2.1389,-2.2926,-2.4109,-2.4981,-2.5305,-2.5464,0.0,0.0,0.0,0.0,0.0,0.0,0.0,0.0,0.0,0.0,0.0,0.0,0.0,0.0,-2.1207,-1.8373,-1.8632,-1.891,-1.7631,0.0,0.0,0.0,0.0,0.0,0.0,0.0,0.0,0.0,0.0,0.0,0.0,0.0,0.0,-1.4217,0.0,-1.372,0.0,0.0,0.0,0.0,0.0,0.0,0.0,0.0,-1.7929,-1.9042,-1.9412,-1.9857,-1.9897,0.0,-1.8835,-1.6941,0.0,0.0,0.0,0.0,0.0,0.0,0.0,0.0,-1.6917,-1.8432,-2.0923,-2.2523,-2.3066,-2.3125,-2.2891,-2.2363,-2.2012,-2.0762,-1.8457,-1.7003,-1.5303,0.0,0.0,0.0,0.0,0.0,0.0,0.0,0.0,0.0,0.0,0.0,0.0,0.0,0.0,0.0,0.0,0.0,0.0,0.0,0.0,0.0,0.0,0.0,-1.0688,0.0,0.0,0.0,0.0,0.0,0.0,0.0,0.0,0.0,-1.985,-2.0344,-2.1279,-2.3242,-2.4228,-2.4968,-2.5489,0.0,0.0,0.0,0.0,0.0,0.0,0.0,-2.5658,-2.5647,-2.5215,-2.4757,-2.4444,-2.5089,-2.5372,-2.451,0.0,0.0,-2.1262,-2.0995,-2.1094,-2.0251,-2.0078,-2.0154,-2.0458,-2.0484,-2.0701,0.0,0.0,0.0,0.0,0.0,0.0,0.0,0.0,-1.5911,-1.5998,0.0,-1.5839,0.0,0.0,0.0,0.0,0.0,-1.758,0.0,0.0,-2.1214,-2.1928,-2.135,-2.2223,-2.2236,-2.151,-2.2336,-2.1534,-1.9193,-1.6708,0.0,0.0,0.0,0.0,0.0,0.0,-1.842,-1.9488,-2.1884,-2.3164,-2.3223,-2.3281,-2.3281,-2.3223,-2.2402,-2.1172,-1.9512,-1.8574,-1.6894,-1.4394,-1.2608,0.0,0.0,0.0,0.0,0.0,0.0,0.0,0.0,0.0,0.0,0.0,0.0,0.0,0.0,0.0,0.0,0.0,0.0,0.0,0.0,-1.1562,0.0,0.0,0.0,0.0,0.0,0.0,0.0,0.0,0.0,0.0,-2.2246,-2.2783,-2.3454,-2.4315,0.0,0.0,0.0,0.0,-2.5996,-2.6816,-2.6891,-2.7141,-2.7944,-2.8119,-2.8144,-2.8153,0.0,0.0,-2.7148,-2.7654,-2.7842,-2.7086,-2.7473,-2.7547,-2.5749,-2.419,-2.3466,-2.4054,-2.3077,-2.2304,-2.2955,-2.3242,-2.343,-1.9461,0.0,0.0,0.0,0.0,-1.7968,-1.8914,-2.0806,-2.0047,-1.9556,-1.9264,-1.9056,0.0,0.0,0.0,0.0,0.0,0.0,-2.0196,-2.154,-2.2795,-2.3629,-2.4109,-2.4427,-2.4456,-2.4226,-2.3986,-2.3515,-2.2784,-2.1498,-1.8847,-1.5043,0.0,0.0,0.0,0.0,-1.991,-2.1949,-2.3345,-2.4336,-2.4961,-2.498,-2.4687,-2.4062,-2.3223,-2.2519,-2.2012,-2.0625,-1.9238,-1.7832,-1.5543,0.0,0.0,0.0,0.0,0.0,0.0,0.0,0.0,0.0,0.0,0.0,0.0,0.0,0.0,0.0,0.0,0.0,0.0,0.0,-1.1494,-1.16,-1.2324,0.0,0.0,0.0,0.0,0.0,0.0,0.0,0.0,0.0,-2.4531,-2.4274,-2.4348,0.0,0.0,-2.6621,-2.6621,-2.7148,-2.7617,-2.7851,-2.785,0.0,-2.8138,-2.8147,-2.8138,-2.8138,-2.8151,-2.808,-2.7823,-2.7934,-2.798,-2.772,-2.783,-2.7652,-2.6814,-2.6659,-2.6678,-2.689,-2.6572,-2.6341,-2.6572,-2.6602,-2.6603,-2.2307,-2.088,-2.0019,-2.0241,-2.104,-2.055,-2.142,-2.3173,-2.2428,-2.2027,-2.188,-2.1643,-2.0481,-1.8676,-1.8652,0.0,0.0,0.0,-2.2255,-2.3668,-2.4204,-2.4743,-2.5322,-2.539,-2.5437,-2.5426,-2.5,-2.4789,-2.4793,-2.434,-2.2208,-1.8613,0.0,0.0,-1.8716,-2.009,-2.1729,-2.3559,-2.4467,-2.5176,-2.5684,-2.5703,-2.543,-2.4941,-2.4394,-2.3965,-2.3613,-2.2637,-2.1562,-2.0371,-1.8164,-1.5547,0.0,0.0,0.0,0.0,0.0,0.0,0.0,0.0,0.0,0.0,0.0,-1.0742,-1.0566,0.0,0.0,0.0,-1.2051,-1.2676,-1.3555,-1.4238,0.0,0.0,0.0,0.0,0.0,0.0,0.0,-2.2245,-2.4425,-2.6155,-2.6836,-2.6301,-2.6062,-2.6593,-2.7105,-2.744,-2.744,0.0,-2.834,-2.8652,-2.8664,-2.8762,-2.9098,-2.913,-2.9093,-2.9093,-2.9093,-2.9093,-2.9085,-2.9033,-2.8994,-2.8983,-2.8937,-2.8775,-2.8429,-2.8717,-2.8832,-2.8429,-2.8159,-2.8025,-2.8025,-2.7986,-2.7975,-2.4431,-2.4228,-2.2325,-2.2147,-2.3033,-2.2824,-2.3264,-2.4135,-2.3437,-2.3566,-2.4265,-2.3758,-2.3117,-2.2411,-2.1872,0.0,-2.4121,-2.4121,-2.4615,-2.5505,-2.5524,-2.5495,-2.5515,-2.5515,-2.5506,-2.5512,-2.5513,-2.5556,-2.5599,-2.5592,-2.484,-2.3418,-2.2539,-2.2055,-2.1958,-2.2755,-2.3634,-2.4492,-2.5293,-2.5684,-2.5703,-2.5703,-2.5703,-2.5684,-2.5703,-2.5293,-2.4531,-2.4414,-2.367,-2.2129,-2.0351,-1.8301,-1.5937,0.0,0.0,0.0,0.0,0.0,0.0,0.0,0.0,0.0,0.0,0.0,0.0,0.0,0.0,0.0,-1.4859,0.0,-1.6815,-1.8339,0.0,0.0,0.0,-1.9556,-1.9428,-2.2424,-2.4244,-2.3581,0.0,0.0,-2.8917,-2.8583,-2.8303,-2.8303,-2.8238,-2.8191,-2.8191,-2.8288,-2.856,-2.9305,-2.9402,-2.9668,-3.029,-3.0441,-3.0414,-3.0414,-3.0583,-3.0479,-3.046,-3.0448,-3.0467,-3.039,-3.0429,-3.034,-3.0359,-3.0263,-3.0083,-2.9063,-2.8506,-2.814,-2.8217,-2.8236,-2.8275,-2.6432,-2.6228,-2.5935,-2.5076,-2.3914,-2.3839,-2.3986,-2.419,-2.4153,-2.4592,-2.5332,-2.534,-2.5694,-2.6261,-2.6101,-2.6367,-2.6935,-2.6935,-2.7061,-2.7304,-2.6678,-2.6436,-2.643,-2.5876,-2.5572,-2.5575,-2.5632,-2.5673,-2.5657,-2.5677,-2.5493,-2.5117,-2.4883,-2.414,-2.2941,-2.3682,-2.4527,-2.5391,-2.5586,-2.5703,-2.5703,-2.5703,-2.5703,-2.5703,-2.5703,-2.5583,-2.5309,-2.4687,-2.4109,-2.363,-2.1456,-1.9941,-1.9375,-1.584,0.0,0.0,0.0,0.0,0.0,0.0,0.0,0.0,0.0,-1.4746,-1.3027,0.0,-1.4264,0.0,-1.6048,-1.9027,-1.8566,-1.8912,0.0,0.0,-2.206,-2.2564,-2.387,-2.5313,-2.6392,-2.6862,-2.8155,-2.8961,-2.8864,-2.9471,-2.9906,-2.9848,-2.9374,-2.9002,-2.9021,-2.9601,-3.0055,-3.0258,-3.0258,-3.0285,-3.0498,-3.0487,-3.0487,-3.0448,-3.0467,-3.0448,-3.0467,-3.0436,-3.0417,-3.0417,-3.0398,-3.0398,-3.0417,-3.0398,-3.0321,-3.0052,-2.991,-2.9813,-2.9813,-2.9794,-2.9794,-2.7214,-2.7091,-2.7241,-2.6634,-2.5557,-2.5575,-2.5575,-2.5593,-2.5693,-2.6,-2.643,-2.6629,-2.7077,-2.772,-2.7746,-2.7811,-2.7939,-2.7939,-2.7978,-2.8027,-2.7565,-2.7382,-2.7413,-2.6992,-2.6801,-2.6801,-2.6843,-2.6855,-2.6855,-2.686,-2.6844,-2.6855,-2.6855,-2.6182,-2.4908,-2.4952,-2.5215,-2.5684,-2.5703,-2.5696,-2.5648,-2.5643,-2.5626,-2.5605,-2.5618,-2.5433,-2.5031,-2.4543,-2.4105,-2.3631,-2.1979,-2.0886,-2.0471,-1.7482,-1.5526,0.0,0.0,0.0,0.0,0.0,0.0,0.0,0.0,0.0,0.0,0.0,-1.7726,-1.5715,-1.9812,-2.2258,-2.1447,-2.2072,-2.3277,-2.507,-2.524,-2.5613,-2.6621,-2.7381,-2.8188,-2.9041,-2.9521,-2.9733,-2.9548,-3.004,-3.0602,-3.0929,-3.0629,-3.0232,-2.9944,-3.0533,-3.1083,-3.1102,-3.1371,-3.1429,-3.1102,-3.1314,-3.1256,-3.0602,-3.0737,-3.0871,-3.0506,-3.0725,-3.0871,-3.0533,-3.0994,-3.1391,-3.1064,-3.0968,-3.1064,-3.1391,-3.1218,-3.0852,-3.0475,-3.0398,-3.0398,-2.7698,-2.7642,-2.7695,-2.7687,-2.7706,-2.7687,-2.7544,-2.7324,-2.7339,-2.7407,-2.7551,-2.7835,-2.8049,-2.8222,-2.8238,-2.8269,-2.8315,-2.8338,-2.8366,-2.842,-2.8394,-2.8377,-2.838,-2.8313,-2.8281,-2.8281,-2.8281,-2.8281,-2.8281,-2.8281,-2.83,-2.8293,-2.8293,-2.7866,-2.7063,-2.6361,-2.5893,-2.5682,-2.5662,-2.5636,-2.559,-2.5582,-2.5575,-2.5515,-2.552,-2.513,-2.4328,-2.4394,-2.4041,-2.3186,-2.2419,-2.1606,-2.073,-1.8973,-1.7655,0.0,-1.6658,0.0,0.0,0.0,0.0,0.0,0.0,0.0,0.0,-2.0161,-2.1165,-2.2183,-2.4322,-2.538,-2.4726,-2.6051,-2.7242,-2.7977,-2.8176,-2.8179,-2.8118,-2.8818,-2.9802,-3.0918,-3.0768,-3.0621,-3.084,-3.0763,-3.1044,-3.1698,-3.1814,-3.1545,-3.0968,-3.1391,-3.1872,-3.1852,-3.2372,-3.2352,-3.1987,-3.2352,-3.2237,-3.1121,-3.1371,-3.1564,-3.0929,-3.1391,-3.1621,-3.1083,-3.1891,-3.2564,-3.1968,-3.1852,-3.2083,-3.2641,-3.2275,-3.1641,-3.1025,-3.0717,-3.0583,-2.9697,-2.9509,-2.9723,-2.9806,-2.9806,-2.9806,-2.8859,-2.7324,-2.7471,-2.8001,-2.8825,-2.955,-2.9889,-2.9936,-2.9975,-3.0033,-3.0017,-3.0098,-3.0159,-3.0179,-2.9533,-2.9284,-2.9303,-2.8612,-2.8281,-2.8281,-2.8281,-2.8281,-2.8281,-2.8281,-2.8262,-2.8232,-2.8213,-2.8103,-2.7893,0.0,0.0,0.0,-2.5543,-2.5541,-2.551,-2.5509,-2.5514,-2.5522,-2.55,0.0,-2.4289,-2.4851,-2.4803,-2.3956,-2.3716,0.0,0.0,0.0,0.0,0.0,0.0,0.0,0.0,0.0,0.0,0.0,-1.9303,-1.9407,-2.0107,-2.1603,-2.2844,-2.3677,-2.5945,-2.7351,-2.7208,-2.7486,-2.7745,-2.7953,-2.8533,-2.8659,-2.8088,-2.9291,-3.1249,-3.414,-3.2736,-3.1891,-3.2821,-3.2756,-3.2468,-3.2641,-3.2679,-3.2602,-3.2468,-3.2583,-3.2679,-3.2679,-3.2622,-3.2449,-3.2622,-3.2506,-3.2545,-3.2352,-3.2506,-3.2583,-3.241,-3.2487,-3.266,-3.2372,-3.2699,-3.2929,-3.2699,-3.2679,-3.2737,-3.2891,-3.2795,-3.2641,-3.2449,-3.191,-3.1448,-3.0956,0.0,-3.0513,-3.0398,0.0,-3.0398,-2.9806,-2.8821,-2.8938,-2.9274,-2.9767,-3.0198,-3.0417,-3.0448,-3.0487,-3.0525,-3.0583,-3.0637,-3.0711,-3.0775,-3.0386,-3.0201,-3.0234,-2.9785,-2.959,-2.957,-2.957,-2.9551,-2.9492,-2.9496,-2.9447,-2.9394,-2.9375,-2.9145,-2.8634,-2.8232,-2.7595,-2.68,-2.6362,-2.613,-2.6095,-2.5677,-2.5428,-2.5409,-2.539,0.0,0.0,0.0,0.0,0.0,0.0,0.0,0.0,0.0,0.0,-2.0907,-2.0497,-2.0249,-2.0288,-2.066,-2.1281,-2.2105,-2.293,-2.3247,-2.2853,-2.364,-2.4629,-2.5896,-2.7907,-2.8959,-2.8557,-2.8882,-2.9302,-2.9759,-3.0494,-3.0717,-3.0206,-3.0956,-3.2403,-3.4058,-3.3282,-3.2602,-3.3256,-3.3122,-3.3103,-3.3468,-3.3545,-3.3699,-3.4045,-3.3814,-3.366,-3.4103,-3.3987,-3.3718,-3.3583,-3.3776,-3.3449,-3.3141,-3.3256,-3.3314,-3.2968,-3.3256,-3.343,-3.3103,-3.3564,-3.4064,-3.3622,-3.3526,-3.366,-3.4026,-3.3833,-3.3737,-3.3987,-3.3179,-3.2295,-3.1917,-3.184,-3.1129,-3.084,-3.0833,-3.0698,-3.0641,-3.0641,0.0,0.0,0.0,-3.0641,-3.0775,-3.0991,-3.0983,-3.106,-3.1164,-3.1186,-3.1158,-3.1133,-3.1133,-3.1035,-3.0918,-3.0918,-3.0879,-3.0879,-3.0871,-3.0814,-3.0683,-3.0684,-3.0641,-3.0602,-3.0583,-3.0179,-2.9421,-2.8698,-2.839,-2.8459,-2.7507,-2.6891,-2.6687,-2.5976,-2.5505,-2.5303,-2.5313,-2.4908,-2.414,-2.4226,-2.3918,-2.3081,-2.3158,-2.3178,-2.3043,-2.3024,-2.3024,-2.3071,-2.3706,-2.3832,-2.3293,-2.4072,-2.461,-2.4764,-2.6024,-2.6467,-2.5591,-2.5668,-2.6409,-2.7967,-2.9775,-3.0498,-2.9655,-3.0325,-3.1129,-3.1853,-3.2513,-3.2737,-3.2429,-3.266,-3.3173,-3.3853,-3.359,-3.3218,-3.343,-3.3449,-3.3603,-3.4257,-3.443,-3.4661,-3.5238,-3.4853,-3.4641,-3.5199,-3.5199,-3.5141,-3.4737,-3.4911,-3.4878,-3.3757,-3.4007,-3.4141,-3.3699,-3.3949,-3.4083,-3.3622,-3.4622,-3.4988,-3.4584,-3.443,-3.468,-3.5353,-3.4949,-3.4622,-3.5161,-3.4372,-3.3391,-3.2718,-3.2718,-3.2602,-3.2545,-3.2506,-3.1814,-3.1537,-3.153,-3.0756,-3.0845,-3.1607,-3.1588,-3.2042,-3.2821,-3.2898,-3.2936,-3.2941,-3.2976,-3.2672,-3.2031,-3.2031,-3.1621,-3.0937,-3.0918,-3.084,-3.0723,-3.0723,-3.0691,-3.0618,-3.0618,-3.0583,-3.0525,-3.0525,-3.041,-3.0237,-3.0121,-3.0063,-3.0052,-2.8525,-2.74,-2.664,-2.6486,-2.6063,-2.5351,-2.5303,-2.4928,-2.4159,-2.4755,-2.4755,-2.3995,-2.4582,-2.4639,-2.3956,-2.3918,-2.3918,-2.3918,-2.4033,-2.4341,-2.4928,-2.5774,-2.6582,-2.7294,-2.7582,-2.7351,-2.6544,-2.7101,-2.7928,-2.8909,-3.1102,-3.223,-3.1511,-3.2038,-3.2558,-3.273,-3.2852,-3.3057,-3.3474,-3.3231,-3.3577,-3.4969,-3.4533,-3.4314,-3.4853,-3.5026,-3.5007,-3.5238,-3.518,-3.5334,-3.5397,-3.5411,-3.5353,-3.5468,-3.5507,-3.5449,-3.5295,-3.5372,-3.5334,-3.5205,-3.5141,-3.5161,-3.4968,-3.5064,-3.5141,-3.5103,-3.5282,-3.5391,-3.5257,-3.5315,-3.5334,-3.5507,-3.5295,-3.5315,-3.5507,-3.5147,-3.4795,-3.3603,-3.3545,-3.3103,-3.2891,-3.2872,-3.2576,-3.2492,-3.2521,-3.2106,-3.2145,-3.2528,-3.2567,-3.2803,-3.3234,-3.3293,-3.3328,-3.3351,-3.339,-3.3203,-3.2851,-3.2871,-3.2614,-3.22,-3.1728,-3.1426,-3.1326,-3.0878,-3.0598,-3.0554,-3.0549,-3.0525,-3.0448,-3.0448,-3.0436,-3.0398,-3.0398,-3.0398,-3.0379,-2.9179,-2.8371,-2.7967,-2.7525,-2.689,-2.6044,-2.6005,-2.561,-2.4774,-2.5111,-2.5139,-2.4774,-2.5111,-2.513,-2.4793,-2.4736,-2.4755,-2.4774,-2.5197,-2.562,-2.5967,-2.6813,-2.7486,-2.7871,-2.8313,-2.839,-2.7986,-2.7909,-2.864,-3.0333,-3.2006,-3.2756,-3.2403,-3.3096,-3.3609,-3.3594,-3.3999,-3.441,-3.4635,-3.4501,-3.4622,-3.5309,-3.5155,-3.5064,-3.5468,-3.5507,-3.5507,-3.5507,-3.5507,-3.5507,-3.5493,-3.5507,-3.5507,-3.5507,-3.5507,-3.5507,-3.5507,-3.5507,-3.5507,-3.5507,-3.5507,-3.5507,-3.5507,-3.5507,-3.5507,-3.5507,-3.5507,-3.5507,-3.5507,-3.5488,-3.5507,-3.5507,-3.5507,-3.5507,-3.5507,-3.5507,-3.5353,-3.4487,-3.443,-3.3776,-3.343,-3.3276,-3.3361,-3.3442,-3.352,-3.3505,-3.3634,-3.379,-3.3631,-3.3658,-3.3906,-3.3906,-3.3945,-3.3984,-3.4004,-3.3887,-3.3691,-3.3678,-3.3543,-3.325,-3.2571,-3.223,-3.2081,-3.1458,-3.1025,-3.0794,-3.0775,-3.0641,-3.0417,-3.0398,-3.0398,-3.0398,-3.0398,-3.0398,-3.034,-2.9756,-2.9313,-2.9094,-2.8486,-2.7766,-2.6968,-2.689,-2.6572,-2.5918,-2.589,-2.589,-2.587,-2.588,-2.589,-2.587,-2.587,-2.589,-2.5947,-2.6505,-2.6967,-2.7178,-2.7775,-2.8255,-2.8467,-2.9217,-2.9679,-2.9621,-2.8929,-2.9333,-3.1429,-3.2795,-3.3449,-3.3346,-3.3968,-3.4493,-3.4537,-3.5089,-3.5391,-3.5488,-3.5507,-3.5507,-3.5507,-3.5507,-3.5488,-3.5507,-3.5507,-3.5507,-3.5507,-3.5507,-3.5493,-3.5432,-3.5446,-3.5493,-3.5432,-3.5446,-3.5493,-3.5507,-3.5507,-3.5507,-3.5507,-3.5507,-3.5507,-3.5507,-3.5507,-3.5507,-3.5507,-3.5507,-3.5507,-3.5507,-3.5507,-3.5507,-3.5507,-3.5507,-3.5507,-3.5507,-3.5507,-3.5507,-3.5411,-3.5449,-3.5295,-3.4955,-3.4372,-3.4342,-3.4419,-3.448,-3.448,-3.4944,-3.5546,-3.4844,-3.4936,-3.5684,-3.5684,-3.5664,-3.5684,-3.5762,-3.5312,-3.4629,-3.4514,-3.4077,-3.3402,-3.3171,-3.3038,-3.2916,-3.2755,-3.2244,-3.1595,-3.1595,-3.1198,-3.0475,-3.0398,-3.0417,-3.0417,-3.0398,-3.0398,-3.0398,-3.0333,-2.989,-2.9171,-2.9006,-2.8602,-2.7794,-2.7785,-2.7766,-2.7563,-2.767,-2.7651,-2.764,-2.7601,-2.7621,-2.7621,-2.764,-2.764,-2.7601,-2.7717,-2.8082,-2.8775,-2.8959,-2.9352,-3.011,-3.0929,-3.141,-3.1391,-3.066,-3.0564,-3.1891,-3.391,-3.4757,-3.4263,-3.4847,-3.5276,-3.5282,-3.5455,-3.5507,-3.5565,-3.5507,-3.5507,-3.5507,-3.5699,-3.5507,-3.5699,-3.5718,-3.5622,-3.5776,-3.5815,-3.5739,-3.5557,-3.5622,-3.5633,-3.5392,-3.5377,-3.5518,-3.5512,-3.5493,-3.5432,-3.5446,-3.5474,-3.5446,-3.5398,-3.5412,-3.5474,-3.5335,-3.546,-3.5446,-3.546,-3.5507,-3.5507,-3.5507,-3.5507,-3.5507,-3.5507,-3.5507,-3.5507,-3.5622,-3.5636,-3.5657,-3.5546,-3.5341,-3.5319,-3.5366,-3.5427,-3.5437,-3.565,-3.5919,-3.5578,-3.5636,-3.6016,-3.6016,-3.6016,-3.6016,-3.6016,-3.5812,-3.5418,-3.5372,-3.5109,-3.4653,-3.4076,-3.3782,-3.366,-3.3186,-3.275,-3.2462,-3.2417,-3.2218,-3.1852,-3.1429,-3.1179,-3.1121,-3.066,-3.0398,-3.0398,-3.0398,-3.0237,-2.991,-2.9871,-2.9456,-2.8714,-2.8599,-2.8357,-2.7961,-2.7904,-2.7896,-2.789,-2.789,-2.789,-2.789,-2.789,-2.789,-2.7928,-2.8352,-2.8986,-2.9813,-3.0333,-3.0794,-3.116,-3.1929,-3.241,-3.241,-3.2064,-3.2256,-3.3179,-3.4603,-3.5315,-3.5059,-3.5295,-3.5507,-3.5565,-3.5892,-3.6199,-3.6194,-3.6661,-3.6988,-3.6988,-3.6969,-3.6969,-3.6988,-3.6988,-3.6988,-3.6988,-3.6969,-3.6829,-3.6773,-3.6741,-3.664,-3.6535,-3.6481,-3.615,-3.5661,-3.5086,-3.5034,-3.5174,-3.5122,-3.5035,-3.5053,-3.5016,-3.5016,-3.5053,-3.519,-3.5273,-3.5258,-3.5398,-3.5507,-3.5507,-3.5507,-3.5507,-3.5507,-3.5507,-3.5507,-3.5721,-3.5779,-3.5779,-3.584,-3.5921,-3.5921,-3.5943,-3.5993,-3.6002,-3.6011,-3.6016,-3.6016,-3.6016,-3.6016,-3.6016,-3.5992,-3.5978,-3.5974,-3.5931,-3.5852,-3.583,-3.5718,-3.5545,-3.4968,-3.4589,-3.4461,-3.3936,-3.3519,-3.3281,-3.2968,-3.2897,-3.2795,-3.2314,-3.2025,-3.1968,-3.1371,-3.0968,-3.0814,-3.0968,-3.0987,-3.0814,-3.0763,-3.034,-2.9548,-2.9471,-2.9171,-2.861,-2.8572,-2.8595,-2.8602,-2.8582,-2.8602,-2.8582,-2.8582,-2.8582,-2.8659,-2.9352,-3.0083,-3.0737,-3.1545,-3.2045,-3.2083,-3.2795,-3.3256,-3.3295,-3.3468,-3.3872,-3.4487,-3.5545,-3.618,-3.5853,-3.6045,-3.618,-3.6213,-3.6752,-3.7065,-3.7103,-3.768,-3.795,-3.8007,-3.7834,-3.8007,-3.7988,-3.793,-3.7873,-3.7873,-3.793,-3.7894,-3.7792,-3.7524,-3.7414,-3.7317,-3.7084,-3.6604,-3.577,-3.5306,-3.4997,-3.4812,-3.4851,-3.4754,-3.4694,-3.4694,-3.4694,-3.4889,-3.4981,-3.5105,-3.5155,-3.532,-3.546,-3.5474,-3.5474,-3.546,-3.5507,-3.5507,-3.5493,-3.5776,-3.5905,-3.5966,-3.5996,-3.6016,-3.5996,-3.5996,-3.6016,-3.6016,-3.6016,-3.6016,-3.6016,-3.6016,-3.6016,-3.5996,-3.5943,-3.5925,-3.5919,-3.5841,-3.5724,-3.5635,-3.5622,-3.5584,-3.5507,-3.543,-3.532,-3.5205,-3.4834,-3.4109,-3.3377,-3.2897,-3.2929,-3.291,-3.2852,-3.2833,-3.2699,-3.2372,-3.1775,-3.2275,-3.2391,-3.1737,-3.1641,-3.1256,-3.0494,-3.0321,-3.0244,-3.0206,-3.0263,-3.0244,-3.0244,-3.0167,-3.0206,-3.0225,-3.0237,-3.0256,-3.0379,-3.1083,-3.1583,-3.1718,-3.241,-3.2852,-3.2968,-3.366,-3.4141,-3.4199,-3.4757,-3.5199,-3.5416,-3.6796,-3.7411,-3.6944,-3.7271,-3.7656,-3.7704,-3.7863,-3.7954,-3.7947,-3.8127,-3.8016,-3.8116,-3.8243,-3.8296,-3.8142,-3.8007,-3.818,-3.82,-3.8104,-3.7996,-3.768,-3.7566,-3.7446,-3.7127,-3.6895,-3.6552,-3.6026,-3.5735,-3.5437,-3.5275,-3.5179,-3.4762,-3.4711,-3.4694,-3.473,-3.4713,-3.4832,-3.4962,-3.5086,-3.5239,-3.535,-3.5398,-3.5369,-3.5383,-3.5304,-3.5432,-3.5417,-3.5923,-3.5953,-3.5991,-3.6016,-3.6016,-3.6016,-3.6016,-3.6016,-3.6016,-3.6016,-3.6016,-3.6016,-3.6016,-3.6015,-3.5943,-3.5929,-3.5886,-3.5905,-3.5798,-3.5651,-3.5618,-3.5584,-3.5545,-3.5507,-3.5507,-3.5507,-3.5488,-3.5353,-3.5064,-3.4691,-3.4557,-3.4436,-3.4007,-3.3718,-3.3641,-3.3179,-3.2737,-3.2526,-3.2776,-3.2756,-3.2506,-3.2468,-3.2307,-3.1965,-3.0941,-3.0398,-3.0398,-3.0398,-3.0398,-3.0398,-3.0398,-3.0398,-3.0456,-3.0917,-3.1487,-3.1948,-3.2295,-3.2468,-3.2564,-3.3256,-3.3737,-3.3776,-3.4526,-3.5007,-3.5084,-3.5334,-3.5685,-3.6353,-3.7276,-3.795,-3.8291,-3.8195,-3.8007,-3.807,-3.8507,-3.8819,-3.8939,-3.9281,-3.9623,-3.9608,-3.9604,-3.9585,-3.9488,-3.9585,-3.9604,-3.9604,-3.9585,-3.9344,-3.9089,-3.895,-3.8599,-3.8308,-3.8063,-3.7728,-3.7007,-3.6448,-3.6085,-3.6044,-3.5901,-3.5416,-3.5212,-3.5039,-3.5014,-3.466,-3.4727,-3.4843,-3.5,-3.5078,-3.5204,-3.5049,-3.5069,-3.5257,-3.4981,-3.5107,-3.507,-3.6016,-3.6016,-3.6016,-3.6016,-3.6016,-3.6016,-3.6016,-3.6016,-3.6016,-3.6016,-3.6016,-3.6016,-3.5976,-3.5957,-3.5922,-3.5853,-3.5815,-3.5815,-3.5718,-3.5584,-3.5584,-3.5545,-3.5507,-3.5507,-3.5507,-3.5507,-3.5507,-3.5507,-3.5507,-3.5507,-3.5507,-3.543,-3.4891,-3.4622,-3.4507,-3.4007,-3.3622,-3.343,-3.3583,-3.3641,-3.3372,-3.3314,-3.3327,-3.3128,-3.1929,-3.1064,-3.0852,-3.1064,-3.1052,-3.0898,-3.1064,-3.1218,-3.1275,-3.1775,-3.2333,-3.2852,-3.3179,-3.3314,-3.341,-3.4122,-3.4622,-3.4622,-3.5141,-3.5507,-3.5507,-3.5507,-3.5892,-3.6699,-3.8065,-3.9061,-3.9138,-3.9003,-3.88,-3.8881,-3.9339,-3.9681,-3.9723,-4.0181,-4.0412,-4.0412,-4.0373,-4.0431,-4.0489,-4.0469,-4.0431,-4.0489,-4.0489,-4.0372,-4.0022,-3.9754,-3.9432,-3.9054,-3.8704,-3.8401,-3.7982,-3.7514,-3.6684,-3.6518,-3.6443,-3.6021,-3.5752,-3.5532,-3.5238,-3.4843,-3.4689,-3.4803,-3.4903,-3.4983,-3.4917,-3.479,-3.5076,-3.5381,-3.5075,-3.4732,-3.4809,-3.6074,-3.6133,-3.6016,-3.6113,-3.6133,-3.6133,-3.6055,-3.6016,-3.6055,-3.6152,-3.6191,-3.6152,-3.6269,-3.6074,-3.6212,-3.593,-3.5892,-3.593,-3.5757,-3.5512,-3.5507,-3.5507,-3.5507,-3.5507,-3.5507,-3.5507,-3.5507,-3.5507,-3.5507,-3.5507,-3.5507,-3.5507,-3.5449,-3.5334,-3.5468,-3.5257,-3.4949,-3.4507,-3.4891,-3.493,-3.4334,-3.4199,-3.4205,-3.4134,-3.334,-3.2576,-3.1819,-3.2403,-3.2372,-3.1872,-3.2372,-3.2852,-3.2795,-3.2891,-3.2949,-3.3218,-3.3776,-3.4141,-3.4276,-3.4949,-3.5353,-3.5372,-3.5468,-3.5532,-3.5661,-3.568,-3.6045,-3.7161,-3.8892,-4.0142,-3.9604,-3.9892,-4.0239,-4.045,-4.0335,-4.0335,-4.0412,-4.0469,-4.0489,-4.0489,-4.0489,-4.0489,-4.0469,-4.0489,-4.0489,-4.045,-4.0438,-4.0248,-3.9797,-3.9599,-3.9301,-3.8902,-3.8719,-3.856,-3.8615,-3.856,-3.7643,-3.6919,-3.682,-3.6615,-3.6468,-3.6266,-3.6101,-3.5735,-3.545,-3.5539,-3.5498,-3.553,-3.5327,-3.5262,-3.549,-3.5634,-3.5417,-3.5142,-3.4877,-3.7246,-3.7695,-3.7148,-3.6894,-3.6894,-3.6894,-3.6582,-3.6113,-3.6621,-3.6875,-3.6992,-3.7519,-3.7734,-3.7617,-3.7579,-3.745,-3.7334,-3.7238,-3.6642,-3.5699,-3.5526,-3.5507,-3.5507,-3.5507,-3.5507,-3.5507,-3.5507,-3.5507,-3.5507,-3.5507,-3.5507,-3.5507,-3.5507,-3.5507,-3.5507,-3.5488,-3.5334,-3.518,-3.5353,-3.5353,-3.5122,-3.5084,-3.5089,-3.507,-3.4801,-3.4301,-3.3461,-3.3109,-3.2795,-3.2526,-3.2756,-3.316,-3.366,-3.3795,-3.4083,-3.4641,-3.493,-3.5084,-3.5103,-3.5315,-3.5507,-3.5507,-3.5507,-3.5795,-3.6276,-3.6546,-3.718,-3.8296,-3.9719,-4.0354,-4.0239,-4.0315,-4.0489,-4.0489,-4.0489,-4.0489,-4.0473,-4.0489,-4.0489,-4.0489,-4.0489,-4.0335,-4.0085,-4.0181,-4.0415,-4.03,-4.026,-4.0043,-3.969,-3.9432,-3.9144,-3.8792,-3.875,-3.8707,-3.8707,-3.8707,-3.823,-3.7716,-3.7588,-3.7367,-3.7202,-3.7092,-3.6909,-3.6644,-3.638,-3.6168,-3.6136,-3.5992,-3.5814,-3.5826,-3.6029,-3.6014,-3.5832,-3.5577,-3.5194,-3.8086,-3.8476,-3.7676,-3.7285,-3.7285,-3.7285,-3.6992,-3.6641,-3.7422,-3.7754,-3.7851,-3.8262,-3.8457,-3.832,-3.8257,-3.818,-3.8055,-3.8027,-3.743,-3.6469,-3.6026,-3.5815,-3.5565,-3.5507,-3.5507,-3.5507,-3.5507,-3.5507,-3.5507,-3.5507,-3.5507,-3.5507,-3.5507,-3.5507,-3.5507,-3.5507,-3.5507,-3.5507,-3.5488,-3.5507,-3.5488,-3.5507,-3.5507,-3.5488,-3.5488,-3.5224,-3.4653,-3.4128,-3.3718,-3.3526,-3.366,-3.4141,-3.4622,-3.4699,-3.493,-3.5353,-3.5488,-3.5488,-3.5507,-3.5468,-3.5507,-3.5507,-3.5507,-3.5853,-3.6622,-3.7257,-3.8315,-3.9161,-4.0008,-4.0489,-4.0489,-4.0389,-4.0356,-4.0356,-4.0339,-4.0356,-4.0356,-4.0341,-4.0427,-4.0425,-4.0425,-4.0213,-4.013,-4.0065,-4.0348,-4.0233,-4.0154,-3.9982,-3.9664,-3.9333,-3.9017,-3.8803,-3.8719,-3.8707,-3.8707,-3.8707,-3.8707,-3.856,-3.8469,-3.8212,-3.7991,-3.7955,-3.7826,-3.7459,-3.7169,-3.682,-3.6731,-3.6527,-3.6334,-3.6479,-3.657,-3.646,-3.6315,-3.569,-3.5366,-3.8711,-3.8633,-3.7812,-3.75,-3.7441,-3.7441,-3.7285,-3.7266,-3.8144,-3.8437,-3.8379,-3.8652,-3.8594,-3.8359,-3.8547,-3.852,-3.8178,-3.8339,-3.8257,-3.7815,-3.718,-3.6449,-3.5776,-3.5584,-3.5565,-3.5661,-3.5565,-3.5507,-3.5507,-3.5507,-3.5507,-3.5507,-3.5507,-3.5507,-3.5507,-3.5507,-3.5507,-3.5507,-3.5507,-3.5507,-3.5507,-3.5507,-3.5507,-3.5507,-3.5507,-3.5468,-3.5359,-3.5257,-3.4968,-3.4487,-3.493,-3.5257,-3.5449,-3.5507,-3.5449,-3.5507,-3.5507,-3.5507,-3.5507,-3.5507,-3.5584,-3.5666,-3.5738,-3.5988,-3.7026,-3.8104,-3.8911,-3.945,-4.0085,-4.0489,-4.0406,-4.0286,-4.012,-4.0022,-4.0042,-4.0062,-4.0061,-4.0078,-4.0234,-4.0392,-4.0304,-4.012,-4.0189,-4.0082,-4.0211,-4.0172,-4.0081,-3.9861,-3.9552,-3.9205,-3.899,-3.8815,-3.8689,-3.8707,-3.8707,-3.8707,-3.8707,-3.8707,-3.8707,-3.8597,-3.8487,-3.8469,-3.8469,-3.8138,-3.7863,-3.7551,-3.7386,-3.7246,-3.7081,-3.711,-3.7099,-3.6991,-3.6783,-3.6366,-3.6028,-3.9922,-4.0391,-3.957,-3.8848,-3.8301,-3.8262,-3.7457,-3.6561,-3.7876,-3.8468,-3.857,-3.9649,-4.0012,-3.9995,-3.997,-3.9954,-3.9762,-3.9758,-3.9469,-3.8873,-3.8046,-3.7219,-3.6372,-3.5776,-3.5815,-3.618,-3.5724,-3.5507,-3.5507,-3.5507,-3.5507,-3.5507,-3.5507,-3.5507,-3.5507,-3.5507,-3.5507,-3.5507,-3.5507,-3.5507,-3.5507,-3.5507,-3.5507,-3.5507,-3.5507,-3.5507,-3.5507,-3.5507,-3.5449,-3.5218,-3.5353,-3.5507,-3.5507,-3.5507,-3.5507,-3.5507,-3.5507,-3.5507,-3.5507,-3.5507,-3.5776,-3.6334,-3.6315,-3.7026,-3.8488,-3.8931,-3.9508,-4.0008,-4.0412,-4.0389,-4.0232,-4.012,-3.988,-3.9481,-3.9576,-3.9709,-3.9772,-3.9981,-4.0215,-4.0425,-4.025,-3.984,-3.9524,-3.969,-3.9907,-3.9673,-3.9646,-3.9664,-3.9333,-3.9073,-3.8803,-3.8792,-3.8707,-3.8707,-3.8707,-3.8707,-3.8707,-3.8707,-3.8707,-3.8689,-3.8634,-3.8615,-3.8634,-3.8542,-3.8358,-3.8083,-3.823,-3.8267,-3.8083,-3.7734,-3.7888,-3.7931,-3.7906,-3.7606,-3.7147,-4.0742,-4.1113,-4.0199,-3.9353,-3.8632,-3.8504,-3.7695,-3.6948,-3.8157,-3.8851,-3.911,-4.0159,-4.0773,-4.0716,-4.0696,-4.0658,-4.06,-4.0508,-4.0239,-3.9681,-3.8546,-3.7334,-3.6392,-3.5916,-3.6103,-3.6103,-3.5757,-3.5526,-3.5507,-3.5507,-3.5507,-3.5507,-3.5507,-3.5507,-3.5507,-3.5507,-3.5507,-3.5507,-3.5507,-3.5507,-3.5507,-3.5507,-3.5507,-3.5507,-3.5507,-3.5507,-3.5507,-3.5507,-3.5507,-3.5488,-3.5488,-3.5507,-3.5507,-3.5507,-3.5507,-3.5507,-3.5507,-3.5507,-3.5507,-3.5507,-3.5892,-3.6507,-3.6719,-3.7525,-3.8632,-3.9114,-3.9421,-3.9948,-4.01,-4.0024,-3.9922,-3.9775,-3.9476,-3.91,-3.9109,-3.9294,-3.9364,-3.9571,-3.9944,-4.0194,-4.0023,-3.9476,-3.8762,-3.932,-3.9477,-3.941,-3.9392,-3.9321,-3.9125,-3.8855,-3.8707,-3.8707,-3.8707,-3.8707,-3.8707,-3.8707,-3.8707,-3.8707,-3.8707,-3.8707,-3.8707,-3.8707,-3.8707,-3.8707,-3.8707,-3.8707,-3.8707,-3.8707,-3.856,-3.8414,-3.867,-3.8634,-3.8432,-3.8065,-3.7716,-4.1172,-4.1099,-4.0184,-3.9384,-3.8743,-3.8419,-3.7831,-3.7513,-3.8614,-3.923,-3.9379,-4.0288,-4.0689,-4.0665,-4.0675,-4.0665,-4.0658,-4.0527,-4.0373,-3.9873,-3.895,-3.77,-3.6334,-3.6205,-3.6161,-3.5872,-3.5603,-3.5507,-3.5507,-3.5507,-3.5507,-3.5507,-3.5507,-3.5507,-3.5507,-3.5507,-3.5507,-3.5507,-3.5507,-3.5507,-3.5507,-3.5507,-3.5507,-3.5507,-3.5507,-3.5507,-3.5507,-3.5493,-3.5493,-3.5465,-3.5493,-3.5507,-3.5493,-3.5493,-3.5398,-3.535,-3.532,-3.5354,-3.5422,-3.5473,-3.5906,-3.66,-3.6868,-3.7431,-3.867,-3.9051,-3.9239,-3.9659,-3.9622,-3.9626,-3.9515,-3.9245,-3.9027,-3.8803,-3.875,-3.8844,-3.899,-3.9063,-3.9432,-4.0138,-3.9534,-3.9082,-3.8873,-3.8923,-3.9205,-3.92,-3.916,-3.9133,-3.8999,-3.8833,-3.8719,-3.8707,-3.8707,-3.8707,-3.8707,-3.8707,-3.8707,-3.8707,-3.8707,-3.8707,-3.8707,-3.8707,-3.8707,-3.8707,-3.8707,-3.8707,-3.8707,-3.8707,-3.8689,-3.856,-3.8469,-3.8505,-3.8469,-3.7955,-3.7533,-4.1047,-4.1021,-4.0713,-4.0119,-3.9329,-3.8613,-3.7802,-3.7103,-3.8027,-3.8546,-3.8685,-3.9892,-4.0524,-4.0554,-4.0576,-4.0541,-4.0558,-4.0489,-4.0181,-3.9604,-4.0008,-3.8969,-3.745,-3.6546,-3.6089,-3.6147,-3.5782,-3.5532,-3.5526,-3.5545,-3.5507,-3.5507,-3.5507,-3.5507,-3.5507,-3.5507,-3.5507,-3.5507,-3.5507,-3.5507,-3.5507,-3.5507,-3.5507,-3.5507,-3.5507,-3.5507,-3.5507,-3.5507,-3.5398,-3.5289,-3.5364,-3.5507,-3.5479,-3.5324,-3.5181,-3.5078,-3.4945,-3.4908,-3.5022,-3.5553,-3.6178,-3.6957,-3.7565,-3.8353,-3.9258,-3.9388,-3.9441,-3.958,-3.9599,-3.9462,-3.9233,-3.8971,-3.8785,-3.8719,-3.8707,-3.8719,-3.8792,-3.8951,-3.9165,-3.9129,-3.9144,-3.898,-3.8732,-3.8923,-3.9045,-3.897,-3.8952,-3.8971,-3.8865,-3.878,-3.8719,-3.8707,-3.8707,-3.8707,-3.8707,-3.8707,-3.8707,-3.8707,-3.8707,-3.8707,-3.8707,-3.8707,-3.8707,-3.8707,-3.8707,-3.8707,-3.8707,-3.867,-3.8652,-3.8432,-3.8248,-3.8267,-3.8175,-3.7746,-3.7698,-4.0893,-4.09,-4.081,-4.0308,-3.9591,-3.8999,-3.8272,-3.7714,-3.83,-3.8661,-3.8892,-4.0046,-4.0571,-4.0595,-4.0597,-4.0604,-4.0569,-4.0527,-4.0277,-3.9912,-3.9965,-3.9392,-3.8661,-3.745,-3.693,-3.7161,-3.6469,-3.6103,-3.5988,-3.5718,-3.5507,-3.5507,-3.5526,-3.5507,-3.5507,-3.5526,-3.5507,-3.5507,-3.5507,-3.5507,-3.5507,-3.5507,-3.5507,-3.5507,-3.5507,-3.5507,-3.5507,-3.5507,-3.5432,-3.5354,-3.5417,-3.5493,-3.5446,-3.5261,-3.5211,-3.5385,-3.491,-3.5218,-3.5692,-3.5918,-3.6411,-3.754,-3.8049,-3.8597,-3.9207,-3.9508,-3.9427,-3.9261,-3.9136,-3.9082,-3.8934,-3.8826,-3.8707,-3.8707,-3.8707,-3.8707,-3.8726,-3.8817,-3.8885,-3.8756,-3.8844,-3.8815,-3.8815,-3.8913,-3.8884,-3.8833,-3.8822,-3.8844,-3.8815,-3.8719,-3.8719,-3.8707,-3.8707,-3.8707,-3.8707,-3.8707,-3.8707,-3.8707,-3.8707,-3.8707,-3.8707,-3.8707,-3.8707,-3.8707,-3.8707,-3.8707,-3.8689,-3.867,-3.8615,-3.8487,-3.8322,-3.8187,-3.804,-3.7826,-3.801,-4.0773,-4.0793,-4.0696,-4.0315,-3.9742,-3.9407,-3.8888,-3.8469,-3.8988,-3.92,-3.9469,-4.0273,-4.0626,-4.065,-4.0665,-4.0658,-4.0639,-4.0566,-4.0392,-4.0335,-3.9946,-3.9681,-3.9258,-3.8777,-3.8392,-3.8257,-3.7373,-3.6911,-3.6521,-3.6194,-3.5968,-3.568,-3.5911,-3.5853,-3.5641,-3.5661,-3.5776,-3.5795,-3.5815,-3.5795,-3.5776,-3.5757,-3.5738,-3.5507,-3.5507,-3.5507,-3.5507,-3.5493,-3.5465,-3.5403,-3.5532,-3.5513,-3.5358,-3.5386,-3.5505,-3.6177,-3.5485,-3.5633,-3.6307,-3.6485,-3.6827,-3.8136,-3.8295,-3.8496,-3.8968,-3.9221,-3.9129,-3.8929,-3.8762,-3.8762,-3.8689,-3.8707,-3.8707,-3.8707,-3.8707,-3.8707,-3.8707,-3.8707,-3.8707,-3.8707,-3.8732,-3.875,-3.8719,-3.8762,-3.8719,-3.8707,-3.8707,-3.8707,-3.8707,-3.8707,-3.8707,-3.8707,-3.8707,-3.8707,-3.8707,-3.8707,-3.8707,-3.8707,-3.8707,-3.8707,-3.8707,-3.8707,-3.8707,-3.8707,-3.8707,-3.8707,-3.8707,-3.8689,-3.8634,-3.8524,-3.8395,-3.823,-3.8102,-3.7973,-3.8248,-4.0718,-4.0696,-4.0566,-4.045,-4.0239,-3.9585,-3.9238,-3.9123,-3.9277,-3.9296,-3.9431,-4.0177,-4.0546,-4.0546,-4.0527,-4.0527,-4.0546,-4.0508,-4.0489,-4.0489,-4.0239,-4.02,-4.0085,-3.9912,-3.9892,-3.9662,-3.8642,-3.7599,-3.7194,-3.7194,-3.6738,-3.6103,-3.6815,-3.6911,-3.6128,-3.6089,-3.6507,-3.6502,-3.6507,-3.6526,-3.6521,-3.6488,-3.6199,-3.5738,-3.5641,-3.5551,-3.5507,-3.546,-3.5289,-3.5002,-3.57,-3.5606,-3.5382,-3.5569,-3.6026,-3.6297,-3.6141,-3.6147,-3.6656,-3.7027,-3.7257,-3.7755,-3.8237,-3.8578,-3.8766,-3.884,-3.8859,-3.8799,-3.8707,-3.8707,-3.8707,-3.8707,-3.8707,-3.8707,-3.8707,-3.8707,-3.8707,-3.8707,-3.8707,-3.8707,-3.8707,-3.8707,-3.8707,-3.8707,-3.8707,-3.8707,-3.8707,-3.8707,-3.8707,-3.8707,-3.8707,-3.8707,-3.8707,-3.8707,-3.8707,-3.8707,-3.8707,-3.8707,-3.8707,-3.8707,-3.8707,-3.8707,-3.8689,-3.8505,-3.8579,-3.8707,-3.8707,-3.8707,-3.8505,-3.8322,-3.8285,-3.8285,-3.8175,-3.8065,-3.8322,-4.0235,-4.0504,-3.9604,-3.9719,-4.0258,-3.9642,-3.9546,-3.9873,-3.9912,-3.9912,-4.0027,-4.0315,-4.0489,-4.0489,-4.0489,-4.0489,-4.0489,-4.0489,-4.0489,-4.0489,-4.0489,-4.0489,-4.0489,-4.0489,-4.0489,-4.0296,-3.9604,-3.8796,-3.8084,-3.793,-3.755,-3.7228,-3.7685,-3.7546,-3.7046,-3.718,-3.7353,-3.7368,-3.7353,-3.7373,-3.7368,-3.7373,-3.6911,-3.6353,-3.6084,-3.5916,-3.5545,-3.5507,-3.5534,-3.5644,-3.6026,-3.6084,-3.6147,-3.6508,-3.708,-3.7282,-3.6817,-3.6762,-3.7239,-3.7661,-3.7636,-3.8132,-3.8505,-3.867,-3.8707,-3.8707,-3.8707,-3.8707,-3.8707,-3.8707,-3.8707,-3.8707,-3.8707,-3.8707,-3.8707,-3.8707,-3.8707,-3.8707,-3.8707,-3.8707,-3.8707,-3.8707,-3.8707,-3.8707,-3.8707,-3.8707,-3.8707,-3.8707,-3.8707,-3.8707,-3.8707,-3.8707,-3.8707,-3.8707,-3.8707,-3.8707,-3.8707,-3.8707,-3.8707,-3.8707,-3.8634,-3.8615,-3.8322,-3.801,-3.8212,-3.8395,-3.8689,-3.867,-3.8395,-3.8138,-3.8083,-3.8065,-3.8138,-3.823,-3.8414,-3.9927,-4.0369,-3.9065,-3.9277,-4.0273,-3.9815,-3.9892,-4.0412,-4.0469,-4.045,-4.0489,-4.0489,-4.0489,-4.0489,-4.0489,-4.0489,-4.0489,-4.0489,-4.0489,-4.0489,-4.0489,-4.0489,-4.0489,-4.0489,-4.0489,-4.0469,-4.0373,-4.0069,-3.9185,-3.8877,-3.842,-3.8097,-3.8131,-3.8219,-3.8027,-3.8065,-3.8195,-3.8272,-3.8238,-3.8277,-3.8257,-3.8065,-3.7714,-3.7055,-3.6969,-3.6637,-3.6135,-3.608,-3.6134,-3.633,-3.6554,-3.6699,-3.6996,-3.7646,-3.8229,-3.8401,-3.7422,-3.7698,-3.8065,-3.8175,-3.8083,-3.8524,-3.8652,-3.8707,-3.8707,-3.8707,-3.8707,-3.8707,-3.8707,-3.8707,-3.8707,-3.8707,-3.8707,-3.8707,-3.8707,-3.8707,-3.8707,-3.8707,-3.8707,-3.8707,-3.8707,-3.8707,-3.8707,-3.8707,-3.8707,-3.8707,-3.8707,-3.8707,-3.8707,-3.8707,-3.8707,-3.8707,-3.8707,-3.8707,-3.8707,-3.8707,-3.8707,-3.8707,-3.8707,-3.8707,-3.8597,-3.8487,-3.8065,-3.7624,-3.7514,-3.7734,-3.8175,-3.8634,-3.8542,-3.8322,-3.801,-3.7991,-3.8267,-3.8267,-3.8285,-4.0423,-4.0472,-4.0254,-4.0335,-4.0466,-4.0331,-4.0354,-4.0469,-4.0489,-4.0489,-4.0489,-4.0489,-4.0489,-4.0489,-4.0489,-4.0489,-4.0489,-4.0489,-4.0489,-4.0489,-4.0489,-4.0489,-4.0489,-4.0489,-4.0489,-4.0489,-4.0489,-4.0031,-3.9646,-3.9854,-3.9358,-3.8654,-3.93,-3.9546,-3.8488,-3.8873,-3.9138,-3.9138,-3.9157,-3.9142,-3.9046,-3.8488,-3.8123,-3.7906,-3.7815,-3.7594,-3.7167,-3.703,-3.7005,-3.6808,-3.7362,-3.7214,-3.6833,-3.7842,-3.8474,-3.8652,-3.8524,-3.8487,-3.8634,-3.8524,-3.8432,-3.867,-3.8707,-3.8707,-3.8707,-3.8707,-3.8707,-3.8707,-3.8707,-3.8707,-3.8707,-3.8707,-3.8707,-3.8707,-3.8707,-3.8707,-3.8707,-3.8707,-3.8707,-3.8707,-3.8707,-3.8707,-3.8707,-3.8707,-3.8707,-3.8707,-3.8707,-3.8707,-3.8707,-3.8707,-3.8707,-3.8707,-3.8707,-3.8707,-3.8707,-3.8707,-3.8707,-3.8707,-3.8707,-3.8652,-3.8358,-3.8102,-3.7661,-3.7276,-3.711,-3.7074,-3.7477,-3.7955,-3.845,-3.8579,-3.834,-3.8414,-3.8615,-3.8469,-3.8083,-4.0504,-4.0404,-3.9484,-3.9623,-4.0392,-4.0008,-4.01,-4.0431,-4.0489,-4.0489,-4.0489,-4.0489,-4.0489,-4.0489,-4.0489,-4.0489,-4.0489,-4.0489,-4.0489,-4.0489,-4.0489,-4.0489,-4.0489,-4.0489,-4.0489,-4.0489,-4.0489,-4.0431,-4.0181,-4.02,-3.9992,-3.9665,-4.0065,-4.0219,-3.9277,-3.9738,-3.9946,-3.9985,-3.9988,-3.9969,-3.9873,-3.9585,-3.92,-3.8762,-3.8738,-3.8386,-3.7928,-3.7567,-3.7611,-3.7536,-3.7916,-3.7877,-3.7787,-3.8322,-3.8707,-3.8689,-3.8689,-3.867,-3.8707,-3.8707,-3.8707,-3.8707,-3.8707,-3.8707,-3.8707,-3.8707,-3.8707,-3.8707,-3.8707,-3.8707,-3.8707,-3.8707,-3.8707,-3.8707,-3.8707,-3.8707,-3.8707,-3.8707,-3.8707,-3.8707,-3.8707,-3.8707,-3.8707,-3.8707,-3.8707,-3.8707,-3.8707,-3.8707,-3.8707,-3.8707,-3.8707,-3.8707,-3.8707,-3.8707,-3.8707,-3.8707,-3.8707,-3.8707,-3.8707,-3.8542,-3.801,-3.7624,-3.7202,-3.6743,-3.6395,-3.6505,-3.6835,-3.7404,-3.8046,-3.8395,-3.8689,-3.845,-3.8193,-3.79,-3.7386,-4.0489,-4.0354,-3.9142,-3.9354,-4.0427,-3.9835,-3.9931,-4.045,-4.0489,-4.0489,-4.0489,-4.0489,-4.0489,-4.0489,-4.0489,-4.0489,-4.0489,-4.0489,-4.0489,-4.0489,-4.0489,-4.0489,-4.0489,-4.0489,-4.0489,-4.0489,-4.0489,-4.045,-4.0469,-4.0469,-4.0469,-4.0489,-4.0392,-4.0431,-4.0469,-4.0392,-4.0392,-4.0392,-4.0392,-4.0412,-4.0412,-4.0431,-4.0085,-3.9762,-3.9515,-3.9218,-3.8498,-3.8235,-3.8345,-3.8226,-3.8218,-3.8272,-3.8499,-3.8597,-3.8707,-3.8707,-3.8707,-3.8707,-3.8707,-3.8707,-3.8707,-3.8707,-3.8707,-3.8707,-3.8707,-3.8707,-3.8707,-3.8707,-3.8707,-3.8707,-3.8707,-3.8707,-3.8707,-3.8707,-3.8707,-3.8707,-3.8707,-3.8707,-3.8707,-3.8707,-3.8707,-3.8707,-3.8707,-3.8707,-3.8707,-3.8707,-3.8707,-3.8707,-3.8707,-3.8707,-3.8707,-3.8707,-3.8707,-3.8707,-3.8707,-3.8707,-3.8707,-3.8707,-3.8707,-3.856,-3.8138,-3.7404,-3.6762,-3.6285,-3.5789,-3.5954,-3.6303,-3.6982,-3.7654,-3.7918,-3.8065,-3.779,-3.7533,-3.7202,-3.6725,-4.0489,-4.0489,-4.0335,-4.0335,-4.0489,-4.045,-4.0431,-4.0489,-4.0489,-4.0489,-4.0489,-4.0489,-4.0489,-4.0489,-4.0489,-4.0489,-4.0489,-4.0489,-4.0489,-4.0489,-4.0489,-4.0489,-4.0489,-4.0489,-4.0489,-4.0489,-4.0489,-4.0489,-4.0489,-4.0489,-4.0489,-4.0489,-4.0489,-4.0489,-4.0489,-4.0489,-4.0489,-4.0489,-4.0489,-4.0489,-4.0489,-4.0489,-4.0412,-4.0392,-4.0323,-4.0114,-3.9523,-3.9282,-3.9063,-3.8748,-3.8604,-3.8552,-3.8652,-3.8707,-3.8707,-3.8707,-3.8707,-3.8707,-3.8707,-3.8707,-3.8707,-3.8707,-3.8707,-3.8707,-3.8707,-3.8707,-3.8707,-3.8707,-3.8707,-3.8707,-3.8707,-3.8707,-3.8707,-3.8707,-3.8707,-3.8707,-3.8707,-3.8707,-3.8707,-3.8707,-3.8707,-3.8707,-3.8707,-3.8707,-3.8707,-3.8707,-3.8707,-3.8707,-3.8707,-3.8707,-3.8707,-3.8707,-3.8707,-3.8707,-3.8707,-3.8707,-3.8707,-3.8707,-3.8707,-3.8615,-3.8432,-3.7569,-3.645,-3.5771,-3.533,-3.555,-3.5807,-3.6395,-3.6927,-3.7331,-3.7404,-3.711,-3.6523,-3.5973,-3.5624,-4.0489,-4.0489,-4.0489,-4.0489,-4.0489,-4.0489,-4.0489,-4.0489,-4.0489,-4.0489,-4.0489,-4.0489,-4.0489,-4.0489,-4.0489,-4.0489,-4.0489,-4.0489,-4.0489,-4.0489,-4.0489,-4.0489,-4.0489,-4.0489,-4.0489,-4.0489,-4.0489,-4.0489,-4.0489,-4.0489,-4.0489,-4.0489,-4.0489,-4.0489,-4.0489,-4.0489,-4.0489,-4.0489,-4.0489,-4.0489,-4.0489,-4.0489,-4.0489,-4.0489,-4.0489,-4.0406,-4.0101,-3.9783,-3.9504,-3.9193,-3.891,-3.875,-3.8707,-3.8707,-3.8707,-3.8707,-3.8707,-3.8707,-3.8707,-3.8707,-3.8707,-3.8707,-3.8707,-3.8707,-3.8707,-3.8707,-3.8707,-3.8707,-3.8707,-3.8707,-3.8707,-3.8707,-3.8707,-3.8707,-3.8707,-3.8707,-3.8707,-3.8707,-3.8707,-3.8707,-3.8707,-3.8707,-3.8707,-3.8707,-3.8707,-3.8707,-3.8707,-3.8707,-3.8707,-3.8707,-3.8707,-3.8707,-3.8707,-3.8707,-3.8707,-3.8707,-3.8707,-3.8707,-3.8689,-3.8487,-3.8248,-3.7239,-3.6211,-3.5477,-3.4963,-3.5128,-3.5404,-3.5789,-3.6321,-3.6982,-3.6853,-3.6395,-3.5679,-3.489,-3.4651,-4.0489,-4.0489,-4.0489,-4.0489,-4.0489,-4.0489,-4.0489,-4.0489,-4.0489,-4.0489,-4.0489,-4.0489,-4.0489,-4.0489,-4.0489,-4.0489,-4.0489,-4.0489,-4.0489,-4.0489,-4.0489,-4.0489,-4.0489,-4.0489,-4.0489,-4.0489,-4.0489,-4.0489,-4.0489,-4.0489,-4.0489,-4.0489,-4.0489,-4.0489,-4.0489,-4.0489,-4.0489,-4.0489,-4.0489,-4.0489,-4.0489,-4.0489,-4.0489,-4.0489,-4.0489,-4.0431,-4.0211,-3.9857,-3.953,-3.9256,-3.898,-3.875,-3.8707,-3.8707,-3.8707,-3.8707,-3.8707,-3.8707,-3.8707,-3.8707,-3.8707,-3.8707,-3.8707,-3.8707,-3.8707,-3.8707,-3.8707,-3.8707,-3.8707,-3.8707,-3.8707,-3.8707,-3.8707,-3.8707,-3.8707,-3.8707,-3.8707,-3.8707,-3.8707,-3.8707,-3.8707,-3.8707,-3.8707,-3.8707,-3.8707,-3.8707,-3.8707,-3.8707,-3.8707,-3.8707,-3.8707,-3.8707,-3.8707,-3.8707,-3.8707,-3.8707,-3.8707,-3.8707,-3.8615,-3.8212,-3.7753,-3.6835,-3.6028,-3.5293,-3.4908,-3.4798,-3.4908,-3.5165,-3.5936,-3.6798,-3.6211,-3.5349,-3.5,-3.4302,-3.4137,-4.0412,-4.0489,-4.0412,-4.0392,-4.0335,-4.0489,-4.0489,-4.0489,-4.0489,-4.0489,-4.0489,-4.0489,-4.0489,-4.0489,-4.0489,-4.0489,-4.0489,-4.0489,-4.0489,-4.0489,-4.0489,-4.0489,-4.0489,-4.0489,-4.0489,-4.0489,-4.0489,-4.0489,-4.0489,-4.0489,-4.0489,-4.0489,-4.0489,-4.0489,-4.0489,-4.0489,-4.0489,-4.0489,-4.0489,-4.0489,-4.0489,-4.0489,-4.0489,-4.0489,-4.0489,-4.0412,-4.0224,-3.9821,-3.9526,-3.9287,-3.8913,-3.8719,-3.8707,-3.8707,-3.8707,-3.8707,-3.8707,-3.8707,-3.8707,-3.8707,-3.8707,-3.8707,-3.8707,-3.8707,-3.8707,-3.8707,-3.8707,-3.8707,-3.8707,-3.8707,-3.8707,-3.8707,-3.8707,-3.8707,-3.8707,-3.8707,-3.8707,-3.8707,-3.8707,-3.8707,-3.8707,-3.8707,-3.8707,-3.8707,-3.8707,-3.8707,-3.8707,-3.8707,-3.8707,-3.8707,-3.8707,-3.8707,-3.8707,-3.8707,-3.8707,-3.8707,-3.8707,-3.8707,-3.856,-3.8212,-3.7624,-3.6817,-3.6009,-3.5147,-3.4669,-3.4394,-3.4394,-3.4486,-3.522,-3.5752,-3.489,-3.4156,-3.3917,-3.3862,-3.3825,-3.8854,-3.8854,-3.8854,-3.8834,-3.8988,-4.0046,-4.0489,-4.0489,-4.0489,-4.0489,-4.0489,-4.0489,-4.0489,-4.0489,-4.0489,-4.0489,-4.0489,-4.0489,-4.0489,-4.0489,-4.0489,-4.0489,-4.0489,-4.0489,-4.0489,-4.0489,-4.0489,-4.0489,-4.0489,-4.0489,-4.0489,-4.0489,-4.0489,-4.0489,-4.0489,-4.0489,-4.0489,-4.0489,-4.0489,-4.0489,-4.0489,-4.0489,-4.0489,-4.0489,-4.0489,-4.0431,-4.0303,-3.9867,-3.9534,-3.9333,-3.898,-3.8719,-3.8707,-3.8707,-3.8707,-3.8707,-3.8707,-3.8707,-3.8707,-3.8707,-3.8707,-3.8707,-3.8707,-3.8707,-3.8707,-3.8707,-3.8707,-3.8707,-3.8707,-3.8707,-3.8707,-3.8707,-3.8707,-3.8707,-3.8707,-3.8707,-3.8707,-3.8707,-3.8707,-3.8707,-3.8707,-3.8707,-3.8707,-3.8707,-3.8707,-3.8707,-3.8707,-3.8707,-3.8707,-3.8707,-3.8707,-3.8707,-3.8707,-3.8707,-3.8707,-3.8707,-3.8707,-3.8707,-3.856,-3.8303,-3.7624,-3.6688,-3.5881,-3.4981,-3.4449,-3.399,-3.4229,-3.4431,-3.4449,-3.4412,-3.4009,-3.3807,-3.3825,-3.3844,-3.3825,-3.8007,-3.8007,-3.8007,-3.8007,-3.8219,-3.9508,-4.02,-4.045,-4.0489,-4.0489,-4.0489,-4.0489,-4.0489,-4.0489,-4.0489,-4.0489,-4.0489,-4.0489,-4.0489,-4.0489,-4.0489,-4.0489,-4.0489,-4.0489,-4.0489,-4.0489,-4.0489,-4.0489,-4.0489,-4.0489,-4.0489,-4.0489,-4.0489,-4.0489,-4.0489,-4.0489,-4.0489,-4.0489,-4.0489,-4.0489,-4.0489,-4.0489,-4.0489,-4.0489,-4.0489,-4.0489,-4.0317,-4.0024,-3.9599,-3.9451,-3.91,-3.8719,-3.8707,-3.8707,-3.8707,-3.8707,-3.8707,-3.8707,-3.8707,-3.8707,-3.8707,-3.8707,-3.8707,-3.8707,-3.8707,-3.8707,-3.8707,-3.8707,-3.8707,-3.8707,-3.8707,-3.8707,-3.8707,-3.8707,-3.8707,-3.8707,-3.8707,-3.8707,-3.8707,-3.8707,-3.8707,-3.8707,-3.8707,-3.8707,-3.8707,-3.8707,-3.8707,-3.8707,-3.8707,-3.8707,-3.8707,-3.8707,-3.8707,-3.8707,-3.8707,-3.8707,-3.8707,-3.8707,-3.8432,-3.8102,-3.7165,-3.6156,-3.5477,-3.4853,-3.4284,-3.399,-3.4302,-3.4449,-3.4284,-3.4137,-3.3935,-3.3807,-3.3807,-3.3807,-3.3807,-3.7892,-3.793,-3.7911,-3.7853,-3.8027,-3.8719,-3.9565,-4.0335,-4.0392,-4.0412,-4.0412,-4.0431,-4.0489,-4.0489,-4.0489,-4.0489,-4.0489,-4.0489,-4.0489,-4.0489,-4.0489,-4.0489,-4.0489,-4.0489,-4.0489,-4.0489,-4.0489,-4.0489,-4.0489,-4.0489,-4.0489,-4.0489,-4.0489,-4.0489,-4.0489,-4.0489,-4.0489,-4.0489,-4.0489,-4.0489,-4.0489,-4.0489,-4.0489,-4.0489,-4.0489,-4.0489,-4.0319,-3.9964,-3.969,-3.9402,-3.9055,-3.8822,-3.8707,-3.8707,-3.8707,-3.8707,-3.8707,-3.8707,-3.8707,-3.8707,-3.8707,-3.8707,-3.8707,-3.8707,-3.8707,-3.8707,-3.8707,-3.8707,-3.8707,-3.8707,-3.8707,-3.8707,-3.8707,-3.8707,-3.8707,-3.8707,-3.8707,-3.8707,-3.8707,-3.8707,-3.8707,-3.8707,-3.8707,-3.8707,-3.8707,-3.8707,-3.8707,-3.8707,-3.8707,-3.8707,-3.8707,-3.8707,-3.8707,-3.8707,-3.8689,-3.867,-3.8707,-3.8707,-3.801,-3.7533,-3.656,-3.5734,-3.5073,-3.4504,-3.4064,-3.3935,-3.4137,-3.41,-3.3935,-3.3807,-3.3807,-3.3807,-3.3807,-3.3807,-3.3807,-3.6219,-3.6205,-3.6219,-3.6205,-3.6334,-3.7103,-3.793,-3.8719,-3.9335,-3.9642,-3.9665,-4.0258,-4.0431,-4.0489,-4.0489,-4.0489,-4.0489,-4.0489,-4.0489,-4.0489,-4.0489,-4.0489,-4.0489,-4.0489,-4.0489,-4.0489,-4.0489,-4.0489,-4.0489,-4.0489,-4.0489,-4.0489,-4.0489,-4.0489,-4.0489,-4.0489,-4.0489,-4.0489,-4.0489,-4.0489,-4.0489,-4.0489,-4.0489,-4.0489,-4.0489,-4.0489,-4.0353,-3.9926,-3.9694,-3.9524,-3.9027,-3.8719,-3.8707,-3.8707,-3.8707,-3.8707,-3.8707,-3.8707,-3.8707,-3.8707,-3.8707,-3.8707,-3.8707,-3.8707,-3.8707,-3.8707,-3.8707,-3.8707,-3.8707,-3.8707,-3.8707,-3.8707,-3.8707,-3.8707,-3.8707,-3.8707,-3.8707,-3.8707,-3.8707,-3.8707,-3.8707,-3.8707,-3.8707,-3.8707,-3.8707,-3.8707,-3.8707,-3.8707,-3.8707,-3.8707,-3.8707,-3.8707,-3.8652,-3.8652,-3.8615,-3.8597,-3.8652,-3.8597,-3.7716,-3.6945,-3.6285,-3.5495,-3.4743,-3.4229,-3.3917,-3.3807,-3.3862,-3.3807,-3.3807,-3.3807,-3.3807,-3.3807,-3.3807,-3.3807,-3.3807,-3.5507,-3.5507,-3.5507,-3.5507,-3.5584,-3.6026,-3.6546,-3.718,-3.8257,-3.8916,-3.9342,-3.98,-4.02,-4.0469,-4.0489,-4.0489,-4.0489,-4.0489,-4.0489,-4.0489,-4.0489,-4.0489,-4.0489,-4.0489,-4.0489,-4.0489,-4.0489,-4.0489,-4.0489,-4.0489,-4.0489,-4.0489,-4.0489,-4.0489,-4.0489,-4.0489,-4.0489,-4.0489,-4.0489,-4.0489,-4.0489,-4.0489,-4.0489,-4.0489,-4.0489,-4.0489,-4.0454,-3.9986,-3.9768,-3.9603,-3.9073,-3.8803,-3.8732,-3.8707,-3.8707,-3.8707,-3.8707,-3.8707,-3.8707,-3.8707,-3.8707,-3.8707,-3.8707,-3.8707,-3.8707,-3.8707,-3.8707,-3.8707,-3.8707,-3.8707,-3.8707,-3.8707,-3.8707,-3.8707,-3.8707,-3.8707,-3.8707,-3.8707,-3.8707,-3.8707,-3.8707,-3.8707,-3.8707,-3.8707,-3.8707,-3.8707,-3.8707,-3.8707,-3.8707,-3.8707,-3.8707,-3.8707,-3.8634,-3.856,-3.8487,-3.8248,-3.8046,-3.7643,-3.6688,-3.6028,-3.5716,-3.5165,-3.4321,-3.4009,-3.3844,-3.3807,-3.3807,-3.3807,-3.3807,-3.3807,-3.3807,-3.3807,-3.3807,-3.3807,-3.3807,-3.5507,-3.5507,-3.5507,-3.5507,-3.5507,-3.5545,-3.5584,-3.5661,-3.7123,-3.8243,-3.8881,-3.9246,-3.9742,-4.0181,-4.0392,-4.0489,-4.0489,-4.0489,-4.0489,-4.0489,-4.0489,-4.0489,-4.0489,-4.0489,-4.0489,-4.0489,-4.0489,-4.0489,-4.0489,-4.0489,-4.0489,-4.0489,-4.0489,-4.0489,-4.0489,-4.0489,-4.0489,-4.0489,-4.0489,-4.0489,-4.0489,-4.0489,-4.0489,-4.0489,-4.0489,-4.0489,-4.0396,-4.0183,-3.9908,-3.9596,-3.9249,-3.8923,-3.8773,-3.8707,-3.8707,-3.8707,-3.8707,-3.8707,-3.8707,-3.8707,-3.8707,-3.8707,-3.8707,-3.8707,-3.8707,-3.8707,-3.8707,-3.8707,-3.8707,-3.8707,-3.8707,-3.8707,-3.8707,-3.8707,-3.8707,-3.8707,-3.8707,-3.8707,-3.8707,-3.8707,-3.8707,-3.8707,-3.8707,-3.8707,-3.8707,-3.8707,-3.8707,-3.8707,-3.8707,-3.8707,-3.8707,-3.8707,-3.8652,-3.845,-3.7881,-3.7606,-3.7202,-3.6615,-3.5789,-3.5412,-3.5349,-3.4706,-3.3899,-3.3807,-3.3807,-3.3807,-3.3807,-3.3807,-3.3807,-3.3807,-3.3807,-3.3807,-3.3807,-3.3807,-3.3807,-3.5507,-3.5507,-3.5507,-3.5507,-3.5507,-3.5507,-3.5507,-3.5526,-3.5892,-3.6622,-3.7464,-3.8623,-3.9396,-3.9685,-4.0296,-4.0489,-4.0489,-4.0489,-4.0489,-4.0489,-4.0489,-4.0489,-4.0489,-4.0489,-4.0489,-4.0489,-4.0489,-4.0489,-4.0489,-4.0489,-4.0489,-4.0489,-4.0489,-4.0489,-4.0489,-4.0489,-4.0489,-4.0489,-4.0489,-4.0489,-4.0489,-4.0489,-4.0489,-4.0489,-4.0489,-4.0492,-4.0334,-4.0005,-3.9785,-3.9529,-3.9064,-3.8803,-3.8689,-3.8707,-3.8707,-3.8707,-3.8707,-3.8707,-3.8707,-3.8707,-3.8707,-3.8707,-3.8707,-3.8707,-3.8707,-3.8707,-3.8707,-3.8707,-3.8707,-3.8707,-3.8707,-3.8707,-3.8707,-3.8707,-3.8707,-3.8707,-3.8707,-3.8707,-3.8707,-3.8707,-3.8707,-3.8707,-3.8707,-3.8707,-3.8707,-3.8707,-3.8707,-3.8707,-3.8707,-3.8707,-3.8707,-3.8707,-3.8707,-3.8414,-3.7643,-3.7037,-3.6688,-3.6119,-3.5385,-3.5128,-3.4963,-3.4394,-3.3807,-3.3807,-3.3807,-3.3807,-3.3807,-3.3807,-3.3807,-3.3807,-3.3807,-3.3807,-3.3807,-3.3807,-3.3807,-3.5507,-3.5507,-3.5507,-3.5507,-3.5507,-3.5507,-3.5507,-3.5507,-3.5507,-3.5738,-3.6386,-3.7873,-3.8916,-3.9342,-4.0142,-4.0489,-4.0489,-4.0489,-4.0489,-4.0489,-4.0489,-4.0489,-4.0489,-4.0489,-4.0489,-4.0489,-4.0489,-4.0489,-4.0489,-4.0489,-4.0489,-4.0489,-4.0489,-4.0489,-4.0489,-4.0489,-4.0489,-4.0489,-4.0489,-4.0489,-4.0489,-4.0489,-4.0489,-4.0489,-4.0489,-4.0444,-4.0253,-3.9946,-3.9693,-3.9389,-3.8942,-3.8762,-3.8707,-3.8707,-3.8707,-3.8707,-3.8707,-3.8707,-3.8707,-3.8707,-3.8707,-3.8707,-3.8707,-3.8707,-3.8707,-3.8707,-3.8707,-3.8707,-3.8707,-3.8707,-3.8707,-3.8707,-3.8707,-3.8707,-3.8707,-3.8707,-3.8707,-3.8707,-3.8707,-3.8707,-3.8707,-3.8707,-3.8707,-3.8707,-3.8707,-3.8707,-3.8707,-3.8707,-3.8707,-3.867,-3.867,-3.8597,-3.8542,-3.7955,-3.7019,-3.6523,-3.6211,-3.5605,-3.4926,-3.4633,-3.4357,-3.4082,-3.3807,-3.3807,-3.3807,-3.3807,-3.3807,-3.3807,-3.3807,-3.3807,-3.3807,-3.3807,-3.3807,-3.3807,-3.3807,-3.5507,-3.5507,-3.5507,-3.5507,-3.5507,-3.5507,-3.5507,-3.5507,-3.5507,-3.5507,-3.5757,-3.718,-3.8281,-3.9165,-3.9969,-4.0277,-4.0485,-4.0489,-4.0489,-4.0489,-4.0489,-4.0489,-4.0489,-4.0489,-4.0489,-4.0489,-4.0489,-4.0489,-4.0489,-4.0489,-4.0489,-4.0489,-4.0489,-4.0489,-4.0489,-4.0489,-4.0489,-4.0489,-4.0489,-4.0489,-4.0489,-4.0489,-4.0489,-4.0489,-4.0438,-4.0328,-4.0163,-3.99,-3.9595,-3.9275,-3.8865,-3.8762,-3.8707,-3.8707,-3.8707,-3.8707,-3.8707,-3.8707,-3.8707,-3.8707,-3.8707,-3.8707,-3.8707,-3.8707,-3.8707,-3.8707,-3.8707,-3.8707,-3.8707,-3.8707,-3.8707,-3.8707,-3.8707,-3.8707,-3.8707,-3.8707,-3.8707,-3.8707,-3.8707,-3.8707,-3.8707,-3.8707,-3.8707,-3.8707,-3.8707,-3.8707,-3.8707,-3.8707,-3.8689,-3.8615,-3.8579,-3.8377,-3.8193,-3.7441,-3.6541,-3.6028,-3.5734,-3.4926,-3.4284,-3.4009,-3.3807,-3.3807,-3.3807,-3.3807,-3.3807,-3.3807,-3.3807,-3.3807,-3.3807,-3.3807,-3.3807,-3.3807,-3.3807,-3.3807,-3.3807,-3.5507,-3.5507,-3.5507,-3.5507,-3.5507,-3.5507,-3.5507,-3.5507,-3.5507,-3.5507,-3.5724,-3.6454,-3.744,-3.8274,-3.9146,-3.9738,-4.0296,-4.0412,-4.0489,-4.0489,-4.0489,-4.0489,-4.0489,-4.0489,-4.0489,-4.0489,-4.0489,-4.0489,-4.0489,-4.0489,-4.0489,-4.0489,-4.0489,-4.0489,-4.0489,-4.0489,-4.0489,-4.0489,-4.0489,-4.0489,-4.0489,-4.0489,-4.0489,-4.0431,-4.0296,-4.0177,-3.9974,-3.9527,-3.9296,-3.9064,-3.8855,-3.875,-3.8707,-3.8707,-3.8707,-3.8707,-3.8707,-3.8707,-3.8707,-3.8707,-3.8707,-3.8707,-3.8707,-3.8707,-3.8707,-3.8707,-3.8707,-3.8707,-3.8707,-3.8707,-3.8707,-3.8707,-3.8707,-3.8707,-3.8707,-3.8707,-3.8707,-3.8707,-3.8707,-3.8707,-3.8707,-3.8707,-3.8707,-3.8707,-3.8707,-3.8707,-3.8707,-3.8707,-3.8689,-3.8579,-3.8432,-3.8102,-3.7808,-3.7221,-3.6431,-3.5614,-3.5119,-3.4321,-3.3807,-3.3807,-3.3807,-3.3807,-3.3807,-3.3807,-3.3807,-3.3807,-3.3807,-3.3807,-3.3807,-3.3807,-3.3807,-3.3807,-3.3807,-3.3807,-3.3807]}]]